<?xml version="1.0" encoding="UTF-8" standalone="no" ?>
<gpx xmlns="http://www.topografix.com/GPX/1/1" xmlns:xsi="http://www.w3.org/2001/XMLSchema-instance" xsi:schemaLocation="http://www.topografix.com/GPX/1/1 http://www.topografix.com/GPX/1/1/gpx.xsd" version="1.1" creator="VisuGPX - https://www.visugpx.com">
  <metadata>
    <name>Tour du Môle</name>
    <desc><![CDATA[Tour du Môle à vélo par Marignier.]]></desc>
  </metadata>
  <trk>
    <name><![CDATA[Tour du Môle]]></name>
    <trkseg>
      <trkpt lat="46.18265" lon="6.20698">
        <ele>417</ele>
        <time>2017-04-29T12:35:02.000Z</time>
      </trkpt>
      <trkpt lat="46.18279" lon="6.2076">
        <ele>417</ele>
        <time>2017-04-29T12:35:15.000Z</time>
      </trkpt>
      <trkpt lat="46.18291" lon="6.20844">
        <ele>418</ele>
        <time>2017-04-29T12:35:24.000Z</time>
      </trkpt>
      <trkpt lat="46.18292" lon="6.20902">
        <ele>418</ele>
        <time>2017-04-29T12:35:30.000Z</time>
      </trkpt>
      <trkpt lat="46.18293" lon="6.20983">
        <ele>418</ele>
        <time>2017-04-29T12:35:39.000Z</time>
      </trkpt>
      <trkpt lat="46.18297" lon="6.2105">
        <ele>419</ele>
        <time>2017-04-29T12:35:46.000Z</time>
      </trkpt>
      <trkpt lat="46.18303" lon="6.21068">
        <ele>419</ele>
        <time>2017-04-29T12:35:48.000Z</time>
      </trkpt>
      <trkpt lat="46.1831" lon="6.21083">
        <ele>421</ele>
        <time>2017-04-29T12:35:50.000Z</time>
      </trkpt>
      <trkpt lat="46.18333" lon="6.21117">
        <ele>422</ele>
        <time>2017-04-29T12:35:55.000Z</time>
      </trkpt>
      <trkpt lat="46.18344" lon="6.21125">
        <ele>423</ele>
        <time>2017-04-29T12:35:57.000Z</time>
      </trkpt>
      <trkpt lat="46.18367" lon="6.21132">
        <ele>423</ele>
        <time>2017-04-29T12:36:01.000Z</time>
      </trkpt>
      <trkpt lat="46.18375" lon="6.21142">
        <ele>422</ele>
        <time>2017-04-29T12:36:03.000Z</time>
      </trkpt>
      <trkpt lat="46.18372" lon="6.21159">
        <ele>422</ele>
        <time>2017-04-29T12:36:05.000Z</time>
      </trkpt>
      <trkpt lat="46.1836" lon="6.21186">
        <ele>419</ele>
        <time>2017-04-29T12:36:08.000Z</time>
      </trkpt>
      <trkpt lat="46.18356" lon="6.21196">
        <ele>418</ele>
        <time>2017-04-29T12:36:09.000Z</time>
      </trkpt>
      <trkpt lat="46.18347" lon="6.21217">
        <ele>417</ele>
        <time>2017-04-29T12:36:11.000Z</time>
      </trkpt>
      <trkpt lat="46.18337" lon="6.2124">
        <ele>416</ele>
        <time>2017-04-29T12:36:13.000Z</time>
      </trkpt>
      <trkpt lat="46.18331" lon="6.2125">
        <ele>416</ele>
        <time>2017-04-29T12:36:14.000Z</time>
      </trkpt>
      <trkpt lat="46.18324" lon="6.21259">
        <ele>415</ele>
        <time>2017-04-29T12:36:15.000Z</time>
      </trkpt>
      <trkpt lat="46.18309" lon="6.21278">
        <ele>415</ele>
        <time>2017-04-29T12:36:17.000Z</time>
      </trkpt>
      <trkpt lat="46.18296" lon="6.213">
        <ele>415</ele>
        <time>2017-04-29T12:36:19.000Z</time>
      </trkpt>
      <trkpt lat="46.18285" lon="6.21325">
        <ele>416</ele>
        <time>2017-04-29T12:36:21.000Z</time>
      </trkpt>
      <trkpt lat="46.18275" lon="6.21349">
        <ele>413</ele>
        <time>2017-04-29T12:36:23.000Z</time>
      </trkpt>
      <trkpt lat="46.18265" lon="6.21374">
        <ele>411</ele>
        <time>2017-04-29T12:36:25.000Z</time>
      </trkpt>
      <trkpt lat="46.18259" lon="6.21399">
        <ele>410</ele>
        <time>2017-04-29T12:36:27.000Z</time>
      </trkpt>
      <trkpt lat="46.18252" lon="6.21421">
        <ele>408</ele>
        <time>2017-04-29T12:36:29.000Z</time>
      </trkpt>
      <trkpt lat="46.18247" lon="6.21438">
        <ele>406</ele>
        <time>2017-04-29T12:36:31.000Z</time>
      </trkpt>
      <trkpt lat="46.18243" lon="6.21452">
        <ele>405</ele>
        <time>2017-04-29T12:36:33.000Z</time>
      </trkpt>
      <trkpt lat="46.1824" lon="6.21463">
        <ele>404</ele>
        <time>2017-04-29T12:36:35.000Z</time>
      </trkpt>
      <trkpt lat="46.18238" lon="6.21473">
        <ele>404</ele>
        <time>2017-04-29T12:36:38.000Z</time>
      </trkpt>
      <trkpt lat="46.18232" lon="6.21488">
        <ele>403</ele>
        <time>2017-04-29T12:36:43.000Z</time>
      </trkpt>
      <trkpt lat="46.18224" lon="6.21498">
        <ele>403</ele>
        <time>2017-04-29T12:36:45.000Z</time>
      </trkpt>
      <trkpt lat="46.18219" lon="6.21513">
        <ele>402</ele>
        <time>2017-04-29T12:36:47.000Z</time>
      </trkpt>
      <trkpt lat="46.18224" lon="6.21529">
        <ele>402</ele>
        <time>2017-04-29T12:36:49.000Z</time>
      </trkpt>
      <trkpt lat="46.18236" lon="6.21535">
        <ele>401</ele>
        <time>2017-04-29T12:36:51.000Z</time>
      </trkpt>
      <trkpt lat="46.18256" lon="6.21535">
        <ele>401</ele>
        <time>2017-04-29T12:36:54.000Z</time>
      </trkpt>
      <trkpt lat="46.18309" lon="6.21562">
        <ele>401</ele>
        <time>2017-04-29T12:37:01.000Z</time>
      </trkpt>
      <trkpt lat="46.18361" lon="6.21593">
        <ele>401</ele>
        <time>2017-04-29T12:37:08.000Z</time>
      </trkpt>
      <trkpt lat="46.18404" lon="6.21619">
        <ele>402</ele>
        <time>2017-04-29T12:37:14.000Z</time>
      </trkpt>
      <trkpt lat="46.18411" lon="6.21623">
        <ele>402</ele>
        <time>2017-04-29T12:37:15.000Z</time>
      </trkpt>
      <trkpt lat="46.18425" lon="6.21631">
        <ele>402</ele>
        <time>2017-04-29T12:37:17.000Z</time>
      </trkpt>
      <trkpt lat="46.18462" lon="6.21651">
        <ele>402</ele>
        <time>2017-04-29T12:37:22.000Z</time>
      </trkpt>
      <trkpt lat="46.18474" lon="6.21665">
        <ele>401</ele>
        <time>2017-04-29T12:37:24.000Z</time>
      </trkpt>
      <trkpt lat="46.18485" lon="6.21682">
        <ele>401</ele>
        <time>2017-04-29T12:37:26.000Z</time>
      </trkpt>
      <trkpt lat="46.18489" lon="6.21691">
        <ele>401</ele>
        <time>2017-04-29T12:37:27.000Z</time>
      </trkpt>
      <trkpt lat="46.18496" lon="6.21711">
        <ele>401</ele>
        <time>2017-04-29T12:37:29.000Z</time>
      </trkpt>
      <trkpt lat="46.18509" lon="6.21789">
        <ele>402</ele>
        <time>2017-04-29T12:37:36.000Z</time>
      </trkpt>
      <trkpt lat="46.18521" lon="6.21871">
        <ele>402</ele>
        <time>2017-04-29T12:37:43.000Z</time>
      </trkpt>
      <trkpt lat="46.18536" lon="6.21958">
        <ele>401</ele>
        <time>2017-04-29T12:37:50.000Z</time>
      </trkpt>
      <trkpt lat="46.18551" lon="6.22041">
        <ele>401</ele>
        <time>2017-04-29T12:37:57.000Z</time>
      </trkpt>
      <trkpt lat="46.1856" lon="6.2206">
        <ele>401</ele>
        <time>2017-04-29T12:37:59.000Z</time>
      </trkpt>
      <trkpt lat="46.18601" lon="6.22123">
        <ele>402</ele>
        <time>2017-04-29T12:38:07.000Z</time>
      </trkpt>
      <trkpt lat="46.1861" lon="6.22138">
        <ele>402</ele>
        <time>2017-04-29T12:38:09.000Z</time>
      </trkpt>
      <trkpt lat="46.18633" lon="6.22193">
        <ele>403</ele>
        <time>2017-04-29T12:38:16.000Z</time>
      </trkpt>
      <trkpt lat="46.18634" lon="6.22231">
        <ele>403</ele>
        <time>2017-04-29T12:38:20.000Z</time>
      </trkpt>
      <trkpt lat="46.18629" lon="6.2225">
        <ele>403</ele>
        <time>2017-04-29T12:38:22.000Z</time>
      </trkpt>
      <trkpt lat="46.18612" lon="6.22288">
        <ele>403</ele>
        <time>2017-04-29T12:38:26.000Z</time>
      </trkpt>
      <trkpt lat="46.18587" lon="6.22364">
        <ele>403</ele>
        <time>2017-04-29T12:38:33.000Z</time>
      </trkpt>
      <trkpt lat="46.18568" lon="6.22445">
        <ele>402</ele>
        <time>2017-04-29T12:38:40.000Z</time>
      </trkpt>
      <trkpt lat="46.18551" lon="6.22528">
        <ele>404</ele>
        <time>2017-04-29T12:38:47.000Z</time>
      </trkpt>
      <trkpt lat="46.18533" lon="6.22612">
        <ele>404</ele>
        <time>2017-04-29T12:38:54.000Z</time>
      </trkpt>
      <trkpt lat="46.18512" lon="6.22693">
        <ele>403</ele>
        <time>2017-04-29T12:39:01.000Z</time>
      </trkpt>
      <trkpt lat="46.18494" lon="6.22749">
        <ele>402</ele>
        <time>2017-04-29T12:39:06.000Z</time>
      </trkpt>
      <trkpt lat="46.18468" lon="6.22823">
        <ele>402</ele>
        <time>2017-04-29T12:39:13.000Z</time>
      </trkpt>
      <trkpt lat="46.1844" lon="6.22892">
        <ele>402</ele>
        <time>2017-04-29T12:39:20.000Z</time>
      </trkpt>
      <trkpt lat="46.18412" lon="6.22963">
        <ele>402</ele>
        <time>2017-04-29T12:39:27.000Z</time>
      </trkpt>
      <trkpt lat="46.18382" lon="6.23038">
        <ele>404</ele>
        <time>2017-04-29T12:39:35.000Z</time>
      </trkpt>
      <trkpt lat="46.18363" lon="6.23088">
        <ele>406</ele>
        <time>2017-04-29T12:39:44.000Z</time>
      </trkpt>
      <trkpt lat="46.1834" lon="6.23078">
        <ele>402</ele>
        <time>2017-04-29T12:39:49.000Z</time>
      </trkpt>
      <trkpt lat="46.18287" lon="6.23055">
        <ele>402</ele>
        <time>2017-04-29T12:39:56.000Z</time>
      </trkpt>
      <trkpt lat="46.18238" lon="6.2302">
        <ele>404</ele>
        <time>2017-04-29T12:40:02.000Z</time>
      </trkpt>
      <trkpt lat="46.18201" lon="6.22989">
        <ele>403</ele>
        <time>2017-04-29T12:40:07.000Z</time>
      </trkpt>
      <trkpt lat="46.18186" lon="6.22984">
        <ele>403</ele>
        <time>2017-04-29T12:40:09.000Z</time>
      </trkpt>
      <trkpt lat="46.18141" lon="6.22978">
        <ele>404</ele>
        <time>2017-04-29T12:40:15.000Z</time>
      </trkpt>
      <trkpt lat="46.1808" lon="6.2297">
        <ele>406</ele>
        <time>2017-04-29T12:40:23.000Z</time>
      </trkpt>
      <trkpt lat="46.18052" lon="6.2297">
        <ele>407</ele>
        <time>2017-04-29T12:40:27.000Z</time>
      </trkpt>
      <trkpt lat="46.18043" lon="6.22981">
        <ele>407</ele>
        <time>2017-04-29T12:40:29.000Z</time>
      </trkpt>
      <trkpt lat="46.18039" lon="6.22988">
        <ele>408</ele>
        <time>2017-04-29T12:40:30.000Z</time>
      </trkpt>
      <trkpt lat="46.18024" lon="6.23011">
        <ele>408</ele>
        <time>2017-04-29T12:40:33.000Z</time>
      </trkpt>
      <trkpt lat="46.18008" lon="6.23035">
        <ele>408</ele>
        <time>2017-04-29T12:40:36.000Z</time>
      </trkpt>
      <trkpt lat="46.17997" lon="6.23052">
        <ele>415</ele>
        <time>2017-04-29T12:40:38.000Z</time>
      </trkpt>
      <trkpt lat="46.17967" lon="6.2312">
        <ele>415</ele>
        <time>2017-04-29T12:40:45.000Z</time>
      </trkpt>
      <trkpt lat="46.17964" lon="6.2313">
        <ele>415</ele>
        <time>2017-04-29T12:40:46.000Z</time>
      </trkpt>
      <trkpt lat="46.17935" lon="6.23208">
        <ele>415</ele>
        <time>2017-04-29T12:40:54.000Z</time>
      </trkpt>
      <trkpt lat="46.17908" lon="6.23277">
        <ele>421</ele>
        <time>2017-04-29T12:41:01.000Z</time>
      </trkpt>
      <trkpt lat="46.17896" lon="6.23304">
        <ele>421</ele>
        <time>2017-04-29T12:41:04.000Z</time>
      </trkpt>
      <trkpt lat="46.17888" lon="6.23322">
        <ele>421</ele>
        <time>2017-04-29T12:41:06.000Z</time>
      </trkpt>
      <trkpt lat="46.17875" lon="6.23348">
        <ele>418</ele>
        <time>2017-04-29T12:41:09.000Z</time>
      </trkpt>
      <trkpt lat="46.17854" lon="6.23381">
        <ele>418</ele>
        <time>2017-04-29T12:41:13.000Z</time>
      </trkpt>
      <trkpt lat="46.17838" lon="6.23404">
        <ele>418</ele>
        <time>2017-04-29T12:41:16.000Z</time>
      </trkpt>
      <trkpt lat="46.17827" lon="6.23418">
        <ele>420</ele>
        <time>2017-04-29T12:41:18.000Z</time>
      </trkpt>
      <trkpt lat="46.17809" lon="6.23437">
        <ele>421</ele>
        <time>2017-04-29T12:41:21.000Z</time>
      </trkpt>
      <trkpt lat="46.17784" lon="6.23459">
        <ele>421</ele>
        <time>2017-04-29T12:41:25.000Z</time>
      </trkpt>
      <trkpt lat="46.17765" lon="6.23474">
        <ele>421</ele>
        <time>2017-04-29T12:41:28.000Z</time>
      </trkpt>
      <trkpt lat="46.1774" lon="6.23494">
        <ele>424</ele>
        <time>2017-04-29T12:41:32.000Z</time>
      </trkpt>
      <trkpt lat="46.17708" lon="6.23519">
        <ele>420</ele>
        <time>2017-04-29T12:41:37.000Z</time>
      </trkpt>
      <trkpt lat="46.17695" lon="6.23529">
        <ele>420</ele>
        <time>2017-04-29T12:41:39.000Z</time>
      </trkpt>
      <trkpt lat="46.17684" lon="6.23538">
        <ele>420</ele>
        <time>2017-04-29T12:41:41.000Z</time>
      </trkpt>
      <trkpt lat="46.17673" lon="6.23546">
        <ele>420</ele>
        <time>2017-04-29T12:41:43.000Z</time>
      </trkpt>
      <trkpt lat="46.17663" lon="6.23551">
        <ele>430</ele>
        <time>2017-04-29T12:41:45.000Z</time>
      </trkpt>
      <trkpt lat="46.17654" lon="6.2355">
        <ele>431</ele>
        <time>2017-04-29T12:41:47.000Z</time>
      </trkpt>
      <trkpt lat="46.17635" lon="6.23546">
        <ele>433</ele>
        <time>2017-04-29T12:41:51.000Z</time>
      </trkpt>
      <trkpt lat="46.17624" lon="6.23549">
        <ele>434</ele>
        <time>2017-04-29T12:41:53.000Z</time>
      </trkpt>
      <trkpt lat="46.17613" lon="6.23556">
        <ele>435</ele>
        <time>2017-04-29T12:41:55.000Z</time>
      </trkpt>
      <trkpt lat="46.17602" lon="6.23566">
        <ele>435</ele>
        <time>2017-04-29T12:41:57.000Z</time>
      </trkpt>
      <trkpt lat="46.17585" lon="6.23582">
        <ele>434</ele>
        <time>2017-04-29T12:42:00.000Z</time>
      </trkpt>
      <trkpt lat="46.17562" lon="6.23603">
        <ele>434</ele>
        <time>2017-04-29T12:42:04.000Z</time>
      </trkpt>
      <trkpt lat="46.17534" lon="6.23629">
        <ele>434</ele>
        <time>2017-04-29T12:42:09.000Z</time>
      </trkpt>
      <trkpt lat="46.17504" lon="6.23655">
        <ele>433</ele>
        <time>2017-04-29T12:42:14.000Z</time>
      </trkpt>
      <trkpt lat="46.17487" lon="6.23672">
        <ele>434</ele>
        <time>2017-04-29T12:42:17.000Z</time>
      </trkpt>
      <trkpt lat="46.17463" lon="6.23705">
        <ele>435</ele>
        <time>2017-04-29T12:42:22.000Z</time>
      </trkpt>
      <trkpt lat="46.17459" lon="6.23712">
        <ele>435</ele>
        <time>2017-04-29T12:42:23.000Z</time>
      </trkpt>
      <trkpt lat="46.17451" lon="6.23728">
        <ele>435</ele>
        <time>2017-04-29T12:42:25.000Z</time>
      </trkpt>
      <trkpt lat="46.17425" lon="6.23774">
        <ele>432</ele>
        <time>2017-04-29T12:42:31.000Z</time>
      </trkpt>
      <trkpt lat="46.17421" lon="6.23781">
        <ele>432</ele>
        <time>2017-04-29T12:42:32.000Z</time>
      </trkpt>
      <trkpt lat="46.17403" lon="6.23811">
        <ele>438</ele>
        <time>2017-04-29T12:42:36.000Z</time>
      </trkpt>
      <trkpt lat="46.17393" lon="6.23825">
        <ele>438</ele>
        <time>2017-04-29T12:42:38.000Z</time>
      </trkpt>
      <trkpt lat="46.17351" lon="6.23879">
        <ele>435</ele>
        <time>2017-04-29T12:42:46.000Z</time>
      </trkpt>
      <trkpt lat="46.17346" lon="6.23886">
        <ele>435</ele>
        <time>2017-04-29T12:42:47.000Z</time>
      </trkpt>
      <trkpt lat="46.17323" lon="6.23911">
        <ele>439</ele>
        <time>2017-04-29T12:42:51.000Z</time>
      </trkpt>
      <trkpt lat="46.17293" lon="6.23938">
        <ele>438</ele>
        <time>2017-04-29T12:42:56.000Z</time>
      </trkpt>
      <trkpt lat="46.17262" lon="6.23963">
        <ele>438</ele>
        <time>2017-04-29T12:43:01.000Z</time>
      </trkpt>
      <trkpt lat="46.17219" lon="6.23991">
        <ele>444</ele>
        <time>2017-04-29T12:43:08.000Z</time>
      </trkpt>
      <trkpt lat="46.17183" lon="6.24012">
        <ele>441</ele>
        <time>2017-04-29T12:43:14.000Z</time>
      </trkpt>
      <trkpt lat="46.17158" lon="6.24024">
        <ele>444</ele>
        <time>2017-04-29T12:43:18.000Z</time>
      </trkpt>
      <trkpt lat="46.17145" lon="6.24029">
        <ele>444</ele>
        <time>2017-04-29T12:43:20.000Z</time>
      </trkpt>
      <trkpt lat="46.17099" lon="6.24044">
        <ele>444</ele>
        <time>2017-04-29T12:43:27.000Z</time>
      </trkpt>
      <trkpt lat="46.17064" lon="6.24049">
        <ele>448</ele>
        <time>2017-04-29T12:43:32.000Z</time>
      </trkpt>
      <trkpt lat="46.17036" lon="6.2405">
        <ele>448</ele>
        <time>2017-04-29T12:43:36.000Z</time>
      </trkpt>
      <trkpt lat="46.16987" lon="6.24049">
        <ele>452</ele>
        <time>2017-04-29T12:43:43.000Z</time>
      </trkpt>
      <trkpt lat="46.16979" lon="6.24048">
        <ele>452</ele>
        <time>2017-04-29T12:43:44.000Z</time>
      </trkpt>
      <trkpt lat="46.16951" lon="6.24047">
        <ele>453</ele>
        <time>2017-04-29T12:43:48.000Z</time>
      </trkpt>
      <trkpt lat="46.1693" lon="6.24047">
        <ele>453</ele>
        <time>2017-04-29T12:43:51.000Z</time>
      </trkpt>
      <trkpt lat="46.1691" lon="6.24047">
        <ele>457</ele>
        <time>2017-04-29T12:43:54.000Z</time>
      </trkpt>
      <trkpt lat="46.1689" lon="6.24052">
        <ele>458</ele>
        <time>2017-04-29T12:43:57.000Z</time>
      </trkpt>
      <trkpt lat="46.16877" lon="6.24059">
        <ele>458</ele>
        <time>2017-04-29T12:43:59.000Z</time>
      </trkpt>
      <trkpt lat="46.16843" lon="6.24095">
        <ele>455</ele>
        <time>2017-04-29T12:44:05.000Z</time>
      </trkpt>
      <trkpt lat="46.16821" lon="6.24131">
        <ele>458</ele>
        <time>2017-04-29T12:44:10.000Z</time>
      </trkpt>
      <trkpt lat="46.16801" lon="6.24155">
        <ele>457</ele>
        <time>2017-04-29T12:44:14.000Z</time>
      </trkpt>
      <trkpt lat="46.16795" lon="6.24159">
        <ele>457</ele>
        <time>2017-04-29T12:44:15.000Z</time>
      </trkpt>
      <trkpt lat="46.16783" lon="6.24167">
        <ele>451</ele>
        <time>2017-04-29T12:44:17.000Z</time>
      </trkpt>
      <trkpt lat="46.1677" lon="6.24169">
        <ele>452</ele>
        <time>2017-04-29T12:44:19.000Z</time>
      </trkpt>
      <trkpt lat="46.16758" lon="6.24166">
        <ele>456</ele>
        <time>2017-04-29T12:44:21.000Z</time>
      </trkpt>
      <trkpt lat="46.16752" lon="6.24164">
        <ele>455</ele>
        <time>2017-04-29T12:44:22.000Z</time>
      </trkpt>
      <trkpt lat="46.16739" lon="6.24157">
        <ele>457</ele>
        <time>2017-04-29T12:44:24.000Z</time>
      </trkpt>
      <trkpt lat="46.16722" lon="6.24145">
        <ele>458</ele>
        <time>2017-04-29T12:44:27.000Z</time>
      </trkpt>
      <trkpt lat="46.16704" lon="6.24133">
        <ele>458</ele>
        <time>2017-04-29T12:44:30.000Z</time>
      </trkpt>
      <trkpt lat="46.16681" lon="6.24115">
        <ele>460</ele>
        <time>2017-04-29T12:44:34.000Z</time>
      </trkpt>
      <trkpt lat="46.16657" lon="6.24099">
        <ele>460</ele>
        <time>2017-04-29T12:44:38.000Z</time>
      </trkpt>
      <trkpt lat="46.16632" lon="6.24086">
        <ele>458</ele>
        <time>2017-04-29T12:44:42.000Z</time>
      </trkpt>
      <trkpt lat="46.16608" lon="6.24077">
        <ele>467</ele>
        <time>2017-04-29T12:44:46.000Z</time>
      </trkpt>
      <trkpt lat="46.16576" lon="6.24068">
        <ele>465</ele>
        <time>2017-04-29T12:44:51.000Z</time>
      </trkpt>
      <trkpt lat="46.16535" lon="6.2406">
        <ele>466</ele>
        <time>2017-04-29T12:44:57.000Z</time>
      </trkpt>
      <trkpt lat="46.1648" lon="6.24048">
        <ele>463</ele>
        <time>2017-04-29T12:45:04.000Z</time>
      </trkpt>
      <trkpt lat="46.16463" lon="6.24043">
        <ele>463</ele>
        <time>2017-04-29T12:45:06.000Z</time>
      </trkpt>
      <trkpt lat="46.16425" lon="6.2403">
        <ele>465</ele>
        <time>2017-04-29T12:45:10.000Z</time>
      </trkpt>
      <trkpt lat="46.16405" lon="6.24022">
        <ele>462</ele>
        <time>2017-04-29T12:45:12.000Z</time>
      </trkpt>
      <trkpt lat="46.16385" lon="6.24017">
        <ele>460</ele>
        <time>2017-04-29T12:45:14.000Z</time>
      </trkpt>
      <trkpt lat="46.16375" lon="6.24017">
        <ele>459</ele>
        <time>2017-04-29T12:45:15.000Z</time>
      </trkpt>
      <trkpt lat="46.16343" lon="6.2401">
        <ele>460</ele>
        <time>2017-04-29T12:45:18.000Z</time>
      </trkpt>
      <trkpt lat="46.16312" lon="6.23992">
        <ele>463</ele>
        <time>2017-04-29T12:45:21.000Z</time>
      </trkpt>
      <trkpt lat="46.16291" lon="6.23978">
        <ele>461</ele>
        <time>2017-04-29T12:45:23.000Z</time>
      </trkpt>
      <trkpt lat="46.1627" lon="6.23965">
        <ele>460</ele>
        <time>2017-04-29T12:45:25.000Z</time>
      </trkpt>
      <trkpt lat="46.1626" lon="6.23958">
        <ele>460</ele>
        <time>2017-04-29T12:45:26.000Z</time>
      </trkpt>
      <trkpt lat="46.1625" lon="6.23949">
        <ele>461</ele>
        <time>2017-04-29T12:45:27.000Z</time>
      </trkpt>
      <trkpt lat="46.16232" lon="6.23932">
        <ele>455</ele>
        <time>2017-04-29T12:45:29.000Z</time>
      </trkpt>
      <trkpt lat="46.16223" lon="6.23927">
        <ele>454</ele>
        <time>2017-04-29T12:45:30.000Z</time>
      </trkpt>
      <trkpt lat="46.16213" lon="6.23928">
        <ele>452</ele>
        <time>2017-04-29T12:45:31.000Z</time>
      </trkpt>
      <trkpt lat="46.16195" lon="6.2394">
        <ele>450</ele>
        <time>2017-04-29T12:45:33.000Z</time>
      </trkpt>
      <trkpt lat="46.16183" lon="6.23965">
        <ele>448</ele>
        <time>2017-04-29T12:45:35.000Z</time>
      </trkpt>
      <trkpt lat="46.1618" lon="6.23994">
        <ele>445</ele>
        <time>2017-04-29T12:45:37.000Z</time>
      </trkpt>
      <trkpt lat="46.1618" lon="6.24052">
        <ele>445</ele>
        <time>2017-04-29T12:45:41.000Z</time>
      </trkpt>
      <trkpt lat="46.16176" lon="6.24134">
        <ele>446</ele>
        <time>2017-04-29T12:45:48.000Z</time>
      </trkpt>
      <trkpt lat="46.16174" lon="6.24172">
        <ele>449</ele>
        <time>2017-04-29T12:45:52.000Z</time>
      </trkpt>
      <trkpt lat="46.16168" lon="6.2419">
        <ele>448</ele>
        <time>2017-04-29T12:45:54.000Z</time>
      </trkpt>
      <trkpt lat="46.16159" lon="6.24205">
        <ele>453</ele>
        <time>2017-04-29T12:45:56.000Z</time>
      </trkpt>
      <trkpt lat="46.16131" lon="6.2423">
        <ele>454</ele>
        <time>2017-04-29T12:46:01.000Z</time>
      </trkpt>
      <trkpt lat="46.1608" lon="6.24268">
        <ele>455</ele>
        <time>2017-04-29T12:46:10.000Z</time>
      </trkpt>
      <trkpt lat="46.16065" lon="6.24279">
        <ele>454</ele>
        <time>2017-04-29T12:46:13.000Z</time>
      </trkpt>
      <trkpt lat="46.16013" lon="6.24316">
        <ele>453</ele>
        <time>2017-04-29T12:46:26.000Z</time>
      </trkpt>
      <trkpt lat="46.15979" lon="6.24343">
        <ele>452</ele>
        <time>2017-04-29T12:46:31.000Z</time>
      </trkpt>
      <trkpt lat="46.1593" lon="6.24388">
        <ele>452</ele>
        <time>2017-04-29T12:46:38.000Z</time>
      </trkpt>
      <trkpt lat="46.15879" lon="6.24435">
        <ele>453</ele>
        <time>2017-04-29T12:46:45.000Z</time>
      </trkpt>
      <trkpt lat="46.15872" lon="6.24442">
        <ele>453</ele>
        <time>2017-04-29T12:46:46.000Z</time>
      </trkpt>
      <trkpt lat="46.15825" lon="6.24485">
        <ele>456</ele>
        <time>2017-04-29T12:46:52.000Z</time>
      </trkpt>
      <trkpt lat="46.1578" lon="6.24534">
        <ele>453</ele>
        <time>2017-04-29T12:46:58.000Z</time>
      </trkpt>
      <trkpt lat="46.15741" lon="6.24595">
        <ele>453</ele>
        <time>2017-04-29T12:47:04.000Z</time>
      </trkpt>
      <trkpt lat="46.15696" lon="6.24655">
        <ele>452</ele>
        <time>2017-04-29T12:47:10.000Z</time>
      </trkpt>
      <trkpt lat="46.15656" lon="6.24682">
        <ele>453</ele>
        <time>2017-04-29T12:47:14.000Z</time>
      </trkpt>
      <trkpt lat="46.15626" lon="6.24697">
        <ele>453</ele>
        <time>2017-04-29T12:47:17.000Z</time>
      </trkpt>
      <trkpt lat="46.15596" lon="6.24714">
        <ele>453</ele>
        <time>2017-04-29T12:47:20.000Z</time>
      </trkpt>
      <trkpt lat="46.15545" lon="6.24766">
        <ele>452</ele>
        <time>2017-04-29T12:47:26.000Z</time>
      </trkpt>
      <trkpt lat="46.15522" lon="6.24796">
        <ele>452</ele>
        <time>2017-04-29T12:47:29.000Z</time>
      </trkpt>
      <trkpt lat="46.15475" lon="6.24857">
        <ele>449</ele>
        <time>2017-04-29T12:47:35.000Z</time>
      </trkpt>
      <trkpt lat="46.15427" lon="6.24918">
        <ele>445</ele>
        <time>2017-04-29T12:47:41.000Z</time>
      </trkpt>
      <trkpt lat="46.15381" lon="6.24977">
        <ele>446</ele>
        <time>2017-04-29T12:47:47.000Z</time>
      </trkpt>
      <trkpt lat="46.15335" lon="6.25035">
        <ele>444</ele>
        <time>2017-04-29T12:47:53.000Z</time>
      </trkpt>
      <trkpt lat="46.1532" lon="6.25056">
        <ele>449</ele>
        <time>2017-04-29T12:47:55.000Z</time>
      </trkpt>
      <trkpt lat="46.15277" lon="6.25123">
        <ele>446</ele>
        <time>2017-04-29T12:48:01.000Z</time>
      </trkpt>
      <trkpt lat="46.15249" lon="6.25173">
        <ele>445</ele>
        <time>2017-04-29T12:48:06.000Z</time>
      </trkpt>
      <trkpt lat="46.15223" lon="6.25222">
        <ele>443</ele>
        <time>2017-04-29T12:48:09.000Z</time>
      </trkpt>
      <trkpt lat="46.15204" lon="6.2526">
        <ele>441</ele>
        <time>2017-04-29T12:48:12.000Z</time>
      </trkpt>
      <trkpt lat="46.15191" lon="6.25284">
        <ele>441</ele>
        <time>2017-04-29T12:48:14.000Z</time>
      </trkpt>
      <trkpt lat="46.15171" lon="6.25321">
        <ele>442</ele>
        <time>2017-04-29T12:48:17.000Z</time>
      </trkpt>
      <trkpt lat="46.15139" lon="6.25382">
        <ele>441</ele>
        <time>2017-04-29T12:48:22.000Z</time>
      </trkpt>
      <trkpt lat="46.15106" lon="6.25441">
        <ele>438</ele>
        <time>2017-04-29T12:48:27.000Z</time>
      </trkpt>
      <trkpt lat="46.15074" lon="6.25499">
        <ele>438</ele>
        <time>2017-04-29T12:48:32.000Z</time>
      </trkpt>
      <trkpt lat="46.15036" lon="6.25567">
        <ele>437</ele>
        <time>2017-04-29T12:48:38.000Z</time>
      </trkpt>
      <trkpt lat="46.15022" lon="6.25589">
        <ele>436</ele>
        <time>2017-04-29T12:48:40.000Z</time>
      </trkpt>
      <trkpt lat="46.1498" lon="6.25654">
        <ele>439</ele>
        <time>2017-04-29T12:48:46.000Z</time>
      </trkpt>
      <trkpt lat="46.14965" lon="6.25675">
        <ele>435</ele>
        <time>2017-04-29T12:48:48.000Z</time>
      </trkpt>
      <trkpt lat="46.14929" lon="6.25731">
        <ele>433</ele>
        <time>2017-04-29T12:48:53.000Z</time>
      </trkpt>
      <trkpt lat="46.14909" lon="6.25768">
        <ele>432</ele>
        <time>2017-04-29T12:48:56.000Z</time>
      </trkpt>
      <trkpt lat="46.14889" lon="6.25821">
        <ele>434</ele>
        <time>2017-04-29T12:49:00.000Z</time>
      </trkpt>
      <trkpt lat="46.14867" lon="6.25899">
        <ele>437</ele>
        <time>2017-04-29T12:49:06.000Z</time>
      </trkpt>
      <trkpt lat="46.14858" lon="6.25935">
        <ele>439</ele>
        <time>2017-04-29T12:49:09.000Z</time>
      </trkpt>
      <trkpt lat="46.14842" lon="6.25992">
        <ele>439</ele>
        <time>2017-04-29T12:49:14.000Z</time>
      </trkpt>
      <trkpt lat="46.14829" lon="6.26037">
        <ele>441</ele>
        <time>2017-04-29T12:49:18.000Z</time>
      </trkpt>
      <trkpt lat="46.14817" lon="6.26082">
        <ele>441</ele>
        <time>2017-04-29T12:49:22.000Z</time>
      </trkpt>
      <trkpt lat="46.14788" lon="6.26161">
        <ele>440</ele>
        <time>2017-04-29T12:49:29.000Z</time>
      </trkpt>
      <trkpt lat="46.14781" lon="6.26171">
        <ele>435</ele>
        <time>2017-04-29T12:49:30.000Z</time>
      </trkpt>
      <trkpt lat="46.14757" lon="6.26195">
        <ele>434</ele>
        <time>2017-04-29T12:49:33.000Z</time>
      </trkpt>
      <trkpt lat="46.14737" lon="6.26207">
        <ele>438</ele>
        <time>2017-04-29T12:49:35.000Z</time>
      </trkpt>
      <trkpt lat="46.14678" lon="6.26243">
        <ele>435</ele>
        <time>2017-04-29T12:49:41.000Z</time>
      </trkpt>
      <trkpt lat="46.1465" lon="6.26269">
        <ele>433</ele>
        <time>2017-04-29T12:49:44.000Z</time>
      </trkpt>
      <trkpt lat="46.14623" lon="6.26299">
        <ele>433</ele>
        <time>2017-04-29T12:49:47.000Z</time>
      </trkpt>
      <trkpt lat="46.14599" lon="6.26333">
        <ele>432</ele>
        <time>2017-04-29T12:49:50.000Z</time>
      </trkpt>
      <trkpt lat="46.14576" lon="6.26369">
        <ele>430</ele>
        <time>2017-04-29T12:49:53.000Z</time>
      </trkpt>
      <trkpt lat="46.14564" lon="6.26396">
        <ele>428</ele>
        <time>2017-04-29T12:49:55.000Z</time>
      </trkpt>
      <trkpt lat="46.14559" lon="6.26411">
        <ele>428</ele>
        <time>2017-04-29T12:49:56.000Z</time>
      </trkpt>
      <trkpt lat="46.14552" lon="6.26441">
        <ele>424</ele>
        <time>2017-04-29T12:49:58.000Z</time>
      </trkpt>
      <trkpt lat="46.14551" lon="6.26457">
        <ele>424</ele>
        <time>2017-04-29T12:49:59.000Z</time>
      </trkpt>
      <trkpt lat="46.1455" lon="6.26504">
        <ele>423</ele>
        <time>2017-04-29T12:50:02.000Z</time>
      </trkpt>
      <trkpt lat="46.1455" lon="6.2655">
        <ele>423</ele>
        <time>2017-04-29T12:50:05.000Z</time>
      </trkpt>
      <trkpt lat="46.14549" lon="6.26638">
        <ele>423</ele>
        <time>2017-04-29T12:50:11.000Z</time>
      </trkpt>
      <trkpt lat="46.14549" lon="6.26723">
        <ele>426</ele>
        <time>2017-04-29T12:50:17.000Z</time>
      </trkpt>
      <trkpt lat="46.14541" lon="6.26822">
        <ele>427</ele>
        <time>2017-04-29T12:50:25.000Z</time>
      </trkpt>
      <trkpt lat="46.14529" lon="6.2685">
        <ele>429</ele>
        <time>2017-04-29T12:50:28.000Z</time>
      </trkpt>
      <trkpt lat="46.14524" lon="6.26858">
        <ele>429</ele>
        <time>2017-04-29T12:50:29.000Z</time>
      </trkpt>
      <trkpt lat="46.14484" lon="6.26898">
        <ele>432</ele>
        <time>2017-04-29T12:50:36.000Z</time>
      </trkpt>
      <trkpt lat="46.14473" lon="6.2691">
        <ele>432</ele>
        <time>2017-04-29T12:50:38.000Z</time>
      </trkpt>
      <trkpt lat="46.14455" lon="6.26925">
        <ele>438</ele>
        <time>2017-04-29T12:50:41.000Z</time>
      </trkpt>
      <trkpt lat="46.14424" lon="6.26946">
        <ele>438</ele>
        <time>2017-04-29T12:50:46.000Z</time>
      </trkpt>
      <trkpt lat="46.14404" lon="6.2695">
        <ele>440</ele>
        <time>2017-04-29T12:50:49.000Z</time>
      </trkpt>
      <trkpt lat="46.14384" lon="6.26949">
        <ele>441</ele>
        <time>2017-04-29T12:50:52.000Z</time>
      </trkpt>
      <trkpt lat="46.14365" lon="6.26944">
        <ele>441</ele>
        <time>2017-04-29T12:50:55.000Z</time>
      </trkpt>
      <trkpt lat="46.14346" lon="6.2694">
        <ele>441</ele>
        <time>2017-04-29T12:50:58.000Z</time>
      </trkpt>
      <trkpt lat="46.14333" lon="6.26939">
        <ele>441</ele>
        <time>2017-04-29T12:51:00.000Z</time>
      </trkpt>
      <trkpt lat="46.14327" lon="6.26939">
        <ele>443</ele>
        <time>2017-04-29T12:51:01.000Z</time>
      </trkpt>
      <trkpt lat="46.14307" lon="6.26943">
        <ele>444</ele>
        <time>2017-04-29T12:51:04.000Z</time>
      </trkpt>
      <trkpt lat="46.1429" lon="6.26951">
        <ele>445</ele>
        <time>2017-04-29T12:51:07.000Z</time>
      </trkpt>
      <trkpt lat="46.14266" lon="6.2696">
        <ele>446</ele>
        <time>2017-04-29T12:51:11.000Z</time>
      </trkpt>
      <trkpt lat="46.14248" lon="6.26967">
        <ele>450</ele>
        <time>2017-04-29T12:51:14.000Z</time>
      </trkpt>
      <trkpt lat="46.14224" lon="6.26975">
        <ele>451</ele>
        <time>2017-04-29T12:51:18.000Z</time>
      </trkpt>
      <trkpt lat="46.14218" lon="6.26976">
        <ele>451</ele>
        <time>2017-04-29T12:51:19.000Z</time>
      </trkpt>
      <trkpt lat="46.14206" lon="6.26976">
        <ele>452</ele>
        <time>2017-04-29T12:51:21.000Z</time>
      </trkpt>
      <trkpt lat="46.14194" lon="6.26974">
        <ele>452</ele>
        <time>2017-04-29T12:51:24.000Z</time>
      </trkpt>
      <trkpt lat="46.14177" lon="6.26968">
        <ele>453</ele>
        <time>2017-04-29T12:51:26.000Z</time>
      </trkpt>
      <trkpt lat="46.1416" lon="6.26958">
        <ele>457</ele>
        <time>2017-04-29T12:51:29.000Z</time>
      </trkpt>
      <trkpt lat="46.14133" lon="6.26942">
        <ele>457</ele>
        <time>2017-04-29T12:51:34.000Z</time>
      </trkpt>
      <trkpt lat="46.14118" lon="6.26933">
        <ele>457</ele>
        <time>2017-04-29T12:51:38.000Z</time>
      </trkpt>
      <trkpt lat="46.1409" lon="6.26916">
        <ele>456</ele>
        <time>2017-04-29T12:51:42.000Z</time>
      </trkpt>
      <trkpt lat="46.14068" lon="6.26902">
        <ele>457</ele>
        <time>2017-04-29T12:51:46.000Z</time>
      </trkpt>
      <trkpt lat="46.14051" lon="6.26892">
        <ele>457</ele>
        <time>2017-04-29T12:51:49.000Z</time>
      </trkpt>
      <trkpt lat="46.1404" lon="6.26885">
        <ele>457</ele>
        <time>2017-04-29T12:51:52.000Z</time>
      </trkpt>
      <trkpt lat="46.14012" lon="6.26869">
        <ele>458</ele>
        <time>2017-04-29T12:51:56.000Z</time>
      </trkpt>
      <trkpt lat="46.13991" lon="6.26855">
        <ele>462</ele>
        <time>2017-04-29T12:52:00.000Z</time>
      </trkpt>
      <trkpt lat="46.13971" lon="6.26843">
        <ele>463</ele>
        <time>2017-04-29T12:52:04.000Z</time>
      </trkpt>
      <trkpt lat="46.13954" lon="6.26838">
        <ele>464</ele>
        <time>2017-04-29T12:52:07.000Z</time>
      </trkpt>
      <trkpt lat="46.13942" lon="6.26838">
        <ele>465</ele>
        <time>2017-04-29T12:52:09.000Z</time>
      </trkpt>
      <trkpt lat="46.13932" lon="6.26843">
        <ele>466</ele>
        <time>2017-04-29T12:52:11.000Z</time>
      </trkpt>
      <trkpt lat="46.13922" lon="6.26852">
        <ele>466</ele>
        <time>2017-04-29T12:52:13.000Z</time>
      </trkpt>
      <trkpt lat="46.13918" lon="6.26857">
        <ele>466</ele>
        <time>2017-04-29T12:52:14.000Z</time>
      </trkpt>
      <trkpt lat="46.13915" lon="6.26863">
        <ele>470</ele>
        <time>2017-04-29T12:52:15.000Z</time>
      </trkpt>
      <trkpt lat="46.13911" lon="6.26878">
        <ele>471</ele>
        <time>2017-04-29T12:52:17.000Z</time>
      </trkpt>
      <trkpt lat="46.1391" lon="6.26886">
        <ele>471</ele>
        <time>2017-04-29T12:52:18.000Z</time>
      </trkpt>
      <trkpt lat="46.13909" lon="6.26903">
        <ele>471</ele>
        <time>2017-04-29T12:52:20.000Z</time>
      </trkpt>
      <trkpt lat="46.1391" lon="6.26911">
        <ele>470</ele>
        <time>2017-04-29T12:52:21.000Z</time>
      </trkpt>
      <trkpt lat="46.13912" lon="6.26919">
        <ele>471</ele>
        <time>2017-04-29T12:52:22.000Z</time>
      </trkpt>
      <trkpt lat="46.13915" lon="6.26935">
        <ele>472</ele>
        <time>2017-04-29T12:52:24.000Z</time>
      </trkpt>
      <trkpt lat="46.13918" lon="6.26951">
        <ele>471</ele>
        <time>2017-04-29T12:52:26.000Z</time>
      </trkpt>
      <trkpt lat="46.13918" lon="6.26959">
        <ele>471</ele>
        <time>2017-04-29T12:52:27.000Z</time>
      </trkpt>
      <trkpt lat="46.13915" lon="6.26975">
        <ele>473</ele>
        <time>2017-04-29T12:52:29.000Z</time>
      </trkpt>
      <trkpt lat="46.13907" lon="6.27003">
        <ele>474</ele>
        <time>2017-04-29T12:52:33.000Z</time>
      </trkpt>
      <trkpt lat="46.13904" lon="6.27008">
        <ele>474</ele>
        <time>2017-04-29T12:52:34.000Z</time>
      </trkpt>
      <trkpt lat="46.13893" lon="6.27015">
        <ele>474</ele>
        <time>2017-04-29T12:52:37.000Z</time>
      </trkpt>
      <trkpt lat="46.13884" lon="6.2702">
        <ele>474</ele>
        <time>2017-04-29T12:52:39.000Z</time>
      </trkpt>
      <trkpt lat="46.13878" lon="6.27032">
        <ele>474</ele>
        <time>2017-04-29T12:52:41.000Z</time>
      </trkpt>
      <trkpt lat="46.13877" lon="6.2704">
        <ele>474</ele>
        <time>2017-04-29T12:52:42.000Z</time>
      </trkpt>
      <trkpt lat="46.13878" lon="6.27047">
        <ele>474</ele>
        <time>2017-04-29T12:52:43.000Z</time>
      </trkpt>
      <trkpt lat="46.1389" lon="6.27063">
        <ele>474</ele>
        <time>2017-04-29T12:52:46.000Z</time>
      </trkpt>
      <trkpt lat="46.13903" lon="6.27071">
        <ele>474</ele>
        <time>2017-04-29T12:52:48.000Z</time>
      </trkpt>
      <trkpt lat="46.13913" lon="6.27083">
        <ele>474</ele>
        <time>2017-04-29T12:52:50.000Z</time>
      </trkpt>
      <trkpt lat="46.13919" lon="6.2709">
        <ele>474</ele>
        <time>2017-04-29T12:52:51.000Z</time>
      </trkpt>
      <trkpt lat="46.13934" lon="6.27112">
        <ele>474</ele>
        <time>2017-04-29T12:52:55.000Z</time>
      </trkpt>
      <trkpt lat="46.13945" lon="6.2714">
        <ele>474</ele>
        <time>2017-04-29T12:52:57.000Z</time>
      </trkpt>
      <trkpt lat="46.13949" lon="6.27161">
        <ele>474</ele>
        <time>2017-04-29T12:52:59.000Z</time>
      </trkpt>
      <trkpt lat="46.13956" lon="6.27248">
        <ele>475</ele>
        <time>2017-04-29T12:53:07.000Z</time>
      </trkpt>
      <trkpt lat="46.13964" lon="6.27329">
        <ele>474</ele>
        <time>2017-04-29T12:53:14.000Z</time>
      </trkpt>
      <trkpt lat="46.13975" lon="6.27413">
        <ele>473</ele>
        <time>2017-04-29T12:53:21.000Z</time>
      </trkpt>
      <trkpt lat="46.13993" lon="6.27497">
        <ele>474</ele>
        <time>2017-04-29T12:53:28.000Z</time>
      </trkpt>
      <trkpt lat="46.1401" lon="6.27571">
        <ele>474</ele>
        <time>2017-04-29T12:53:34.000Z</time>
      </trkpt>
      <trkpt lat="46.14027" lon="6.27645">
        <ele>473</ele>
        <time>2017-04-29T12:53:40.000Z</time>
      </trkpt>
      <trkpt lat="46.14039" lon="6.27696">
        <ele>474</ele>
        <time>2017-04-29T12:53:44.000Z</time>
      </trkpt>
      <trkpt lat="46.14057" lon="6.27775">
        <ele>473</ele>
        <time>2017-04-29T12:53:50.000Z</time>
      </trkpt>
      <trkpt lat="46.14075" lon="6.27853">
        <ele>472</ele>
        <time>2017-04-29T12:53:56.000Z</time>
      </trkpt>
      <trkpt lat="46.14092" lon="6.27931">
        <ele>472</ele>
        <time>2017-04-29T12:54:02.000Z</time>
      </trkpt>
      <trkpt lat="46.14096" lon="6.28011">
        <ele>472</ele>
        <time>2017-04-29T12:54:09.000Z</time>
      </trkpt>
      <trkpt lat="46.14087" lon="6.28061">
        <ele>473</ele>
        <time>2017-04-29T12:54:12.000Z</time>
      </trkpt>
      <trkpt lat="46.14051" lon="6.28133">
        <ele>472</ele>
        <time>2017-04-29T12:54:19.000Z</time>
      </trkpt>
      <trkpt lat="46.14045" lon="6.28142">
        <ele>472</ele>
        <time>2017-04-29T12:54:20.000Z</time>
      </trkpt>
      <trkpt lat="46.14016" lon="6.28187">
        <ele>472</ele>
        <time>2017-04-29T12:54:25.000Z</time>
      </trkpt>
      <trkpt lat="46.13983" lon="6.28257">
        <ele>471</ele>
        <time>2017-04-29T12:54:32.000Z</time>
      </trkpt>
      <trkpt lat="46.13956" lon="6.28324">
        <ele>469</ele>
        <time>2017-04-29T12:54:38.000Z</time>
      </trkpt>
      <trkpt lat="46.13927" lon="6.28399">
        <ele>466</ele>
        <time>2017-04-29T12:54:44.000Z</time>
      </trkpt>
      <trkpt lat="46.13909" lon="6.28452">
        <ele>465</ele>
        <time>2017-04-29T12:54:48.000Z</time>
      </trkpt>
      <trkpt lat="46.13891" lon="6.28508">
        <ele>465</ele>
        <time>2017-04-29T12:54:52.000Z</time>
      </trkpt>
      <trkpt lat="46.13878" lon="6.28552">
        <ele>466</ele>
        <time>2017-04-29T12:54:55.000Z</time>
      </trkpt>
      <trkpt lat="46.13854" lon="6.28634">
        <ele>468</ele>
        <time>2017-04-29T12:55:01.000Z</time>
      </trkpt>
      <trkpt lat="46.13833" lon="6.28694">
        <ele>468</ele>
        <time>2017-04-29T12:55:06.000Z</time>
      </trkpt>
      <trkpt lat="46.13796" lon="6.28766">
        <ele>467</ele>
        <time>2017-04-29T12:55:13.000Z</time>
      </trkpt>
      <trkpt lat="46.1379" lon="6.28776">
        <ele>467</ele>
        <time>2017-04-29T12:55:14.000Z</time>
      </trkpt>
      <trkpt lat="46.13754" lon="6.28841">
        <ele>466</ele>
        <time>2017-04-29T12:55:20.000Z</time>
      </trkpt>
      <trkpt lat="46.13736" lon="6.28873">
        <ele>465</ele>
        <time>2017-04-29T12:55:23.000Z</time>
      </trkpt>
      <trkpt lat="46.13699" lon="6.28939">
        <ele>466</ele>
        <time>2017-04-29T12:55:29.000Z</time>
      </trkpt>
      <trkpt lat="46.13661" lon="6.29002">
        <ele>468</ele>
        <time>2017-04-29T12:55:35.000Z</time>
      </trkpt>
      <trkpt lat="46.13654" lon="6.29012">
        <ele>469</ele>
        <time>2017-04-29T12:55:37.000Z</time>
      </trkpt>
      <trkpt lat="46.13622" lon="6.29057">
        <ele>470</ele>
        <time>2017-04-29T12:55:41.000Z</time>
      </trkpt>
      <trkpt lat="46.13603" lon="6.29081">
        <ele>470</ele>
        <time>2017-04-29T12:55:45.000Z</time>
      </trkpt>
      <trkpt lat="46.13572" lon="6.29119">
        <ele>471</ele>
        <time>2017-04-29T12:55:49.000Z</time>
      </trkpt>
      <trkpt lat="46.13523" lon="6.29172">
        <ele>470</ele>
        <time>2017-04-29T12:55:56.000Z</time>
      </trkpt>
      <trkpt lat="46.13483" lon="6.29232">
        <ele>468</ele>
        <time>2017-04-29T12:56:02.000Z</time>
      </trkpt>
      <trkpt lat="46.13477" lon="6.29244">
        <ele>468</ele>
        <time>2017-04-29T12:56:03.000Z</time>
      </trkpt>
      <trkpt lat="46.13441" lon="6.29303">
        <ele>466</ele>
        <time>2017-04-29T12:56:08.000Z</time>
      </trkpt>
      <trkpt lat="46.13397" lon="6.29366">
        <ele>465</ele>
        <time>2017-04-29T12:56:14.000Z</time>
      </trkpt>
      <trkpt lat="46.13379" lon="6.294">
        <ele>465</ele>
        <time>2017-04-29T12:56:17.000Z</time>
      </trkpt>
      <trkpt lat="46.1336" lon="6.2945">
        <ele>464</ele>
        <time>2017-04-29T12:56:21.000Z</time>
      </trkpt>
      <trkpt lat="46.13344" lon="6.29489">
        <ele>464</ele>
        <time>2017-04-29T12:56:24.000Z</time>
      </trkpt>
      <trkpt lat="46.13325" lon="6.29524">
        <ele>462</ele>
        <time>2017-04-29T12:56:27.000Z</time>
      </trkpt>
      <trkpt lat="46.13304" lon="6.29558">
        <ele>462</ele>
        <time>2017-04-29T12:56:30.000Z</time>
      </trkpt>
      <trkpt lat="46.13281" lon="6.29591">
        <ele>460</ele>
        <time>2017-04-29T12:56:33.000Z</time>
      </trkpt>
      <trkpt lat="46.13247" lon="6.29628">
        <ele>459</ele>
        <time>2017-04-29T12:56:37.000Z</time>
      </trkpt>
      <trkpt lat="46.13215" lon="6.29668">
        <ele>457</ele>
        <time>2017-04-29T12:56:41.000Z</time>
      </trkpt>
      <trkpt lat="46.13179" lon="6.29738">
        <ele>457</ele>
        <time>2017-04-29T12:56:47.000Z</time>
      </trkpt>
      <trkpt lat="46.13165" lon="6.29776">
        <ele>458</ele>
        <time>2017-04-29T12:56:50.000Z</time>
      </trkpt>
      <trkpt lat="46.13136" lon="6.29847">
        <ele>456</ele>
        <time>2017-04-29T12:56:56.000Z</time>
      </trkpt>
      <trkpt lat="46.13122" lon="6.29883">
        <ele>456</ele>
        <time>2017-04-29T12:56:59.000Z</time>
      </trkpt>
      <trkpt lat="46.13094" lon="6.29939">
        <ele>456</ele>
        <time>2017-04-29T12:57:05.000Z</time>
      </trkpt>
      <trkpt lat="46.13044" lon="6.29999">
        <ele>458</ele>
        <time>2017-04-29T12:57:11.000Z</time>
      </trkpt>
      <trkpt lat="46.12993" lon="6.30047">
        <ele>459</ele>
        <time>2017-04-29T12:57:18.000Z</time>
      </trkpt>
      <trkpt lat="46.12944" lon="6.30093">
        <ele>459</ele>
        <time>2017-04-29T12:57:24.000Z</time>
      </trkpt>
      <trkpt lat="46.12936" lon="6.30101">
        <ele>459</ele>
        <time>2017-04-29T12:57:26.000Z</time>
      </trkpt>
      <trkpt lat="46.12886" lon="6.30152">
        <ele>461</ele>
        <time>2017-04-29T12:57:33.000Z</time>
      </trkpt>
      <trkpt lat="46.12857" lon="6.30188">
        <ele>461</ele>
        <time>2017-04-29T12:57:37.000Z</time>
      </trkpt>
      <trkpt lat="46.12848" lon="6.30206">
        <ele>460</ele>
        <time>2017-04-29T12:57:40.000Z</time>
      </trkpt>
      <trkpt lat="46.12823" lon="6.30268">
        <ele>458</ele>
        <time>2017-04-29T12:57:45.000Z</time>
      </trkpt>
      <trkpt lat="46.12791" lon="6.30343">
        <ele>455</ele>
        <time>2017-04-29T12:57:52.000Z</time>
      </trkpt>
      <trkpt lat="46.12767" lon="6.304">
        <ele>454</ele>
        <time>2017-04-29T12:57:57.000Z</time>
      </trkpt>
      <trkpt lat="46.12752" lon="6.30436">
        <ele>454</ele>
        <time>2017-04-29T12:58:00.000Z</time>
      </trkpt>
      <trkpt lat="46.12719" lon="6.30506">
        <ele>458</ele>
        <time>2017-04-29T12:58:06.000Z</time>
      </trkpt>
      <trkpt lat="46.12701" lon="6.30541">
        <ele>459</ele>
        <time>2017-04-29T12:58:09.000Z</time>
      </trkpt>
      <trkpt lat="46.12667" lon="6.30613">
        <ele>459</ele>
        <time>2017-04-29T12:58:15.000Z</time>
      </trkpt>
      <trkpt lat="46.12644" lon="6.3066">
        <ele>458</ele>
        <time>2017-04-29T12:58:20.000Z</time>
      </trkpt>
      <trkpt lat="46.1261" lon="6.30728">
        <ele>459</ele>
        <time>2017-04-29T12:58:25.000Z</time>
      </trkpt>
      <trkpt lat="46.12576" lon="6.30794">
        <ele>457</ele>
        <time>2017-04-29T12:58:31.000Z</time>
      </trkpt>
      <trkpt lat="46.12538" lon="6.30853">
        <ele>452</ele>
        <time>2017-04-29T12:58:38.000Z</time>
      </trkpt>
      <trkpt lat="46.12492" lon="6.30913">
        <ele>454</ele>
        <time>2017-04-29T12:58:44.000Z</time>
      </trkpt>
      <trkpt lat="46.12462" lon="6.30955">
        <ele>458</ele>
        <time>2017-04-29T12:58:49.000Z</time>
      </trkpt>
      <trkpt lat="46.12444" lon="6.30978">
        <ele>458</ele>
        <time>2017-04-29T12:58:53.000Z</time>
      </trkpt>
      <trkpt lat="46.1242" lon="6.3101">
        <ele>459</ele>
        <time>2017-04-29T12:58:57.000Z</time>
      </trkpt>
      <trkpt lat="46.12397" lon="6.3104">
        <ele>460</ele>
        <time>2017-04-29T12:59:00.000Z</time>
      </trkpt>
      <trkpt lat="46.12375" lon="6.31069">
        <ele>460</ele>
        <time>2017-04-29T12:59:04.000Z</time>
      </trkpt>
      <trkpt lat="46.12364" lon="6.31085">
        <ele>461</ele>
        <time>2017-04-29T12:59:07.000Z</time>
      </trkpt>
      <trkpt lat="46.12332" lon="6.31129">
        <ele>462</ele>
        <time>2017-04-29T12:59:12.000Z</time>
      </trkpt>
      <trkpt lat="46.12311" lon="6.31153">
        <ele>462</ele>
        <time>2017-04-29T12:59:16.000Z</time>
      </trkpt>
      <trkpt lat="46.1228" lon="6.3119">
        <ele>462</ele>
        <time>2017-04-29T12:59:22.000Z</time>
      </trkpt>
      <trkpt lat="46.12234" lon="6.31246">
        <ele>461</ele>
        <time>2017-04-29T12:59:30.000Z</time>
      </trkpt>
      <trkpt lat="46.12227" lon="6.31253">
        <ele>461</ele>
        <time>2017-04-29T12:59:31.000Z</time>
      </trkpt>
      <trkpt lat="46.12189" lon="6.313">
        <ele>460</ele>
        <time>2017-04-29T12:59:37.000Z</time>
      </trkpt>
      <trkpt lat="46.12147" lon="6.31351">
        <ele>460</ele>
        <time>2017-04-29T12:59:44.000Z</time>
      </trkpt>
      <trkpt lat="46.12142" lon="6.31359">
        <ele>460</ele>
        <time>2017-04-29T12:59:46.000Z</time>
      </trkpt>
      <trkpt lat="46.12139" lon="6.31368">
        <ele>460</ele>
        <time>2017-04-29T12:59:47.000Z</time>
      </trkpt>
      <trkpt lat="46.12137" lon="6.31378">
        <ele>460</ele>
        <time>2017-04-29T12:59:48.000Z</time>
      </trkpt>
      <trkpt lat="46.12135" lon="6.3141">
        <ele>460</ele>
        <time>2017-04-29T12:59:51.000Z</time>
      </trkpt>
      <trkpt lat="46.12123" lon="6.31424">
        <ele>460</ele>
        <time>2017-04-29T12:59:53.000Z</time>
      </trkpt>
      <trkpt lat="46.12069" lon="6.31447">
        <ele>459</ele>
        <time>2017-04-29T12:59:59.000Z</time>
      </trkpt>
      <trkpt lat="46.12061" lon="6.31452">
        <ele>459</ele>
        <time>2017-04-29T13:00:01.000Z</time>
      </trkpt>
      <trkpt lat="46.12028" lon="6.3149">
        <ele>459</ele>
        <time>2017-04-29T13:00:05.000Z</time>
      </trkpt>
      <trkpt lat="46.11979" lon="6.31543">
        <ele>459</ele>
        <time>2017-04-29T13:00:12.000Z</time>
      </trkpt>
      <trkpt lat="46.1193" lon="6.31598">
        <ele>458</ele>
        <time>2017-04-29T13:00:19.000Z</time>
      </trkpt>
      <trkpt lat="46.11916" lon="6.31616">
        <ele>457</ele>
        <time>2017-04-29T13:00:21.000Z</time>
      </trkpt>
      <trkpt lat="46.11869" lon="6.31665">
        <ele>455</ele>
        <time>2017-04-29T13:00:27.000Z</time>
      </trkpt>
      <trkpt lat="46.11851" lon="6.3168">
        <ele>453</ele>
        <time>2017-04-29T13:00:29.000Z</time>
      </trkpt>
      <trkpt lat="46.11824" lon="6.31704">
        <ele>451</ele>
        <time>2017-04-29T13:00:32.000Z</time>
      </trkpt>
      <trkpt lat="46.11779" lon="6.31746">
        <ele>451</ele>
        <time>2017-04-29T13:00:37.000Z</time>
      </trkpt>
      <trkpt lat="46.11732" lon="6.31784">
        <ele>450</ele>
        <time>2017-04-29T13:00:42.000Z</time>
      </trkpt>
      <trkpt lat="46.11704" lon="6.31805">
        <ele>450</ele>
        <time>2017-04-29T13:00:45.000Z</time>
      </trkpt>
      <trkpt lat="46.1165" lon="6.31847">
        <ele>451</ele>
        <time>2017-04-29T13:00:51.000Z</time>
      </trkpt>
      <trkpt lat="46.11601" lon="6.31895">
        <ele>452</ele>
        <time>2017-04-29T13:00:57.000Z</time>
      </trkpt>
      <trkpt lat="46.11559" lon="6.3195">
        <ele>452</ele>
        <time>2017-04-29T13:01:03.000Z</time>
      </trkpt>
      <trkpt lat="46.11525" lon="6.32">
        <ele>450</ele>
        <time>2017-04-29T13:01:08.000Z</time>
      </trkpt>
      <trkpt lat="46.11481" lon="6.32063">
        <ele>450</ele>
        <time>2017-04-29T13:01:14.000Z</time>
      </trkpt>
      <trkpt lat="46.11452" lon="6.32105">
        <ele>449</ele>
        <time>2017-04-29T13:01:18.000Z</time>
      </trkpt>
      <trkpt lat="46.11429" lon="6.32136">
        <ele>448</ele>
        <time>2017-04-29T13:01:21.000Z</time>
      </trkpt>
      <trkpt lat="46.11388" lon="6.32191">
        <ele>447</ele>
        <time>2017-04-29T13:01:27.000Z</time>
      </trkpt>
      <trkpt lat="46.11342" lon="6.32251">
        <ele>445</ele>
        <time>2017-04-29T13:01:34.000Z</time>
      </trkpt>
      <trkpt lat="46.11314" lon="6.32288">
        <ele>443</ele>
        <time>2017-04-29T13:01:38.000Z</time>
      </trkpt>
      <trkpt lat="46.1129" lon="6.32317">
        <ele>442</ele>
        <time>2017-04-29T13:01:41.000Z</time>
      </trkpt>
      <trkpt lat="46.11274" lon="6.32338">
        <ele>441</ele>
        <time>2017-04-29T13:01:43.000Z</time>
      </trkpt>
      <trkpt lat="46.11258" lon="6.3236">
        <ele>441</ele>
        <time>2017-04-29T13:01:45.000Z</time>
      </trkpt>
      <trkpt lat="46.11228" lon="6.324">
        <ele>441</ele>
        <time>2017-04-29T13:01:49.000Z</time>
      </trkpt>
      <trkpt lat="46.11184" lon="6.32456">
        <ele>441</ele>
        <time>2017-04-29T13:01:55.000Z</time>
      </trkpt>
      <trkpt lat="46.11138" lon="6.32517">
        <ele>440</ele>
        <time>2017-04-29T13:02:02.000Z</time>
      </trkpt>
      <trkpt lat="46.11091" lon="6.32575">
        <ele>441</ele>
        <time>2017-04-29T13:02:09.000Z</time>
      </trkpt>
      <trkpt lat="46.11046" lon="6.32636">
        <ele>441</ele>
        <time>2017-04-29T13:02:16.000Z</time>
      </trkpt>
      <trkpt lat="46.1104" lon="6.32644">
        <ele>441</ele>
        <time>2017-04-29T13:02:17.000Z</time>
      </trkpt>
      <trkpt lat="46.11" lon="6.32707">
        <ele>440</ele>
        <time>2017-04-29T13:02:24.000Z</time>
      </trkpt>
      <trkpt lat="46.10977" lon="6.32739">
        <ele>440</ele>
        <time>2017-04-29T13:02:28.000Z</time>
      </trkpt>
      <trkpt lat="46.10971" lon="6.32747">
        <ele>440</ele>
        <time>2017-04-29T13:02:29.000Z</time>
      </trkpt>
      <trkpt lat="46.10927" lon="6.32798">
        <ele>440</ele>
        <time>2017-04-29T13:02:36.000Z</time>
      </trkpt>
      <trkpt lat="46.10881" lon="6.32849">
        <ele>441</ele>
        <time>2017-04-29T13:02:43.000Z</time>
      </trkpt>
      <trkpt lat="46.10874" lon="6.32857">
        <ele>441</ele>
        <time>2017-04-29T13:02:44.000Z</time>
      </trkpt>
      <trkpt lat="46.10828" lon="6.32911">
        <ele>441</ele>
        <time>2017-04-29T13:02:51.000Z</time>
      </trkpt>
      <trkpt lat="46.10801" lon="6.32942">
        <ele>442</ele>
        <time>2017-04-29T13:02:55.000Z</time>
      </trkpt>
      <trkpt lat="46.10755" lon="6.32994">
        <ele>442</ele>
        <time>2017-04-29T13:03:02.000Z</time>
      </trkpt>
      <trkpt lat="46.10714" lon="6.33058">
        <ele>442</ele>
        <time>2017-04-29T13:03:09.000Z</time>
      </trkpt>
      <trkpt lat="46.10705" lon="6.33078">
        <ele>443</ele>
        <time>2017-04-29T13:03:11.000Z</time>
      </trkpt>
      <trkpt lat="46.10675" lon="6.33152">
        <ele>444</ele>
        <time>2017-04-29T13:03:18.000Z</time>
      </trkpt>
      <trkpt lat="46.10647" lon="6.33227">
        <ele>444</ele>
        <time>2017-04-29T13:03:25.000Z</time>
      </trkpt>
      <trkpt lat="46.10611" lon="6.33292">
        <ele>443</ele>
        <time>2017-04-29T13:03:32.000Z</time>
      </trkpt>
      <trkpt lat="46.10566" lon="6.33358">
        <ele>443</ele>
        <time>2017-04-29T13:03:39.000Z</time>
      </trkpt>
      <trkpt lat="46.1052" lon="6.33409">
        <ele>443</ele>
        <time>2017-04-29T13:03:45.000Z</time>
      </trkpt>
      <trkpt lat="46.10504" lon="6.33424">
        <ele>442</ele>
        <time>2017-04-29T13:03:47.000Z</time>
      </trkpt>
      <trkpt lat="46.1049" lon="6.33443">
        <ele>441</ele>
        <time>2017-04-29T13:03:49.000Z</time>
      </trkpt>
      <trkpt lat="46.1047" lon="6.3347">
        <ele>441</ele>
        <time>2017-04-29T13:03:52.000Z</time>
      </trkpt>
      <trkpt lat="46.10428" lon="6.33524">
        <ele>438</ele>
        <time>2017-04-29T13:03:58.000Z</time>
      </trkpt>
      <trkpt lat="46.10387" lon="6.33581">
        <ele>440</ele>
        <time>2017-04-29T13:04:04.000Z</time>
      </trkpt>
      <trkpt lat="46.10346" lon="6.33635">
        <ele>439</ele>
        <time>2017-04-29T13:04:10.000Z</time>
      </trkpt>
      <trkpt lat="46.103" lon="6.33687">
        <ele>438</ele>
        <time>2017-04-29T13:04:16.000Z</time>
      </trkpt>
      <trkpt lat="46.10248" lon="6.33727">
        <ele>439</ele>
        <time>2017-04-29T13:04:22.000Z</time>
      </trkpt>
      <trkpt lat="46.10193" lon="6.33759">
        <ele>438</ele>
        <time>2017-04-29T13:04:28.000Z</time>
      </trkpt>
      <trkpt lat="46.1014" lon="6.33789">
        <ele>439</ele>
        <time>2017-04-29T13:04:34.000Z</time>
      </trkpt>
      <trkpt lat="46.1009" lon="6.33818">
        <ele>439</ele>
        <time>2017-04-29T13:04:40.000Z</time>
      </trkpt>
      <trkpt lat="46.10032" lon="6.33853">
        <ele>439</ele>
        <time>2017-04-29T13:04:47.000Z</time>
      </trkpt>
      <trkpt lat="46.09977" lon="6.33894">
        <ele>441</ele>
        <time>2017-04-29T13:04:54.000Z</time>
      </trkpt>
      <trkpt lat="46.09924" lon="6.33934">
        <ele>440</ele>
        <time>2017-04-29T13:05:01.000Z</time>
      </trkpt>
      <trkpt lat="46.09871" lon="6.33974">
        <ele>439</ele>
        <time>2017-04-29T13:05:08.000Z</time>
      </trkpt>
      <trkpt lat="46.09814" lon="6.34015">
        <ele>438</ele>
        <time>2017-04-29T13:05:15.000Z</time>
      </trkpt>
      <trkpt lat="46.09798" lon="6.34028">
        <ele>438</ele>
        <time>2017-04-29T13:05:17.000Z</time>
      </trkpt>
      <trkpt lat="46.09748" lon="6.34065">
        <ele>439</ele>
        <time>2017-04-29T13:05:23.000Z</time>
      </trkpt>
      <trkpt lat="46.09708" lon="6.34095">
        <ele>438</ele>
        <time>2017-04-29T13:05:28.000Z</time>
      </trkpt>
      <trkpt lat="46.09658" lon="6.34133">
        <ele>439</ele>
        <time>2017-04-29T13:05:34.000Z</time>
      </trkpt>
      <trkpt lat="46.09605" lon="6.34175">
        <ele>438</ele>
        <time>2017-04-29T13:05:40.000Z</time>
      </trkpt>
      <trkpt lat="46.09597" lon="6.34182">
        <ele>438</ele>
        <time>2017-04-29T13:05:41.000Z</time>
      </trkpt>
      <trkpt lat="46.09547" lon="6.34229">
        <ele>439</ele>
        <time>2017-04-29T13:05:47.000Z</time>
      </trkpt>
      <trkpt lat="46.09532" lon="6.34246">
        <ele>439</ele>
        <time>2017-04-29T13:05:49.000Z</time>
      </trkpt>
      <trkpt lat="46.09485" lon="6.34306">
        <ele>439</ele>
        <time>2017-04-29T13:05:56.000Z</time>
      </trkpt>
      <trkpt lat="46.09444" lon="6.34371">
        <ele>439</ele>
        <time>2017-04-29T13:06:03.000Z</time>
      </trkpt>
      <trkpt lat="46.09404" lon="6.34438">
        <ele>439</ele>
        <time>2017-04-29T13:06:10.000Z</time>
      </trkpt>
      <trkpt lat="46.09363" lon="6.34506">
        <ele>439</ele>
        <time>2017-04-29T13:06:17.000Z</time>
      </trkpt>
      <trkpt lat="46.09357" lon="6.34516">
        <ele>439</ele>
        <time>2017-04-29T13:06:18.000Z</time>
      </trkpt>
      <trkpt lat="46.09321" lon="6.34575">
        <ele>441</ele>
        <time>2017-04-29T13:06:24.000Z</time>
      </trkpt>
      <trkpt lat="46.09285" lon="6.34635">
        <ele>442</ele>
        <time>2017-04-29T13:06:30.000Z</time>
      </trkpt>
      <trkpt lat="46.09248" lon="6.34696">
        <ele>442</ele>
        <time>2017-04-29T13:06:36.000Z</time>
      </trkpt>
      <trkpt lat="46.09212" lon="6.34756">
        <ele>441</ele>
        <time>2017-04-29T13:06:42.000Z</time>
      </trkpt>
      <trkpt lat="46.09175" lon="6.34817">
        <ele>441</ele>
        <time>2017-04-29T13:06:48.000Z</time>
      </trkpt>
      <trkpt lat="46.09138" lon="6.34878">
        <ele>441</ele>
        <time>2017-04-29T13:06:54.000Z</time>
      </trkpt>
      <trkpt lat="46.09103" lon="6.34938">
        <ele>441</ele>
        <time>2017-04-29T13:07:00.000Z</time>
      </trkpt>
      <trkpt lat="46.09062" lon="6.35005">
        <ele>441</ele>
        <time>2017-04-29T13:07:07.000Z</time>
      </trkpt>
      <trkpt lat="46.09023" lon="6.35071">
        <ele>441</ele>
        <time>2017-04-29T13:07:14.000Z</time>
      </trkpt>
      <trkpt lat="46.08985" lon="6.35136">
        <ele>442</ele>
        <time>2017-04-29T13:07:21.000Z</time>
      </trkpt>
      <trkpt lat="46.08945" lon="6.35201">
        <ele>442</ele>
        <time>2017-04-29T13:07:28.000Z</time>
      </trkpt>
      <trkpt lat="46.08904" lon="6.35268">
        <ele>441</ele>
        <time>2017-04-29T13:07:35.000Z</time>
      </trkpt>
      <trkpt lat="46.08863" lon="6.35336">
        <ele>441</ele>
        <time>2017-04-29T13:07:42.000Z</time>
      </trkpt>
      <trkpt lat="46.08846" lon="6.35364">
        <ele>441</ele>
        <time>2017-04-29T13:07:45.000Z</time>
      </trkpt>
      <trkpt lat="46.08807" lon="6.35429">
        <ele>442</ele>
        <time>2017-04-29T13:07:52.000Z</time>
      </trkpt>
      <trkpt lat="46.08787" lon="6.35464">
        <ele>442</ele>
        <time>2017-04-29T13:07:56.000Z</time>
      </trkpt>
      <trkpt lat="46.08762" lon="6.3554">
        <ele>442</ele>
        <time>2017-04-29T13:08:03.000Z</time>
      </trkpt>
      <trkpt lat="46.08736" lon="6.35616">
        <ele>442</ele>
        <time>2017-04-29T13:08:10.000Z</time>
      </trkpt>
      <trkpt lat="46.08703" lon="6.35693">
        <ele>441</ele>
        <time>2017-04-29T13:08:17.000Z</time>
      </trkpt>
      <trkpt lat="46.08674" lon="6.35758">
        <ele>441</ele>
        <time>2017-04-29T13:08:23.000Z</time>
      </trkpt>
      <trkpt lat="46.08644" lon="6.35824">
        <ele>442</ele>
        <time>2017-04-29T13:08:29.000Z</time>
      </trkpt>
      <trkpt lat="46.08609" lon="6.35898">
        <ele>441</ele>
        <time>2017-04-29T13:08:36.000Z</time>
      </trkpt>
      <trkpt lat="46.08573" lon="6.35971">
        <ele>440</ele>
        <time>2017-04-29T13:08:43.000Z</time>
      </trkpt>
      <trkpt lat="46.08538" lon="6.36044">
        <ele>441</ele>
        <time>2017-04-29T13:08:50.000Z</time>
      </trkpt>
      <trkpt lat="46.08506" lon="6.3611">
        <ele>442</ele>
        <time>2017-04-29T13:08:56.000Z</time>
      </trkpt>
      <trkpt lat="46.08474" lon="6.36176">
        <ele>442</ele>
        <time>2017-04-29T13:09:02.000Z</time>
      </trkpt>
      <trkpt lat="46.08442" lon="6.3624">
        <ele>442</ele>
        <time>2017-04-29T13:09:08.000Z</time>
      </trkpt>
      <trkpt lat="46.08427" lon="6.3627">
        <ele>443</ele>
        <time>2017-04-29T13:09:11.000Z</time>
      </trkpt>
      <trkpt lat="46.08394" lon="6.36338">
        <ele>444</ele>
        <time>2017-04-29T13:09:18.000Z</time>
      </trkpt>
      <trkpt lat="46.08359" lon="6.3641">
        <ele>444</ele>
        <time>2017-04-29T13:09:25.000Z</time>
      </trkpt>
      <trkpt lat="46.08327" lon="6.36474">
        <ele>443</ele>
        <time>2017-04-29T13:09:31.000Z</time>
      </trkpt>
      <trkpt lat="46.08296" lon="6.36538">
        <ele>442</ele>
        <time>2017-04-29T13:09:37.000Z</time>
      </trkpt>
      <trkpt lat="46.08276" lon="6.3658">
        <ele>442</ele>
        <time>2017-04-29T13:09:41.000Z</time>
      </trkpt>
      <trkpt lat="46.0824" lon="6.36653">
        <ele>440</ele>
        <time>2017-04-29T13:09:48.000Z</time>
      </trkpt>
      <trkpt lat="46.08204" lon="6.36726">
        <ele>440</ele>
        <time>2017-04-29T13:09:55.000Z</time>
      </trkpt>
      <trkpt lat="46.08168" lon="6.36798">
        <ele>440</ele>
        <time>2017-04-29T13:10:02.000Z</time>
      </trkpt>
      <trkpt lat="46.08146" lon="6.36845">
        <ele>440</ele>
        <time>2017-04-29T13:10:07.000Z</time>
      </trkpt>
      <trkpt lat="46.08114" lon="6.36912">
        <ele>441</ele>
        <time>2017-04-29T13:10:14.000Z</time>
      </trkpt>
      <trkpt lat="46.08083" lon="6.36982">
        <ele>443</ele>
        <time>2017-04-29T13:10:21.000Z</time>
      </trkpt>
      <trkpt lat="46.08065" lon="6.37062">
        <ele>445</ele>
        <time>2017-04-29T13:10:28.000Z</time>
      </trkpt>
      <trkpt lat="46.08056" lon="6.3714">
        <ele>445</ele>
        <time>2017-04-29T13:10:35.000Z</time>
      </trkpt>
      <trkpt lat="46.08048" lon="6.37201">
        <ele>446</ele>
        <time>2017-04-29T13:10:41.000Z</time>
      </trkpt>
      <trkpt lat="46.08044" lon="6.3723">
        <ele>447</ele>
        <time>2017-04-29T13:10:44.000Z</time>
      </trkpt>
      <trkpt lat="46.08038" lon="6.37269">
        <ele>449</ele>
        <time>2017-04-29T13:10:48.000Z</time>
      </trkpt>
      <trkpt lat="46.08033" lon="6.37309">
        <ele>449</ele>
        <time>2017-04-29T13:10:52.000Z</time>
      </trkpt>
      <trkpt lat="46.08028" lon="6.37347">
        <ele>450</ele>
        <time>2017-04-29T13:10:56.000Z</time>
      </trkpt>
      <trkpt lat="46.08027" lon="6.37356">
        <ele>450</ele>
        <time>2017-04-29T13:10:57.000Z</time>
      </trkpt>
      <trkpt lat="46.08024" lon="6.37385">
        <ele>450</ele>
        <time>2017-04-29T13:11:00.000Z</time>
      </trkpt>
      <trkpt lat="46.0802" lon="6.37424">
        <ele>451</ele>
        <time>2017-04-29T13:11:04.000Z</time>
      </trkpt>
      <trkpt lat="46.08016" lon="6.37463">
        <ele>451</ele>
        <time>2017-04-29T13:11:08.000Z</time>
      </trkpt>
      <trkpt lat="46.08011" lon="6.37511">
        <ele>451</ele>
        <time>2017-04-29T13:11:13.000Z</time>
      </trkpt>
      <trkpt lat="46.08004" lon="6.37583">
        <ele>452</ele>
        <time>2017-04-29T13:11:20.000Z</time>
      </trkpt>
      <trkpt lat="46.07993" lon="6.37634">
        <ele>452</ele>
        <time>2017-04-29T13:11:25.000Z</time>
      </trkpt>
      <trkpt lat="46.07984" lon="6.37653">
        <ele>452</ele>
        <time>2017-04-29T13:11:27.000Z</time>
      </trkpt>
      <trkpt lat="46.07972" lon="6.37667">
        <ele>452</ele>
        <time>2017-04-29T13:11:29.000Z</time>
      </trkpt>
      <trkpt lat="46.07922" lon="6.37702">
        <ele>452</ele>
        <time>2017-04-29T13:11:36.000Z</time>
      </trkpt>
      <trkpt lat="46.07871" lon="6.37736">
        <ele>452</ele>
        <time>2017-04-29T13:11:43.000Z</time>
      </trkpt>
      <trkpt lat="46.0782" lon="6.37771">
        <ele>453</ele>
        <time>2017-04-29T13:11:50.000Z</time>
      </trkpt>
      <trkpt lat="46.07775" lon="6.37816">
        <ele>454</ele>
        <time>2017-04-29T13:11:57.000Z</time>
      </trkpt>
      <trkpt lat="46.07749" lon="6.37856">
        <ele>455</ele>
        <time>2017-04-29T13:12:02.000Z</time>
      </trkpt>
      <trkpt lat="46.07717" lon="6.37919">
        <ele>456</ele>
        <time>2017-04-29T13:12:09.000Z</time>
      </trkpt>
      <trkpt lat="46.07685" lon="6.37982">
        <ele>455</ele>
        <time>2017-04-29T13:12:16.000Z</time>
      </trkpt>
      <trkpt lat="46.0768" lon="6.37991">
        <ele>455</ele>
        <time>2017-04-29T13:12:17.000Z</time>
      </trkpt>
      <trkpt lat="46.07648" lon="6.38054">
        <ele>455</ele>
        <time>2017-04-29T13:12:24.000Z</time>
      </trkpt>
      <trkpt lat="46.07633" lon="6.38081">
        <ele>455</ele>
        <time>2017-04-29T13:12:27.000Z</time>
      </trkpt>
      <trkpt lat="46.076" lon="6.38146">
        <ele>456</ele>
        <time>2017-04-29T13:12:34.000Z</time>
      </trkpt>
      <trkpt lat="46.07566" lon="6.38211">
        <ele>457</ele>
        <time>2017-04-29T13:12:41.000Z</time>
      </trkpt>
      <trkpt lat="46.07543" lon="6.3826">
        <ele>457</ele>
        <time>2017-04-29T13:12:46.000Z</time>
      </trkpt>
      <trkpt lat="46.0751" lon="6.3833">
        <ele>456</ele>
        <time>2017-04-29T13:12:53.000Z</time>
      </trkpt>
      <trkpt lat="46.07476" lon="6.38401">
        <ele>456</ele>
        <time>2017-04-29T13:13:00.000Z</time>
      </trkpt>
      <trkpt lat="46.07442" lon="6.38473">
        <ele>456</ele>
        <time>2017-04-29T13:13:07.000Z</time>
      </trkpt>
      <trkpt lat="46.07408" lon="6.38544">
        <ele>456</ele>
        <time>2017-04-29T13:13:14.000Z</time>
      </trkpt>
      <trkpt lat="46.07383" lon="6.38597">
        <ele>456</ele>
        <time>2017-04-29T13:13:19.000Z</time>
      </trkpt>
      <trkpt lat="46.07353" lon="6.38662">
        <ele>456</ele>
        <time>2017-04-29T13:13:25.000Z</time>
      </trkpt>
      <trkpt lat="46.07321" lon="6.38735">
        <ele>457</ele>
        <time>2017-04-29T13:13:32.000Z</time>
      </trkpt>
      <trkpt lat="46.07293" lon="6.38801">
        <ele>457</ele>
        <time>2017-04-29T13:13:40.000Z</time>
      </trkpt>
      <trkpt lat="46.0728" lon="6.38813">
        <ele>457</ele>
        <time>2017-04-29T13:13:44.000Z</time>
      </trkpt>
      <trkpt lat="46.07278" lon="6.38815">
        <ele>457</ele>
        <time>2017-04-29T13:13:46.000Z</time>
      </trkpt>
      <trkpt lat="46.07273" lon="6.38817">
        <ele>457</ele>
        <time>2017-04-29T13:17:02.000Z</time>
      </trkpt>
      <trkpt lat="46.07273" lon="6.38818">
        <ele>457</ele>
        <time>2017-04-29T13:17:03.000Z</time>
      </trkpt>
      <trkpt lat="46.07273" lon="6.38823">
        <ele>457</ele>
        <time>2017-04-29T13:17:12.000Z</time>
      </trkpt>
      <trkpt lat="46.07274" lon="6.38836">
        <ele>457</ele>
        <time>2017-04-29T13:17:15.000Z</time>
      </trkpt>
      <trkpt lat="46.0728" lon="6.38915">
        <ele>457</ele>
        <time>2017-04-29T13:17:24.000Z</time>
      </trkpt>
      <trkpt lat="46.07285" lon="6.38999">
        <ele>456</ele>
        <time>2017-04-29T13:17:31.000Z</time>
      </trkpt>
      <trkpt lat="46.07291" lon="6.39088">
        <ele>455</ele>
        <time>2017-04-29T13:17:38.000Z</time>
      </trkpt>
      <trkpt lat="46.07295" lon="6.39177">
        <ele>455</ele>
        <time>2017-04-29T13:17:45.000Z</time>
      </trkpt>
      <trkpt lat="46.07301" lon="6.39266">
        <ele>455</ele>
        <time>2017-04-29T13:17:52.000Z</time>
      </trkpt>
      <trkpt lat="46.07308" lon="6.39356">
        <ele>455</ele>
        <time>2017-04-29T13:17:59.000Z</time>
      </trkpt>
      <trkpt lat="46.07309" lon="6.39382">
        <ele>455</ele>
        <time>2017-04-29T13:18:01.000Z</time>
      </trkpt>
      <trkpt lat="46.07313" lon="6.39463">
        <ele>455</ele>
        <time>2017-04-29T13:18:07.000Z</time>
      </trkpt>
      <trkpt lat="46.07312" lon="6.39474">
        <ele>455</ele>
        <time>2017-04-29T13:18:08.000Z</time>
      </trkpt>
      <trkpt lat="46.07307" lon="6.39495">
        <ele>455</ele>
        <time>2017-04-29T13:18:10.000Z</time>
      </trkpt>
      <trkpt lat="46.07303" lon="6.39505">
        <ele>454</ele>
        <time>2017-04-29T13:18:11.000Z</time>
      </trkpt>
      <trkpt lat="46.07299" lon="6.39513">
        <ele>454</ele>
        <time>2017-04-29T13:18:12.000Z</time>
      </trkpt>
      <trkpt lat="46.07282" lon="6.39531">
        <ele>453</ele>
        <time>2017-04-29T13:18:15.000Z</time>
      </trkpt>
      <trkpt lat="46.07266" lon="6.39562">
        <ele>453</ele>
        <time>2017-04-29T13:18:19.000Z</time>
      </trkpt>
      <trkpt lat="46.07262" lon="6.3958">
        <ele>452</ele>
        <time>2017-04-29T13:18:21.000Z</time>
      </trkpt>
      <trkpt lat="46.07269" lon="6.39619">
        <ele>452</ele>
        <time>2017-04-29T13:18:25.000Z</time>
      </trkpt>
      <trkpt lat="46.07268" lon="6.39708">
        <ele>451</ele>
        <time>2017-04-29T13:18:32.000Z</time>
      </trkpt>
      <trkpt lat="46.07267" lon="6.39722">
        <ele>451</ele>
        <time>2017-04-29T13:18:33.000Z</time>
      </trkpt>
      <trkpt lat="46.07268" lon="6.39767">
        <ele>451</ele>
        <time>2017-04-29T13:18:36.000Z</time>
      </trkpt>
      <trkpt lat="46.07274" lon="6.39844">
        <ele>451</ele>
        <time>2017-04-29T13:18:41.000Z</time>
      </trkpt>
      <trkpt lat="46.07285" lon="6.39925">
        <ele>450</ele>
        <time>2017-04-29T13:18:47.000Z</time>
      </trkpt>
      <trkpt lat="46.07287" lon="6.39938">
        <ele>450</ele>
        <time>2017-04-29T13:18:49.000Z</time>
      </trkpt>
      <trkpt lat="46.07289" lon="6.39947">
        <ele>450</ele>
        <time>2017-04-29T13:18:51.000Z</time>
      </trkpt>
      <trkpt lat="46.07309" lon="6.40027">
        <ele>450</ele>
        <time>2017-04-29T13:19:01.000Z</time>
      </trkpt>
      <trkpt lat="46.07334" lon="6.40104">
        <ele>451</ele>
        <time>2017-04-29T13:19:08.000Z</time>
      </trkpt>
      <trkpt lat="46.07366" lon="6.40181">
        <ele>451</ele>
        <time>2017-04-29T13:19:15.000Z</time>
      </trkpt>
      <trkpt lat="46.07397" lon="6.40243">
        <ele>450</ele>
        <time>2017-04-29T13:19:21.000Z</time>
      </trkpt>
      <trkpt lat="46.07405" lon="6.40261">
        <ele>450</ele>
        <time>2017-04-29T13:19:23.000Z</time>
      </trkpt>
      <trkpt lat="46.07407" lon="6.40279">
        <ele>450</ele>
        <time>2017-04-29T13:19:25.000Z</time>
      </trkpt>
      <trkpt lat="46.07407" lon="6.40308">
        <ele>449</ele>
        <time>2017-04-29T13:19:28.000Z</time>
      </trkpt>
      <trkpt lat="46.07415" lon="6.40324">
        <ele>449</ele>
        <time>2017-04-29T13:19:30.000Z</time>
      </trkpt>
      <trkpt lat="46.07443" lon="6.4034">
        <ele>448</ele>
        <time>2017-04-29T13:19:34.000Z</time>
      </trkpt>
      <trkpt lat="46.07453" lon="6.40356">
        <ele>448</ele>
        <time>2017-04-29T13:19:36.000Z</time>
      </trkpt>
      <trkpt lat="46.07459" lon="6.4037">
        <ele>448</ele>
        <time>2017-04-29T13:19:38.000Z</time>
      </trkpt>
      <trkpt lat="46.07467" lon="6.40384">
        <ele>448</ele>
        <time>2017-04-29T13:19:40.000Z</time>
      </trkpt>
      <trkpt lat="46.07498" lon="6.40448">
        <ele>448</ele>
        <time>2017-04-29T13:19:47.000Z</time>
      </trkpt>
      <trkpt lat="46.07511" lon="6.40476">
        <ele>448</ele>
        <time>2017-04-29T13:19:50.000Z</time>
      </trkpt>
      <trkpt lat="46.07515" lon="6.40498">
        <ele>448</ele>
        <time>2017-04-29T13:19:52.000Z</time>
      </trkpt>
      <trkpt lat="46.07512" lon="6.40518">
        <ele>447</ele>
        <time>2017-04-29T13:19:54.000Z</time>
      </trkpt>
      <trkpt lat="46.07508" lon="6.40538">
        <ele>447</ele>
        <time>2017-04-29T13:19:56.000Z</time>
      </trkpt>
      <trkpt lat="46.0752" lon="6.40561">
        <ele>447</ele>
        <time>2017-04-29T13:19:59.000Z</time>
      </trkpt>
      <trkpt lat="46.07534" lon="6.4056">
        <ele>447</ele>
        <time>2017-04-29T13:20:01.000Z</time>
      </trkpt>
      <trkpt lat="46.07548" lon="6.40559">
        <ele>447</ele>
        <time>2017-04-29T13:20:03.000Z</time>
      </trkpt>
      <trkpt lat="46.07558" lon="6.40571">
        <ele>447</ele>
        <time>2017-04-29T13:20:05.000Z</time>
      </trkpt>
      <trkpt lat="46.07562" lon="6.40579">
        <ele>447</ele>
        <time>2017-04-29T13:20:06.000Z</time>
      </trkpt>
      <trkpt lat="46.07574" lon="6.40603">
        <ele>446</ele>
        <time>2017-04-29T13:20:09.000Z</time>
      </trkpt>
      <trkpt lat="46.07588" lon="6.40627">
        <ele>446</ele>
        <time>2017-04-29T13:20:12.000Z</time>
      </trkpt>
      <trkpt lat="46.07619" lon="6.40687">
        <ele>448</ele>
        <time>2017-04-29T13:20:19.000Z</time>
      </trkpt>
      <trkpt lat="46.07618" lon="6.40707">
        <ele>448</ele>
        <time>2017-04-29T13:20:21.000Z</time>
      </trkpt>
      <trkpt lat="46.07612" lon="6.40726">
        <ele>448</ele>
        <time>2017-04-29T13:20:23.000Z</time>
      </trkpt>
      <trkpt lat="46.07591" lon="6.40801">
        <ele>449</ele>
        <time>2017-04-29T13:20:30.000Z</time>
      </trkpt>
      <trkpt lat="46.07586" lon="6.40823">
        <ele>449</ele>
        <time>2017-04-29T13:20:32.000Z</time>
      </trkpt>
      <trkpt lat="46.07582" lon="6.40846">
        <ele>449</ele>
        <time>2017-04-29T13:20:34.000Z</time>
      </trkpt>
      <trkpt lat="46.07585" lon="6.40869">
        <ele>451</ele>
        <time>2017-04-29T13:20:36.000Z</time>
      </trkpt>
      <trkpt lat="46.07592" lon="6.40891">
        <ele>451</ele>
        <time>2017-04-29T13:20:38.000Z</time>
      </trkpt>
      <trkpt lat="46.07618" lon="6.40969">
        <ele>451</ele>
        <time>2017-04-29T13:20:45.000Z</time>
      </trkpt>
      <trkpt lat="46.07626" lon="6.40991">
        <ele>451</ele>
        <time>2017-04-29T13:20:47.000Z</time>
      </trkpt>
      <trkpt lat="46.07653" lon="6.41069">
        <ele>451</ele>
        <time>2017-04-29T13:20:54.000Z</time>
      </trkpt>
      <trkpt lat="46.0768" lon="6.41148">
        <ele>451</ele>
        <time>2017-04-29T13:21:01.000Z</time>
      </trkpt>
      <trkpt lat="46.07706" lon="6.41227">
        <ele>450</ele>
        <time>2017-04-29T13:21:08.000Z</time>
      </trkpt>
      <trkpt lat="46.07731" lon="6.41301">
        <ele>450</ele>
        <time>2017-04-29T13:21:15.000Z</time>
      </trkpt>
      <trkpt lat="46.07756" lon="6.41373">
        <ele>451</ele>
        <time>2017-04-29T13:21:22.000Z</time>
      </trkpt>
      <trkpt lat="46.0778" lon="6.41446">
        <ele>452</ele>
        <time>2017-04-29T13:21:29.000Z</time>
      </trkpt>
      <trkpt lat="46.07784" lon="6.41456">
        <ele>452</ele>
        <time>2017-04-29T13:21:30.000Z</time>
      </trkpt>
      <trkpt lat="46.07789" lon="6.41476">
        <ele>452</ele>
        <time>2017-04-29T13:21:32.000Z</time>
      </trkpt>
      <trkpt lat="46.07791" lon="6.41498">
        <ele>452</ele>
        <time>2017-04-29T13:21:34.000Z</time>
      </trkpt>
      <trkpt lat="46.07789" lon="6.41543">
        <ele>451</ele>
        <time>2017-04-29T13:21:38.000Z</time>
      </trkpt>
      <trkpt lat="46.07789" lon="6.41589">
        <ele>451</ele>
        <time>2017-04-29T13:21:42.000Z</time>
      </trkpt>
      <trkpt lat="46.07796" lon="6.41622">
        <ele>451</ele>
        <time>2017-04-29T13:21:45.000Z</time>
      </trkpt>
      <trkpt lat="46.07821" lon="6.41693">
        <ele>452</ele>
        <time>2017-04-29T13:21:52.000Z</time>
      </trkpt>
      <trkpt lat="46.07839" lon="6.41749">
        <ele>453</ele>
        <time>2017-04-29T13:21:57.000Z</time>
      </trkpt>
      <trkpt lat="46.07861" lon="6.41829">
        <ele>451</ele>
        <time>2017-04-29T13:22:04.000Z</time>
      </trkpt>
      <trkpt lat="46.07878" lon="6.41914">
        <ele>450</ele>
        <time>2017-04-29T13:22:11.000Z</time>
      </trkpt>
      <trkpt lat="46.07892" lon="6.41996">
        <ele>451</ele>
        <time>2017-04-29T13:22:18.000Z</time>
      </trkpt>
      <trkpt lat="46.07904" lon="6.42076">
        <ele>451</ele>
        <time>2017-04-29T13:22:26.000Z</time>
      </trkpt>
      <trkpt lat="46.07906" lon="6.42085">
        <ele>451</ele>
        <time>2017-04-29T13:22:27.000Z</time>
      </trkpt>
      <trkpt lat="46.07916" lon="6.42098">
        <ele>451</ele>
        <time>2017-04-29T13:22:29.000Z</time>
      </trkpt>
      <trkpt lat="46.0793" lon="6.42109">
        <ele>453</ele>
        <time>2017-04-29T13:22:31.000Z</time>
      </trkpt>
      <trkpt lat="46.07945" lon="6.42118">
        <ele>454</ele>
        <time>2017-04-29T13:22:33.000Z</time>
      </trkpt>
      <trkpt lat="46.07958" lon="6.42133">
        <ele>454</ele>
        <time>2017-04-29T13:22:35.000Z</time>
      </trkpt>
      <trkpt lat="46.07969" lon="6.42152">
        <ele>455</ele>
        <time>2017-04-29T13:22:37.000Z</time>
      </trkpt>
      <trkpt lat="46.07974" lon="6.42163">
        <ele>455</ele>
        <time>2017-04-29T13:22:38.000Z</time>
      </trkpt>
      <trkpt lat="46.07999" lon="6.42233">
        <ele>453</ele>
        <time>2017-04-29T13:22:44.000Z</time>
      </trkpt>
      <trkpt lat="46.08016" lon="6.42282">
        <ele>456</ele>
        <time>2017-04-29T13:22:48.000Z</time>
      </trkpt>
      <trkpt lat="46.08031" lon="6.4233">
        <ele>456</ele>
        <time>2017-04-29T13:22:52.000Z</time>
      </trkpt>
      <trkpt lat="46.08042" lon="6.42406">
        <ele>454</ele>
        <time>2017-04-29T13:22:58.000Z</time>
      </trkpt>
      <trkpt lat="46.0805" lon="6.42483">
        <ele>453</ele>
        <time>2017-04-29T13:23:04.000Z</time>
      </trkpt>
      <trkpt lat="46.08059" lon="6.42571">
        <ele>454</ele>
        <time>2017-04-29T13:23:11.000Z</time>
      </trkpt>
      <trkpt lat="46.08068" lon="6.42659">
        <ele>453</ele>
        <time>2017-04-29T13:23:18.000Z</time>
      </trkpt>
      <trkpt lat="46.08076" lon="6.42706">
        <ele>451</ele>
        <time>2017-04-29T13:23:22.000Z</time>
      </trkpt>
      <trkpt lat="46.08097" lon="6.42786">
        <ele>456</ele>
        <time>2017-04-29T13:23:29.000Z</time>
      </trkpt>
      <trkpt lat="46.081" lon="6.42796">
        <ele>456</ele>
        <time>2017-04-29T13:23:30.000Z</time>
      </trkpt>
      <trkpt lat="46.08117" lon="6.42862">
        <ele>455</ele>
        <time>2017-04-29T13:23:36.000Z</time>
      </trkpt>
      <trkpt lat="46.08134" lon="6.42914">
        <ele>455</ele>
        <time>2017-04-29T13:23:41.000Z</time>
      </trkpt>
      <trkpt lat="46.08152" lon="6.42962">
        <ele>453</ele>
        <time>2017-04-29T13:23:46.000Z</time>
      </trkpt>
      <trkpt lat="46.08157" lon="6.42971">
        <ele>453</ele>
        <time>2017-04-29T13:23:47.000Z</time>
      </trkpt>
      <trkpt lat="46.08173" lon="6.42993">
        <ele>456</ele>
        <time>2017-04-29T13:23:50.000Z</time>
      </trkpt>
      <trkpt lat="46.08191" lon="6.43009">
        <ele>457</ele>
        <time>2017-04-29T13:23:53.000Z</time>
      </trkpt>
      <trkpt lat="46.08204" lon="6.43017">
        <ele>458</ele>
        <time>2017-04-29T13:23:55.000Z</time>
      </trkpt>
      <trkpt lat="46.08216" lon="6.43021">
        <ele>459</ele>
        <time>2017-04-29T13:23:57.000Z</time>
      </trkpt>
      <trkpt lat="46.08241" lon="6.43028">
        <ele>460</ele>
        <time>2017-04-29T13:24:01.000Z</time>
      </trkpt>
      <trkpt lat="46.0826" lon="6.43033">
        <ele>466</ele>
        <time>2017-04-29T13:24:04.000Z</time>
      </trkpt>
      <trkpt lat="46.08278" lon="6.43039">
        <ele>467</ele>
        <time>2017-04-29T13:24:07.000Z</time>
      </trkpt>
      <trkpt lat="46.08288" lon="6.43047">
        <ele>468</ele>
        <time>2017-04-29T13:24:09.000Z</time>
      </trkpt>
      <trkpt lat="46.08294" lon="6.43059">
        <ele>468</ele>
        <time>2017-04-29T13:24:11.000Z</time>
      </trkpt>
      <trkpt lat="46.08299" lon="6.43074">
        <ele>469</ele>
        <time>2017-04-29T13:24:13.000Z</time>
      </trkpt>
      <trkpt lat="46.08307" lon="6.43098">
        <ele>469</ele>
        <time>2017-04-29T13:24:16.000Z</time>
      </trkpt>
      <trkpt lat="46.08317" lon="6.4313">
        <ele>469</ele>
        <time>2017-04-29T13:24:20.000Z</time>
      </trkpt>
      <trkpt lat="46.08329" lon="6.43163">
        <ele>472</ele>
        <time>2017-04-29T13:24:24.000Z</time>
      </trkpt>
      <trkpt lat="46.08339" lon="6.43193">
        <ele>475</ele>
        <time>2017-04-29T13:24:28.000Z</time>
      </trkpt>
      <trkpt lat="46.08348" lon="6.43215">
        <ele>474</ele>
        <time>2017-04-29T13:24:31.000Z</time>
      </trkpt>
      <trkpt lat="46.08377" lon="6.43272">
        <ele>473</ele>
        <time>2017-04-29T13:24:39.000Z</time>
      </trkpt>
      <trkpt lat="46.08383" lon="6.43289">
        <ele>473</ele>
        <time>2017-04-29T13:24:41.000Z</time>
      </trkpt>
      <trkpt lat="46.08391" lon="6.43372">
        <ele>472</ele>
        <time>2017-04-29T13:24:49.000Z</time>
      </trkpt>
      <trkpt lat="46.08388" lon="6.43435">
        <ele>473</ele>
        <time>2017-04-29T13:24:55.000Z</time>
      </trkpt>
      <trkpt lat="46.08383" lon="6.43461">
        <ele>473</ele>
        <time>2017-04-29T13:25:01.000Z</time>
      </trkpt>
      <trkpt lat="46.08379" lon="6.43485">
        <ele>474</ele>
        <time>2017-04-29T13:25:05.000Z</time>
      </trkpt>
      <trkpt lat="46.08362" lon="6.43537">
        <ele>479</ele>
        <time>2017-04-29T13:25:12.000Z</time>
      </trkpt>
      <trkpt lat="46.08353" lon="6.43567">
        <ele>479</ele>
        <time>2017-04-29T13:25:16.000Z</time>
      </trkpt>
      <trkpt lat="46.08345" lon="6.43588">
        <ele>482</ele>
        <time>2017-04-29T13:25:19.000Z</time>
      </trkpt>
      <trkpt lat="46.08336" lon="6.43609">
        <ele>485</ele>
        <time>2017-04-29T13:25:22.000Z</time>
      </trkpt>
      <trkpt lat="46.08329" lon="6.43622">
        <ele>480</ele>
        <time>2017-04-29T13:25:24.000Z</time>
      </trkpt>
      <trkpt lat="46.08321" lon="6.43632">
        <ele>481</ele>
        <time>2017-04-29T13:25:26.000Z</time>
      </trkpt>
      <trkpt lat="46.08312" lon="6.43642">
        <ele>481</ele>
        <time>2017-04-29T13:25:28.000Z</time>
      </trkpt>
      <trkpt lat="46.08299" lon="6.43655">
        <ele>481</ele>
        <time>2017-04-29T13:25:31.000Z</time>
      </trkpt>
      <trkpt lat="46.08284" lon="6.43673">
        <ele>486</ele>
        <time>2017-04-29T13:25:35.000Z</time>
      </trkpt>
      <trkpt lat="46.08272" lon="6.43686">
        <ele>485</ele>
        <time>2017-04-29T13:25:38.000Z</time>
      </trkpt>
      <trkpt lat="46.08262" lon="6.43701">
        <ele>486</ele>
        <time>2017-04-29T13:25:41.000Z</time>
      </trkpt>
      <trkpt lat="46.08252" lon="6.43719">
        <ele>487</ele>
        <time>2017-04-29T13:25:44.000Z</time>
      </trkpt>
      <trkpt lat="46.08235" lon="6.43802">
        <ele>483</ele>
        <time>2017-04-29T13:25:53.000Z</time>
      </trkpt>
      <trkpt lat="46.08222" lon="6.43879">
        <ele>482</ele>
        <time>2017-04-29T13:26:00.000Z</time>
      </trkpt>
      <trkpt lat="46.08202" lon="6.43963">
        <ele>482</ele>
        <time>2017-04-29T13:26:07.000Z</time>
      </trkpt>
      <trkpt lat="46.08197" lon="6.43975">
        <ele>481</ele>
        <time>2017-04-29T13:26:08.000Z</time>
      </trkpt>
      <trkpt lat="46.08175" lon="6.44031">
        <ele>482</ele>
        <time>2017-04-29T13:26:13.000Z</time>
      </trkpt>
      <trkpt lat="46.0815" lon="6.4411">
        <ele>482</ele>
        <time>2017-04-29T13:26:20.000Z</time>
      </trkpt>
      <trkpt lat="46.08149" lon="6.44121">
        <ele>482</ele>
        <time>2017-04-29T13:26:21.000Z</time>
      </trkpt>
      <trkpt lat="46.08148" lon="6.44144">
        <ele>483</ele>
        <time>2017-04-29T13:26:23.000Z</time>
      </trkpt>
      <trkpt lat="46.0815" lon="6.44166">
        <ele>484</ele>
        <time>2017-04-29T13:26:25.000Z</time>
      </trkpt>
      <trkpt lat="46.08151" lon="6.44187">
        <ele>487</ele>
        <time>2017-04-29T13:26:27.000Z</time>
      </trkpt>
      <trkpt lat="46.0815" lon="6.44216">
        <ele>487</ele>
        <time>2017-04-29T13:26:30.000Z</time>
      </trkpt>
      <trkpt lat="46.08149" lon="6.44245">
        <ele>489</ele>
        <time>2017-04-29T13:26:33.000Z</time>
      </trkpt>
      <trkpt lat="46.0815" lon="6.44271">
        <ele>491</ele>
        <time>2017-04-29T13:26:36.000Z</time>
      </trkpt>
      <trkpt lat="46.08156" lon="6.44295">
        <ele>492</ele>
        <time>2017-04-29T13:26:39.000Z</time>
      </trkpt>
      <trkpt lat="46.0816" lon="6.4431">
        <ele>492</ele>
        <time>2017-04-29T13:26:41.000Z</time>
      </trkpt>
      <trkpt lat="46.08165" lon="6.44325">
        <ele>494</ele>
        <time>2017-04-29T13:26:43.000Z</time>
      </trkpt>
      <trkpt lat="46.0817" lon="6.44338">
        <ele>496</ele>
        <time>2017-04-29T13:26:45.000Z</time>
      </trkpt>
      <trkpt lat="46.08173" lon="6.44345">
        <ele>497</ele>
        <time>2017-04-29T13:26:46.000Z</time>
      </trkpt>
      <trkpt lat="46.08174" lon="6.44352">
        <ele>498</ele>
        <time>2017-04-29T13:26:47.000Z</time>
      </trkpt>
      <trkpt lat="46.08177" lon="6.44366">
        <ele>499</ele>
        <time>2017-04-29T13:26:49.000Z</time>
      </trkpt>
      <trkpt lat="46.08181" lon="6.4438">
        <ele>500</ele>
        <time>2017-04-29T13:26:51.000Z</time>
      </trkpt>
      <trkpt lat="46.08183" lon="6.44388">
        <ele>500</ele>
        <time>2017-04-29T13:26:52.000Z</time>
      </trkpt>
      <trkpt lat="46.08182" lon="6.44401">
        <ele>500</ele>
        <time>2017-04-29T13:26:54.000Z</time>
      </trkpt>
      <trkpt lat="46.08179" lon="6.44415">
        <ele>499</ele>
        <time>2017-04-29T13:26:56.000Z</time>
      </trkpt>
      <trkpt lat="46.08174" lon="6.44436">
        <ele>501</ele>
        <time>2017-04-29T13:26:59.000Z</time>
      </trkpt>
      <trkpt lat="46.08169" lon="6.44459">
        <ele>503</ele>
        <time>2017-04-29T13:27:02.000Z</time>
      </trkpt>
      <trkpt lat="46.08162" lon="6.44489">
        <ele>501</ele>
        <time>2017-04-29T13:27:06.000Z</time>
      </trkpt>
      <trkpt lat="46.08154" lon="6.44528">
        <ele>504</ele>
        <time>2017-04-29T13:27:11.000Z</time>
      </trkpt>
      <trkpt lat="46.08149" lon="6.44551">
        <ele>505</ele>
        <time>2017-04-29T13:27:14.000Z</time>
      </trkpt>
      <trkpt lat="46.08144" lon="6.44573">
        <ele>506</ele>
        <time>2017-04-29T13:27:17.000Z</time>
      </trkpt>
      <trkpt lat="46.08141" lon="6.44588">
        <ele>509</ele>
        <time>2017-04-29T13:27:19.000Z</time>
      </trkpt>
      <trkpt lat="46.08139" lon="6.44595">
        <ele>510</ele>
        <time>2017-04-29T13:27:20.000Z</time>
      </trkpt>
      <trkpt lat="46.08133" lon="6.44626">
        <ele>510</ele>
        <time>2017-04-29T13:27:24.000Z</time>
      </trkpt>
      <trkpt lat="46.08127" lon="6.44648">
        <ele>511</ele>
        <time>2017-04-29T13:27:27.000Z</time>
      </trkpt>
      <trkpt lat="46.0812" lon="6.44677">
        <ele>513</ele>
        <time>2017-04-29T13:27:31.000Z</time>
      </trkpt>
      <trkpt lat="46.08116" lon="6.447">
        <ele>514</ele>
        <time>2017-04-29T13:27:34.000Z</time>
      </trkpt>
      <trkpt lat="46.08111" lon="6.44722">
        <ele>514</ele>
        <time>2017-04-29T13:27:37.000Z</time>
      </trkpt>
      <trkpt lat="46.0811" lon="6.44729">
        <ele>514</ele>
        <time>2017-04-29T13:27:38.000Z</time>
      </trkpt>
      <trkpt lat="46.08099" lon="6.44771">
        <ele>516</ele>
        <time>2017-04-29T13:27:44.000Z</time>
      </trkpt>
      <trkpt lat="46.08092" lon="6.44811">
        <ele>517</ele>
        <time>2017-04-29T13:27:49.000Z</time>
      </trkpt>
      <trkpt lat="46.08091" lon="6.4482">
        <ele>516</ele>
        <time>2017-04-29T13:27:50.000Z</time>
      </trkpt>
      <trkpt lat="46.0809" lon="6.44864">
        <ele>519</ele>
        <time>2017-04-29T13:27:55.000Z</time>
      </trkpt>
      <trkpt lat="46.08089" lon="6.4492">
        <ele>519</ele>
        <time>2017-04-29T13:28:01.000Z</time>
      </trkpt>
      <trkpt lat="46.0809" lon="6.4496">
        <ele>522</ele>
        <time>2017-04-29T13:28:05.000Z</time>
      </trkpt>
      <trkpt lat="46.08094" lon="6.4504">
        <ele>526</ele>
        <time>2017-04-29T13:28:12.000Z</time>
      </trkpt>
      <trkpt lat="46.08095" lon="6.45075">
        <ele>524</ele>
        <time>2017-04-29T13:28:15.000Z</time>
      </trkpt>
      <trkpt lat="46.08095" lon="6.45087">
        <ele>528</ele>
        <time>2017-04-29T13:28:16.000Z</time>
      </trkpt>
      <trkpt lat="46.08091" lon="6.45118">
        <ele>534</ele>
        <time>2017-04-29T13:28:19.000Z</time>
      </trkpt>
      <trkpt lat="46.08083" lon="6.45156">
        <ele>526</ele>
        <time>2017-04-29T13:28:23.000Z</time>
      </trkpt>
      <trkpt lat="46.08076" lon="6.45185">
        <ele>528</ele>
        <time>2017-04-29T13:28:26.000Z</time>
      </trkpt>
      <trkpt lat="46.0807" lon="6.45213">
        <ele>528</ele>
        <time>2017-04-29T13:28:29.000Z</time>
      </trkpt>
      <trkpt lat="46.0806" lon="6.45262">
        <ele>533</ele>
        <time>2017-04-29T13:28:34.000Z</time>
      </trkpt>
      <trkpt lat="46.0805" lon="6.45313">
        <ele>534</ele>
        <time>2017-04-29T13:28:39.000Z</time>
      </trkpt>
      <trkpt lat="46.08042" lon="6.45353">
        <ele>537</ele>
        <time>2017-04-29T13:28:43.000Z</time>
      </trkpt>
      <trkpt lat="46.08036" lon="6.45381">
        <ele>537</ele>
        <time>2017-04-29T13:28:46.000Z</time>
      </trkpt>
      <trkpt lat="46.08029" lon="6.45435">
        <ele>539</ele>
        <time>2017-04-29T13:28:52.000Z</time>
      </trkpt>
      <trkpt lat="46.08019" lon="6.45523">
        <ele>537</ele>
        <time>2017-04-29T13:29:00.000Z</time>
      </trkpt>
      <trkpt lat="46.0801" lon="6.45566">
        <ele>534</ele>
        <time>2017-04-29T13:29:03.000Z</time>
      </trkpt>
      <trkpt lat="46.08003" lon="6.45595">
        <ele>531</ele>
        <time>2017-04-29T13:29:05.000Z</time>
      </trkpt>
      <trkpt lat="46.07996" lon="6.45627">
        <ele>521</ele>
        <time>2017-04-29T13:29:07.000Z</time>
      </trkpt>
      <trkpt lat="46.07992" lon="6.45662">
        <ele>519</ele>
        <time>2017-04-29T13:29:09.000Z</time>
      </trkpt>
      <trkpt lat="46.07989" lon="6.45698">
        <ele>515</ele>
        <time>2017-04-29T13:29:11.000Z</time>
      </trkpt>
      <trkpt lat="46.07987" lon="6.45716">
        <ele>515</ele>
        <time>2017-04-29T13:29:12.000Z</time>
      </trkpt>
      <trkpt lat="46.07981" lon="6.45753">
        <ele>515</ele>
        <time>2017-04-29T13:29:14.000Z</time>
      </trkpt>
      <trkpt lat="46.07978" lon="6.45771">
        <ele>513</ele>
        <time>2017-04-29T13:29:15.000Z</time>
      </trkpt>
      <trkpt lat="46.07975" lon="6.45789">
        <ele>512</ele>
        <time>2017-04-29T13:29:16.000Z</time>
      </trkpt>
      <trkpt lat="46.07972" lon="6.45806">
        <ele>512</ele>
        <time>2017-04-29T13:29:17.000Z</time>
      </trkpt>
      <trkpt lat="46.07966" lon="6.45841">
        <ele>512</ele>
        <time>2017-04-29T13:29:19.000Z</time>
      </trkpt>
      <trkpt lat="46.0796" lon="6.45875">
        <ele>511</ele>
        <time>2017-04-29T13:29:21.000Z</time>
      </trkpt>
      <trkpt lat="46.07952" lon="6.45924">
        <ele>511</ele>
        <time>2017-04-29T13:29:24.000Z</time>
      </trkpt>
      <trkpt lat="46.07947" lon="6.45956">
        <ele>511</ele>
        <time>2017-04-29T13:29:26.000Z</time>
      </trkpt>
      <trkpt lat="46.07938" lon="6.46004">
        <ele>508</ele>
        <time>2017-04-29T13:29:29.000Z</time>
      </trkpt>
      <trkpt lat="46.07931" lon="6.46036">
        <ele>511</ele>
        <time>2017-04-29T13:29:31.000Z</time>
      </trkpt>
      <trkpt lat="46.07924" lon="6.46084">
        <ele>505</ele>
        <time>2017-04-29T13:29:34.000Z</time>
      </trkpt>
      <trkpt lat="46.07918" lon="6.46133">
        <ele>513</ele>
        <time>2017-04-29T13:29:37.000Z</time>
      </trkpt>
      <trkpt lat="46.07915" lon="6.46166">
        <ele>500</ele>
        <time>2017-04-29T13:29:39.000Z</time>
      </trkpt>
      <trkpt lat="46.07911" lon="6.46199">
        <ele>494</ele>
        <time>2017-04-29T13:29:41.000Z</time>
      </trkpt>
      <trkpt lat="46.07908" lon="6.46232">
        <ele>497</ele>
        <time>2017-04-29T13:29:43.000Z</time>
      </trkpt>
      <trkpt lat="46.07904" lon="6.46265">
        <ele>497</ele>
        <time>2017-04-29T13:29:45.000Z</time>
      </trkpt>
      <trkpt lat="46.079" lon="6.46299">
        <ele>495</ele>
        <time>2017-04-29T13:29:47.000Z</time>
      </trkpt>
      <trkpt lat="46.07896" lon="6.46333">
        <ele>496</ele>
        <time>2017-04-29T13:29:49.000Z</time>
      </trkpt>
      <trkpt lat="46.07893" lon="6.46367">
        <ele>494</ele>
        <time>2017-04-29T13:29:51.000Z</time>
      </trkpt>
      <trkpt lat="46.07889" lon="6.464">
        <ele>495</ele>
        <time>2017-04-29T13:29:53.000Z</time>
      </trkpt>
      <trkpt lat="46.07885" lon="6.46433">
        <ele>494</ele>
        <time>2017-04-29T13:29:55.000Z</time>
      </trkpt>
      <trkpt lat="46.07881" lon="6.46466">
        <ele>493</ele>
        <time>2017-04-29T13:29:57.000Z</time>
      </trkpt>
      <trkpt lat="46.07877" lon="6.46498">
        <ele>493</ele>
        <time>2017-04-29T13:29:59.000Z</time>
      </trkpt>
      <trkpt lat="46.07875" lon="6.46531">
        <ele>493</ele>
        <time>2017-04-29T13:30:01.000Z</time>
      </trkpt>
      <trkpt lat="46.07876" lon="6.46565">
        <ele>494</ele>
        <time>2017-04-29T13:30:03.000Z</time>
      </trkpt>
      <trkpt lat="46.07877" lon="6.46599">
        <ele>495</ele>
        <time>2017-04-29T13:30:05.000Z</time>
      </trkpt>
      <trkpt lat="46.07875" lon="6.4665">
        <ele>494</ele>
        <time>2017-04-29T13:30:08.000Z</time>
      </trkpt>
      <trkpt lat="46.07868" lon="6.46682">
        <ele>493</ele>
        <time>2017-04-29T13:30:10.000Z</time>
      </trkpt>
      <trkpt lat="46.07858" lon="6.46713">
        <ele>492</ele>
        <time>2017-04-29T13:30:12.000Z</time>
      </trkpt>
      <trkpt lat="46.07842" lon="6.46756">
        <ele>486</ele>
        <time>2017-04-29T13:30:15.000Z</time>
      </trkpt>
      <trkpt lat="46.07833" lon="6.46787">
        <ele>478</ele>
        <time>2017-04-29T13:30:17.000Z</time>
      </trkpt>
      <trkpt lat="46.07824" lon="6.46819">
        <ele>479</ele>
        <time>2017-04-29T13:30:19.000Z</time>
      </trkpt>
      <trkpt lat="46.07816" lon="6.46852">
        <ele>478</ele>
        <time>2017-04-29T13:30:21.000Z</time>
      </trkpt>
      <trkpt lat="46.07807" lon="6.46884">
        <ele>477</ele>
        <time>2017-04-29T13:30:23.000Z</time>
      </trkpt>
      <trkpt lat="46.07794" lon="6.46932">
        <ele>476</ele>
        <time>2017-04-29T13:30:26.000Z</time>
      </trkpt>
      <trkpt lat="46.07782" lon="6.46981">
        <ele>473</ele>
        <time>2017-04-29T13:30:29.000Z</time>
      </trkpt>
      <trkpt lat="46.07764" lon="6.47045">
        <ele>469</ele>
        <time>2017-04-29T13:30:33.000Z</time>
      </trkpt>
      <trkpt lat="46.07754" lon="6.47094">
        <ele>465</ele>
        <time>2017-04-29T13:30:36.000Z</time>
      </trkpt>
      <trkpt lat="46.07752" lon="6.47111">
        <ele>467</ele>
        <time>2017-04-29T13:30:37.000Z</time>
      </trkpt>
      <trkpt lat="46.07752" lon="6.47159">
        <ele>467</ele>
        <time>2017-04-29T13:30:40.000Z</time>
      </trkpt>
      <trkpt lat="46.07761" lon="6.47237">
        <ele>465</ele>
        <time>2017-04-29T13:30:45.000Z</time>
      </trkpt>
      <trkpt lat="46.07774" lon="6.47328">
        <ele>465</ele>
        <time>2017-04-29T13:30:51.000Z</time>
      </trkpt>
      <trkpt lat="46.07787" lon="6.47417">
        <ele>463</ele>
        <time>2017-04-29T13:30:57.000Z</time>
      </trkpt>
      <trkpt lat="46.07801" lon="6.47507">
        <ele>461</ele>
        <time>2017-04-29T13:31:03.000Z</time>
      </trkpt>
      <trkpt lat="46.07815" lon="6.47596">
        <ele>461</ele>
        <time>2017-04-29T13:31:09.000Z</time>
      </trkpt>
      <trkpt lat="46.07821" lon="6.47639">
        <ele>461</ele>
        <time>2017-04-29T13:31:12.000Z</time>
      </trkpt>
      <trkpt lat="46.07832" lon="6.47726">
        <ele>462</ele>
        <time>2017-04-29T13:31:18.000Z</time>
      </trkpt>
      <trkpt lat="46.07843" lon="6.47813">
        <ele>464</ele>
        <time>2017-04-29T13:31:24.000Z</time>
      </trkpt>
      <trkpt lat="46.07853" lon="6.47897">
        <ele>464</ele>
        <time>2017-04-29T13:31:30.000Z</time>
      </trkpt>
      <trkpt lat="46.07864" lon="6.47981">
        <ele>464</ele>
        <time>2017-04-29T13:31:36.000Z</time>
      </trkpt>
      <trkpt lat="46.07867" lon="6.48009">
        <ele>464</ele>
        <time>2017-04-29T13:31:38.000Z</time>
      </trkpt>
      <trkpt lat="46.07877" lon="6.48091">
        <ele>465</ele>
        <time>2017-04-29T13:31:44.000Z</time>
      </trkpt>
      <trkpt lat="46.07889" lon="6.48169">
        <ele>465</ele>
        <time>2017-04-29T13:31:50.000Z</time>
      </trkpt>
      <trkpt lat="46.0791" lon="6.48245">
        <ele>464</ele>
        <time>2017-04-29T13:31:56.000Z</time>
      </trkpt>
      <trkpt lat="46.07934" lon="6.48321">
        <ele>465</ele>
        <time>2017-04-29T13:32:02.000Z</time>
      </trkpt>
      <trkpt lat="46.07957" lon="6.48398">
        <ele>464</ele>
        <time>2017-04-29T13:32:08.000Z</time>
      </trkpt>
      <trkpt lat="46.07971" lon="6.48448">
        <ele>465</ele>
        <time>2017-04-29T13:32:12.000Z</time>
      </trkpt>
      <trkpt lat="46.07989" lon="6.48521">
        <ele>467</ele>
        <time>2017-04-29T13:32:18.000Z</time>
      </trkpt>
      <trkpt lat="46.08006" lon="6.48597">
        <ele>467</ele>
        <time>2017-04-29T13:32:25.000Z</time>
      </trkpt>
      <trkpt lat="46.08007" lon="6.48606">
        <ele>467</ele>
        <time>2017-04-29T13:32:26.000Z</time>
      </trkpt>
      <trkpt lat="46.08004" lon="6.48621">
        <ele>467</ele>
        <time>2017-04-29T13:32:28.000Z</time>
      </trkpt>
      <trkpt lat="46.08001" lon="6.48634">
        <ele>467</ele>
        <time>2017-04-29T13:32:30.000Z</time>
      </trkpt>
      <trkpt lat="46.08007" lon="6.48648">
        <ele>467</ele>
        <time>2017-04-29T13:32:32.000Z</time>
      </trkpt>
      <trkpt lat="46.08057" lon="6.48695">
        <ele>467</ele>
        <time>2017-04-29T13:32:39.000Z</time>
      </trkpt>
      <trkpt lat="46.08064" lon="6.48704">
        <ele>467</ele>
        <time>2017-04-29T13:32:40.000Z</time>
      </trkpt>
      <trkpt lat="46.08105" lon="6.48762">
        <ele>466</ele>
        <time>2017-04-29T13:32:46.000Z</time>
      </trkpt>
      <trkpt lat="46.08119" lon="6.48782">
        <ele>467</ele>
        <time>2017-04-29T13:32:48.000Z</time>
      </trkpt>
      <trkpt lat="46.08162" lon="6.48843">
        <ele>467</ele>
        <time>2017-04-29T13:32:54.000Z</time>
      </trkpt>
      <trkpt lat="46.08191" lon="6.48881">
        <ele>468</ele>
        <time>2017-04-29T13:32:58.000Z</time>
      </trkpt>
      <trkpt lat="46.08213" lon="6.48908">
        <ele>468</ele>
        <time>2017-04-29T13:33:01.000Z</time>
      </trkpt>
      <trkpt lat="46.08257" lon="6.48961">
        <ele>469</ele>
        <time>2017-04-29T13:33:07.000Z</time>
      </trkpt>
      <trkpt lat="46.08279" lon="6.48987">
        <ele>469</ele>
        <time>2017-04-29T13:33:10.000Z</time>
      </trkpt>
      <trkpt lat="46.08324" lon="6.4904">
        <ele>470</ele>
        <time>2017-04-29T13:33:16.000Z</time>
      </trkpt>
      <trkpt lat="46.08353" lon="6.49076">
        <ele>471</ele>
        <time>2017-04-29T13:33:20.000Z</time>
      </trkpt>
      <trkpt lat="46.08381" lon="6.49109">
        <ele>470</ele>
        <time>2017-04-29T13:33:24.000Z</time>
      </trkpt>
      <trkpt lat="46.08427" lon="6.4916">
        <ele>472</ele>
        <time>2017-04-29T13:33:30.000Z</time>
      </trkpt>
      <trkpt lat="46.08479" lon="6.49197">
        <ele>471</ele>
        <time>2017-04-29T13:33:36.000Z</time>
      </trkpt>
      <trkpt lat="46.08487" lon="6.49203">
        <ele>471</ele>
        <time>2017-04-29T13:33:37.000Z</time>
      </trkpt>
      <trkpt lat="46.08543" lon="6.4924">
        <ele>476</ele>
        <time>2017-04-29T13:33:44.000Z</time>
      </trkpt>
      <trkpt lat="46.08597" lon="6.49281">
        <ele>477</ele>
        <time>2017-04-29T13:33:51.000Z</time>
      </trkpt>
      <trkpt lat="46.08605" lon="6.49288">
        <ele>477</ele>
        <time>2017-04-29T13:33:52.000Z</time>
      </trkpt>
      <trkpt lat="46.08651" lon="6.49333">
        <ele>477</ele>
        <time>2017-04-29T13:33:58.000Z</time>
      </trkpt>
      <trkpt lat="46.08702" lon="6.49383">
        <ele>476</ele>
        <time>2017-04-29T13:34:05.000Z</time>
      </trkpt>
      <trkpt lat="46.08748" lon="6.49425">
        <ele>473</ele>
        <time>2017-04-29T13:34:11.000Z</time>
      </trkpt>
      <trkpt lat="46.08782" lon="6.49468">
        <ele>476</ele>
        <time>2017-04-29T13:34:16.000Z</time>
      </trkpt>
      <trkpt lat="46.08812" lon="6.49537">
        <ele>473</ele>
        <time>2017-04-29T13:34:22.000Z</time>
      </trkpt>
      <trkpt lat="46.08841" lon="6.49607">
        <ele>472</ele>
        <time>2017-04-29T13:34:28.000Z</time>
      </trkpt>
      <trkpt lat="46.08854" lon="6.49641">
        <ele>472</ele>
        <time>2017-04-29T13:34:31.000Z</time>
      </trkpt>
      <trkpt lat="46.08881" lon="6.49708">
        <ele>472</ele>
        <time>2017-04-29T13:34:37.000Z</time>
      </trkpt>
      <trkpt lat="46.08912" lon="6.49786">
        <ele>472</ele>
        <time>2017-04-29T13:34:44.000Z</time>
      </trkpt>
      <trkpt lat="46.08943" lon="6.49862">
        <ele>473</ele>
        <time>2017-04-29T13:34:51.000Z</time>
      </trkpt>
      <trkpt lat="46.08967" lon="6.49923">
        <ele>473</ele>
        <time>2017-04-29T13:34:57.000Z</time>
      </trkpt>
      <trkpt lat="46.08996" lon="6.49993">
        <ele>473</ele>
        <time>2017-04-29T13:35:04.000Z</time>
      </trkpt>
      <trkpt lat="46.09006" lon="6.50025">
        <ele>474</ele>
        <time>2017-04-29T13:35:07.000Z</time>
      </trkpt>
      <trkpt lat="46.09011" lon="6.50045">
        <ele>475</ele>
        <time>2017-04-29T13:35:09.000Z</time>
      </trkpt>
      <trkpt lat="46.09032" lon="6.50067">
        <ele>475</ele>
        <time>2017-04-29T13:35:13.000Z</time>
      </trkpt>
      <trkpt lat="46.0904" lon="6.50063">
        <ele>475</ele>
        <time>2017-04-29T13:35:15.000Z</time>
      </trkpt>
      <trkpt lat="46.09066" lon="6.50045">
        <ele>475</ele>
        <time>2017-04-29T13:35:22.000Z</time>
      </trkpt>
      <trkpt lat="46.09071" lon="6.50044">
        <ele>475</ele>
        <time>2017-04-29T13:35:24.000Z</time>
      </trkpt>
      <trkpt lat="46.09061" lon="6.50042">
        <ele>475</ele>
        <time>2017-04-29T13:35:28.000Z</time>
      </trkpt>
      <trkpt lat="46.0903" lon="6.50076">
        <ele>475</ele>
        <time>2017-04-29T13:35:39.000Z</time>
      </trkpt>
      <trkpt lat="46.09035" lon="6.50089">
        <ele>474</ele>
        <time>2017-04-29T13:35:41.000Z</time>
      </trkpt>
      <trkpt lat="46.09068" lon="6.50162">
        <ele>475</ele>
        <time>2017-04-29T13:35:50.000Z</time>
      </trkpt>
      <trkpt lat="46.09079" lon="6.50187">
        <ele>474</ele>
        <time>2017-04-29T13:35:53.000Z</time>
      </trkpt>
      <trkpt lat="46.09096" lon="6.50229">
        <ele>476</ele>
        <time>2017-04-29T13:35:58.000Z</time>
      </trkpt>
      <trkpt lat="46.09107" lon="6.50237">
        <ele>476</ele>
        <time>2017-04-29T13:36:00.000Z</time>
      </trkpt>
      <trkpt lat="46.09119" lon="6.50235">
        <ele>477</ele>
        <time>2017-04-29T13:36:02.000Z</time>
      </trkpt>
      <trkpt lat="46.09145" lon="6.50209">
        <ele>478</ele>
        <time>2017-04-29T13:36:07.000Z</time>
      </trkpt>
      <trkpt lat="46.09165" lon="6.50186">
        <ele>478</ele>
        <time>2017-04-29T13:36:11.000Z</time>
      </trkpt>
      <trkpt lat="46.09171" lon="6.50172">
        <ele>480</ele>
        <time>2017-04-29T13:36:13.000Z</time>
      </trkpt>
      <trkpt lat="46.09179" lon="6.5014">
        <ele>485</ele>
        <time>2017-04-29T13:36:17.000Z</time>
      </trkpt>
      <trkpt lat="46.09186" lon="6.50111">
        <ele>487</ele>
        <time>2017-04-29T13:36:21.000Z</time>
      </trkpt>
      <trkpt lat="46.09191" lon="6.50089">
        <ele>487</ele>
        <time>2017-04-29T13:36:24.000Z</time>
      </trkpt>
      <trkpt lat="46.09196" lon="6.50068">
        <ele>491</ele>
        <time>2017-04-29T13:36:27.000Z</time>
      </trkpt>
      <trkpt lat="46.09201" lon="6.50048">
        <ele>492</ele>
        <time>2017-04-29T13:36:30.000Z</time>
      </trkpt>
      <trkpt lat="46.09201" lon="6.50041">
        <ele>493</ele>
        <time>2017-04-29T13:36:31.000Z</time>
      </trkpt>
      <trkpt lat="46.09201" lon="6.50034">
        <ele>493</ele>
        <time>2017-04-29T13:36:32.000Z</time>
      </trkpt>
      <trkpt lat="46.09195" lon="6.50004">
        <ele>491</ele>
        <time>2017-04-29T13:36:36.000Z</time>
      </trkpt>
      <trkpt lat="46.09189" lon="6.49965">
        <ele>495</ele>
        <time>2017-04-29T13:36:41.000Z</time>
      </trkpt>
      <trkpt lat="46.09189" lon="6.49949">
        <ele>496</ele>
        <time>2017-04-29T13:36:43.000Z</time>
      </trkpt>
      <trkpt lat="46.09186" lon="6.49918">
        <ele>494</ele>
        <time>2017-04-29T13:36:47.000Z</time>
      </trkpt>
      <trkpt lat="46.09183" lon="6.49904">
        <ele>498</ele>
        <time>2017-04-29T13:36:49.000Z</time>
      </trkpt>
      <trkpt lat="46.0918" lon="6.4989">
        <ele>499</ele>
        <time>2017-04-29T13:36:51.000Z</time>
      </trkpt>
      <trkpt lat="46.09182" lon="6.49879">
        <ele>501</ele>
        <time>2017-04-29T13:36:53.000Z</time>
      </trkpt>
      <trkpt lat="46.09191" lon="6.49876">
        <ele>502</ele>
        <time>2017-04-29T13:36:55.000Z</time>
      </trkpt>
      <trkpt lat="46.09199" lon="6.49883">
        <ele>503</ele>
        <time>2017-04-29T13:36:57.000Z</time>
      </trkpt>
      <trkpt lat="46.09201" lon="6.49889">
        <ele>503</ele>
        <time>2017-04-29T13:36:58.000Z</time>
      </trkpt>
      <trkpt lat="46.09202" lon="6.49896">
        <ele>503</ele>
        <time>2017-04-29T13:36:59.000Z</time>
      </trkpt>
      <trkpt lat="46.09203" lon="6.49911">
        <ele>503</ele>
        <time>2017-04-29T13:37:01.000Z</time>
      </trkpt>
      <trkpt lat="46.09206" lon="6.49932">
        <ele>499</ele>
        <time>2017-04-29T13:37:04.000Z</time>
      </trkpt>
      <trkpt lat="46.09213" lon="6.49952">
        <ele>499</ele>
        <time>2017-04-29T13:37:07.000Z</time>
      </trkpt>
      <trkpt lat="46.09215" lon="6.49958">
        <ele>499</ele>
        <time>2017-04-29T13:37:08.000Z</time>
      </trkpt>
      <trkpt lat="46.09228" lon="6.49982">
        <ele>501</ele>
        <time>2017-04-29T13:37:12.000Z</time>
      </trkpt>
      <trkpt lat="46.09245" lon="6.5001">
        <ele>503</ele>
        <time>2017-04-29T13:37:17.000Z</time>
      </trkpt>
      <trkpt lat="46.09248" lon="6.50016">
        <ele>502</ele>
        <time>2017-04-29T13:37:18.000Z</time>
      </trkpt>
      <trkpt lat="46.09253" lon="6.50029">
        <ele>520</ele>
        <time>2017-04-29T13:37:20.000Z</time>
      </trkpt>
      <trkpt lat="46.09258" lon="6.50049">
        <ele>520</ele>
        <time>2017-04-29T13:37:23.000Z</time>
      </trkpt>
      <trkpt lat="46.0926" lon="6.50062">
        <ele>518</ele>
        <time>2017-04-29T13:37:25.000Z</time>
      </trkpt>
      <trkpt lat="46.09264" lon="6.50082">
        <ele>515</ele>
        <time>2017-04-29T13:37:28.000Z</time>
      </trkpt>
      <trkpt lat="46.09271" lon="6.50115">
        <ele>516</ele>
        <time>2017-04-29T13:37:33.000Z</time>
      </trkpt>
      <trkpt lat="46.09278" lon="6.50141">
        <ele>515</ele>
        <time>2017-04-29T13:37:37.000Z</time>
      </trkpt>
      <trkpt lat="46.09282" lon="6.50154">
        <ele>515</ele>
        <time>2017-04-29T13:37:39.000Z</time>
      </trkpt>
      <trkpt lat="46.09289" lon="6.50172">
        <ele>509</ele>
        <time>2017-04-29T13:37:42.000Z</time>
      </trkpt>
      <trkpt lat="46.09297" lon="6.50196">
        <ele>510</ele>
        <time>2017-04-29T13:37:46.000Z</time>
      </trkpt>
      <trkpt lat="46.09303" lon="6.50214">
        <ele>509</ele>
        <time>2017-04-29T13:37:49.000Z</time>
      </trkpt>
      <trkpt lat="46.09311" lon="6.50237">
        <ele>510</ele>
        <time>2017-04-29T13:37:53.000Z</time>
      </trkpt>
      <trkpt lat="46.0932" lon="6.50253">
        <ele>508</ele>
        <time>2017-04-29T13:37:56.000Z</time>
      </trkpt>
      <trkpt lat="46.09329" lon="6.50269">
        <ele>507</ele>
        <time>2017-04-29T13:37:59.000Z</time>
      </trkpt>
      <trkpt lat="46.09334" lon="6.5028">
        <ele>521</ele>
        <time>2017-04-29T13:38:01.000Z</time>
      </trkpt>
      <trkpt lat="46.09337" lon="6.50285">
        <ele>521</ele>
        <time>2017-04-29T13:38:02.000Z</time>
      </trkpt>
      <trkpt lat="46.09344" lon="6.50301">
        <ele>521</ele>
        <time>2017-04-29T13:38:05.000Z</time>
      </trkpt>
      <trkpt lat="46.09351" lon="6.50318">
        <ele>519</ele>
        <time>2017-04-29T13:38:08.000Z</time>
      </trkpt>
      <trkpt lat="46.09361" lon="6.50341">
        <ele>515</ele>
        <time>2017-04-29T13:38:12.000Z</time>
      </trkpt>
      <trkpt lat="46.09363" lon="6.50346">
        <ele>516</ele>
        <time>2017-04-29T13:38:13.000Z</time>
      </trkpt>
      <trkpt lat="46.09369" lon="6.50357">
        <ele>517</ele>
        <time>2017-04-29T13:38:15.000Z</time>
      </trkpt>
      <trkpt lat="46.09378" lon="6.50373">
        <ele>518</ele>
        <time>2017-04-29T13:38:18.000Z</time>
      </trkpt>
      <trkpt lat="46.09389" lon="6.50394">
        <ele>518</ele>
        <time>2017-04-29T13:38:22.000Z</time>
      </trkpt>
      <trkpt lat="46.09397" lon="6.50411">
        <ele>520</ele>
        <time>2017-04-29T13:38:25.000Z</time>
      </trkpt>
      <trkpt lat="46.09405" lon="6.50427">
        <ele>517</ele>
        <time>2017-04-29T13:38:28.000Z</time>
      </trkpt>
      <trkpt lat="46.09415" lon="6.50451">
        <ele>514</ele>
        <time>2017-04-29T13:38:32.000Z</time>
      </trkpt>
      <trkpt lat="46.09421" lon="6.50469">
        <ele>530</ele>
        <time>2017-04-29T13:38:35.000Z</time>
      </trkpt>
      <trkpt lat="46.09429" lon="6.50495">
        <ele>526</ele>
        <time>2017-04-29T13:38:39.000Z</time>
      </trkpt>
      <trkpt lat="46.09433" lon="6.50506">
        <ele>522</ele>
        <time>2017-04-29T13:38:41.000Z</time>
      </trkpt>
      <trkpt lat="46.0944" lon="6.50514">
        <ele>523</ele>
        <time>2017-04-29T13:38:43.000Z</time>
      </trkpt>
      <trkpt lat="46.09449" lon="6.50515">
        <ele>524</ele>
        <time>2017-04-29T13:38:45.000Z</time>
      </trkpt>
      <trkpt lat="46.09456" lon="6.50507">
        <ele>526</ele>
        <time>2017-04-29T13:38:47.000Z</time>
      </trkpt>
      <trkpt lat="46.09457" lon="6.50494">
        <ele>533</ele>
        <time>2017-04-29T13:38:49.000Z</time>
      </trkpt>
      <trkpt lat="46.09455" lon="6.50488">
        <ele>533</ele>
        <time>2017-04-29T13:38:50.000Z</time>
      </trkpt>
      <trkpt lat="46.09451" lon="6.50474">
        <ele>533</ele>
        <time>2017-04-29T13:38:52.000Z</time>
      </trkpt>
      <trkpt lat="46.09444" lon="6.50454">
        <ele>534</ele>
        <time>2017-04-29T13:38:55.000Z</time>
      </trkpt>
      <trkpt lat="46.09441" lon="6.50426">
        <ele>533</ele>
        <time>2017-04-29T13:38:59.000Z</time>
      </trkpt>
      <trkpt lat="46.09439" lon="6.50407">
        <ele>539</ele>
        <time>2017-04-29T13:39:02.000Z</time>
      </trkpt>
      <trkpt lat="46.09435" lon="6.50379">
        <ele>542</ele>
        <time>2017-04-29T13:39:06.000Z</time>
      </trkpt>
      <trkpt lat="46.09431" lon="6.50353">
        <ele>542</ele>
        <time>2017-04-29T13:39:10.000Z</time>
      </trkpt>
      <trkpt lat="46.09428" lon="6.50334">
        <ele>540</ele>
        <time>2017-04-29T13:39:13.000Z</time>
      </trkpt>
      <trkpt lat="46.09424" lon="6.50314">
        <ele>549</ele>
        <time>2017-04-29T13:39:16.000Z</time>
      </trkpt>
      <trkpt lat="46.09422" lon="6.50308">
        <ele>551</ele>
        <time>2017-04-29T13:39:17.000Z</time>
      </trkpt>
      <trkpt lat="46.09415" lon="6.50285">
        <ele>533</ele>
        <time>2017-04-29T13:39:21.000Z</time>
      </trkpt>
      <trkpt lat="46.09408" lon="6.50267">
        <ele>537</ele>
        <time>2017-04-29T13:39:24.000Z</time>
      </trkpt>
      <trkpt lat="46.09399" lon="6.50245">
        <ele>545</ele>
        <time>2017-04-29T13:39:28.000Z</time>
      </trkpt>
      <trkpt lat="46.09394" lon="6.50233">
        <ele>544</ele>
        <time>2017-04-29T13:39:30.000Z</time>
      </trkpt>
      <trkpt lat="46.09384" lon="6.50212">
        <ele>544</ele>
        <time>2017-04-29T13:39:34.000Z</time>
      </trkpt>
      <trkpt lat="46.09375" lon="6.50198">
        <ele>544</ele>
        <time>2017-04-29T13:39:37.000Z</time>
      </trkpt>
      <trkpt lat="46.09372" lon="6.50192">
        <ele>544</ele>
        <time>2017-04-29T13:39:38.000Z</time>
      </trkpt>
      <trkpt lat="46.09365" lon="6.50175">
        <ele>544</ele>
        <time>2017-04-29T13:39:41.000Z</time>
      </trkpt>
      <trkpt lat="46.09358" lon="6.50157">
        <ele>552</ele>
        <time>2017-04-29T13:39:44.000Z</time>
      </trkpt>
      <trkpt lat="46.09355" lon="6.50145">
        <ele>553</ele>
        <time>2017-04-29T13:39:46.000Z</time>
      </trkpt>
      <trkpt lat="46.09352" lon="6.50139">
        <ele>553</ele>
        <time>2017-04-29T13:39:47.000Z</time>
      </trkpt>
      <trkpt lat="46.09342" lon="6.50119">
        <ele>554</ele>
        <time>2017-04-29T13:39:51.000Z</time>
      </trkpt>
      <trkpt lat="46.09338" lon="6.50108">
        <ele>553</ele>
        <time>2017-04-29T13:39:53.000Z</time>
      </trkpt>
      <trkpt lat="46.09336" lon="6.50102">
        <ele>552</ele>
        <time>2017-04-29T13:39:54.000Z</time>
      </trkpt>
      <trkpt lat="46.09334" lon="6.50097">
        <ele>551</ele>
        <time>2017-04-29T13:39:55.000Z</time>
      </trkpt>
      <trkpt lat="46.09335" lon="6.50084">
        <ele>547</ele>
        <time>2017-04-29T13:39:57.000Z</time>
      </trkpt>
      <trkpt lat="46.0934" lon="6.50074">
        <ele>555</ele>
        <time>2017-04-29T13:39:59.000Z</time>
      </trkpt>
      <trkpt lat="46.09348" lon="6.50072">
        <ele>559</ele>
        <time>2017-04-29T13:40:01.000Z</time>
      </trkpt>
      <trkpt lat="46.09357" lon="6.5008">
        <ele>562</ele>
        <time>2017-04-29T13:40:03.000Z</time>
      </trkpt>
      <trkpt lat="46.09364" lon="6.50089">
        <ele>558</ele>
        <time>2017-04-29T13:40:05.000Z</time>
      </trkpt>
      <trkpt lat="46.09367" lon="6.50095">
        <ele>559</ele>
        <time>2017-04-29T13:40:06.000Z</time>
      </trkpt>
      <trkpt lat="46.09379" lon="6.50116">
        <ele>562</ele>
        <time>2017-04-29T13:40:10.000Z</time>
      </trkpt>
      <trkpt lat="46.09389" lon="6.50131">
        <ele>563</ele>
        <time>2017-04-29T13:40:13.000Z</time>
      </trkpt>
      <trkpt lat="46.09398" lon="6.50145">
        <ele>564</ele>
        <time>2017-04-29T13:40:16.000Z</time>
      </trkpt>
      <trkpt lat="46.09407" lon="6.50161">
        <ele>568</ele>
        <time>2017-04-29T13:40:19.000Z</time>
      </trkpt>
      <trkpt lat="46.09417" lon="6.50176">
        <ele>563</ele>
        <time>2017-04-29T13:40:22.000Z</time>
      </trkpt>
      <trkpt lat="46.09426" lon="6.50191">
        <ele>576</ele>
        <time>2017-04-29T13:40:25.000Z</time>
      </trkpt>
      <trkpt lat="46.09438" lon="6.5021">
        <ele>576</ele>
        <time>2017-04-29T13:40:29.000Z</time>
      </trkpt>
      <trkpt lat="46.0945" lon="6.5023">
        <ele>575</ele>
        <time>2017-04-29T13:40:33.000Z</time>
      </trkpt>
      <trkpt lat="46.09456" lon="6.50241">
        <ele>576</ele>
        <time>2017-04-29T13:40:35.000Z</time>
      </trkpt>
      <trkpt lat="46.09459" lon="6.50246">
        <ele>577</ele>
        <time>2017-04-29T13:40:36.000Z</time>
      </trkpt>
      <trkpt lat="46.09467" lon="6.50261">
        <ele>567</ele>
        <time>2017-04-29T13:40:39.000Z</time>
      </trkpt>
      <trkpt lat="46.09481" lon="6.50288">
        <ele>567</ele>
        <time>2017-04-29T13:40:44.000Z</time>
      </trkpt>
      <trkpt lat="46.09489" lon="6.50304">
        <ele>567</ele>
        <time>2017-04-29T13:40:47.000Z</time>
      </trkpt>
      <trkpt lat="46.09499" lon="6.50321">
        <ele>569</ele>
        <time>2017-04-29T13:40:50.000Z</time>
      </trkpt>
      <trkpt lat="46.09511" lon="6.50341">
        <ele>576</ele>
        <time>2017-04-29T13:40:54.000Z</time>
      </trkpt>
      <trkpt lat="46.0952" lon="6.50355">
        <ele>578</ele>
        <time>2017-04-29T13:40:57.000Z</time>
      </trkpt>
      <trkpt lat="46.0953" lon="6.5037">
        <ele>579</ele>
        <time>2017-04-29T13:41:00.000Z</time>
      </trkpt>
      <trkpt lat="46.09542" lon="6.50389">
        <ele>579</ele>
        <time>2017-04-29T13:41:04.000Z</time>
      </trkpt>
      <trkpt lat="46.09555" lon="6.50408">
        <ele>581</ele>
        <time>2017-04-29T13:41:08.000Z</time>
      </trkpt>
      <trkpt lat="46.09565" lon="6.50422">
        <ele>573</ele>
        <time>2017-04-29T13:41:11.000Z</time>
      </trkpt>
      <trkpt lat="46.09568" lon="6.50427">
        <ele>573</ele>
        <time>2017-04-29T13:41:12.000Z</time>
      </trkpt>
      <trkpt lat="46.09578" lon="6.50439">
        <ele>572</ele>
        <time>2017-04-29T13:41:15.000Z</time>
      </trkpt>
      <trkpt lat="46.09588" lon="6.50451">
        <ele>583</ele>
        <time>2017-04-29T13:41:18.000Z</time>
      </trkpt>
      <trkpt lat="46.09598" lon="6.50462">
        <ele>582</ele>
        <time>2017-04-29T13:41:21.000Z</time>
      </trkpt>
      <trkpt lat="46.0961" lon="6.50472">
        <ele>582</ele>
        <time>2017-04-29T13:41:24.000Z</time>
      </trkpt>
      <trkpt lat="46.09626" lon="6.50483">
        <ele>583</ele>
        <time>2017-04-29T13:41:28.000Z</time>
      </trkpt>
      <trkpt lat="46.09646" lon="6.50497">
        <ele>585</ele>
        <time>2017-04-29T13:41:33.000Z</time>
      </trkpt>
      <trkpt lat="46.09658" lon="6.50505">
        <ele>578</ele>
        <time>2017-04-29T13:41:36.000Z</time>
      </trkpt>
      <trkpt lat="46.0967" lon="6.50512">
        <ele>582</ele>
        <time>2017-04-29T13:41:39.000Z</time>
      </trkpt>
      <trkpt lat="46.09679" lon="6.50515">
        <ele>580</ele>
        <time>2017-04-29T13:41:41.000Z</time>
      </trkpt>
      <trkpt lat="46.09683" lon="6.50515">
        <ele>579</ele>
        <time>2017-04-29T13:41:42.000Z</time>
      </trkpt>
      <trkpt lat="46.09692" lon="6.50515">
        <ele>579</ele>
        <time>2017-04-29T13:41:44.000Z</time>
      </trkpt>
      <trkpt lat="46.09701" lon="6.50513">
        <ele>579</ele>
        <time>2017-04-29T13:41:46.000Z</time>
      </trkpt>
      <trkpt lat="46.09705" lon="6.50511">
        <ele>579</ele>
        <time>2017-04-29T13:41:47.000Z</time>
      </trkpt>
      <trkpt lat="46.09714" lon="6.50505">
        <ele>580</ele>
        <time>2017-04-29T13:41:49.000Z</time>
      </trkpt>
      <trkpt lat="46.09729" lon="6.50487">
        <ele>593</ele>
        <time>2017-04-29T13:41:53.000Z</time>
      </trkpt>
      <trkpt lat="46.09742" lon="6.50468">
        <ele>594</ele>
        <time>2017-04-29T13:41:57.000Z</time>
      </trkpt>
      <trkpt lat="46.09752" lon="6.50456">
        <ele>597</ele>
        <time>2017-04-29T13:42:00.000Z</time>
      </trkpt>
      <trkpt lat="46.09759" lon="6.50449">
        <ele>597</ele>
        <time>2017-04-29T13:42:02.000Z</time>
      </trkpt>
      <trkpt lat="46.09767" lon="6.50445">
        <ele>598</ele>
        <time>2017-04-29T13:42:04.000Z</time>
      </trkpt>
      <trkpt lat="46.09776" lon="6.50444">
        <ele>598</ele>
        <time>2017-04-29T13:42:06.000Z</time>
      </trkpt>
      <trkpt lat="46.09785" lon="6.50443">
        <ele>598</ele>
        <time>2017-04-29T13:42:08.000Z</time>
      </trkpt>
      <trkpt lat="46.09797" lon="6.50442">
        <ele>598</ele>
        <time>2017-04-29T13:42:11.000Z</time>
      </trkpt>
      <trkpt lat="46.09805" lon="6.50441">
        <ele>598</ele>
        <time>2017-04-29T13:42:13.000Z</time>
      </trkpt>
      <trkpt lat="46.0981" lon="6.50439">
        <ele>598</ele>
        <time>2017-04-29T13:42:14.000Z</time>
      </trkpt>
      <trkpt lat="46.09814" lon="6.50436">
        <ele>599</ele>
        <time>2017-04-29T13:42:15.000Z</time>
      </trkpt>
      <trkpt lat="46.09826" lon="6.50426">
        <ele>600</ele>
        <time>2017-04-29T13:42:18.000Z</time>
      </trkpt>
      <trkpt lat="46.0983" lon="6.50423">
        <ele>601</ele>
        <time>2017-04-29T13:42:19.000Z</time>
      </trkpt>
      <trkpt lat="46.09839" lon="6.50419">
        <ele>602</ele>
        <time>2017-04-29T13:42:21.000Z</time>
      </trkpt>
      <trkpt lat="46.0987" lon="6.50419">
        <ele>600</ele>
        <time>2017-04-29T13:42:27.000Z</time>
      </trkpt>
      <trkpt lat="46.09899" lon="6.50424">
        <ele>602</ele>
        <time>2017-04-29T13:42:33.000Z</time>
      </trkpt>
      <trkpt lat="46.0992" lon="6.50431">
        <ele>603</ele>
        <time>2017-04-29T13:42:37.000Z</time>
      </trkpt>
      <trkpt lat="46.09935" lon="6.50435">
        <ele>601</ele>
        <time>2017-04-29T13:42:40.000Z</time>
      </trkpt>
      <trkpt lat="46.0994" lon="6.50434">
        <ele>601</ele>
        <time>2017-04-29T13:42:41.000Z</time>
      </trkpt>
      <trkpt lat="46.09968" lon="6.50425">
        <ele>600</ele>
        <time>2017-04-29T13:42:46.000Z</time>
      </trkpt>
      <trkpt lat="46.10017" lon="6.5039">
        <ele>605</ele>
        <time>2017-04-29T13:42:55.000Z</time>
      </trkpt>
      <trkpt lat="46.10028" lon="6.50381">
        <ele>605</ele>
        <time>2017-04-29T13:42:57.000Z</time>
      </trkpt>
      <trkpt lat="46.10051" lon="6.50367">
        <ele>605</ele>
        <time>2017-04-29T13:43:01.000Z</time>
      </trkpt>
      <trkpt lat="46.10074" lon="6.50355">
        <ele>605</ele>
        <time>2017-04-29T13:43:05.000Z</time>
      </trkpt>
      <trkpt lat="46.10084" lon="6.50344">
        <ele>604</ele>
        <time>2017-04-29T13:43:07.000Z</time>
      </trkpt>
      <trkpt lat="46.10087" lon="6.50336">
        <ele>605</ele>
        <time>2017-04-29T13:43:08.000Z</time>
      </trkpt>
      <trkpt lat="46.10102" lon="6.50268">
        <ele>609</ele>
        <time>2017-04-29T13:43:15.000Z</time>
      </trkpt>
      <trkpt lat="46.10111" lon="6.50252">
        <ele>609</ele>
        <time>2017-04-29T13:43:17.000Z</time>
      </trkpt>
      <trkpt lat="46.10135" lon="6.5023">
        <ele>615</ele>
        <time>2017-04-29T13:43:21.000Z</time>
      </trkpt>
      <trkpt lat="46.10178" lon="6.50194">
        <ele>613</ele>
        <time>2017-04-29T13:43:28.000Z</time>
      </trkpt>
      <trkpt lat="46.10229" lon="6.50156">
        <ele>619</ele>
        <time>2017-04-29T13:43:36.000Z</time>
      </trkpt>
      <trkpt lat="46.10248" lon="6.50145">
        <ele>619</ele>
        <time>2017-04-29T13:43:39.000Z</time>
      </trkpt>
      <trkpt lat="46.10255" lon="6.50142">
        <ele>616</ele>
        <time>2017-04-29T13:43:40.000Z</time>
      </trkpt>
      <trkpt lat="46.10274" lon="6.50136">
        <ele>617</ele>
        <time>2017-04-29T13:43:43.000Z</time>
      </trkpt>
      <trkpt lat="46.10281" lon="6.50134">
        <ele>617</ele>
        <time>2017-04-29T13:43:44.000Z</time>
      </trkpt>
      <trkpt lat="46.10293" lon="6.50131">
        <ele>617</ele>
        <time>2017-04-29T13:43:46.000Z</time>
      </trkpt>
      <trkpt lat="46.10336" lon="6.50116">
        <ele>615</ele>
        <time>2017-04-29T13:43:53.000Z</time>
      </trkpt>
      <trkpt lat="46.10387" lon="6.50087">
        <ele>614</ele>
        <time>2017-04-29T13:44:01.000Z</time>
      </trkpt>
      <trkpt lat="46.10393" lon="6.50083">
        <ele>620</ele>
        <time>2017-04-29T13:44:02.000Z</time>
      </trkpt>
      <trkpt lat="46.10418" lon="6.50066">
        <ele>617</ele>
        <time>2017-04-29T13:44:06.000Z</time>
      </trkpt>
      <trkpt lat="46.10471" lon="6.50041">
        <ele>619</ele>
        <time>2017-04-29T13:44:14.000Z</time>
      </trkpt>
      <trkpt lat="46.10478" lon="6.50039">
        <ele>619</ele>
        <time>2017-04-29T13:44:15.000Z</time>
      </trkpt>
      <trkpt lat="46.10532" lon="6.50028">
        <ele>616</ele>
        <time>2017-04-29T13:44:23.000Z</time>
      </trkpt>
      <trkpt lat="46.10552" lon="6.50024">
        <ele>616</ele>
        <time>2017-04-29T13:44:26.000Z</time>
      </trkpt>
      <trkpt lat="46.10564" lon="6.50021">
        <ele>616</ele>
        <time>2017-04-29T13:44:28.000Z</time>
      </trkpt>
      <trkpt lat="46.10577" lon="6.50018">
        <ele>617</ele>
        <time>2017-04-29T13:44:30.000Z</time>
      </trkpt>
      <trkpt lat="46.10588" lon="6.50009">
        <ele>616</ele>
        <time>2017-04-29T13:44:32.000Z</time>
      </trkpt>
      <trkpt lat="46.10594" lon="6.49994">
        <ele>619</ele>
        <time>2017-04-29T13:44:34.000Z</time>
      </trkpt>
      <trkpt lat="46.10599" lon="6.49956">
        <ele>621</ele>
        <time>2017-04-29T13:44:38.000Z</time>
      </trkpt>
      <trkpt lat="46.10599" lon="6.49927">
        <ele>623</ele>
        <time>2017-04-29T13:44:41.000Z</time>
      </trkpt>
      <trkpt lat="46.10606" lon="6.49911">
        <ele>628</ele>
        <time>2017-04-29T13:44:43.000Z</time>
      </trkpt>
      <trkpt lat="46.10618" lon="6.49903">
        <ele>628</ele>
        <time>2017-04-29T13:44:45.000Z</time>
      </trkpt>
      <trkpt lat="46.10631" lon="6.49903">
        <ele>627</ele>
        <time>2017-04-29T13:44:47.000Z</time>
      </trkpt>
      <trkpt lat="46.10637" lon="6.49907">
        <ele>627</ele>
        <time>2017-04-29T13:44:48.000Z</time>
      </trkpt>
      <trkpt lat="46.10643" lon="6.49913">
        <ele>626</ele>
        <time>2017-04-29T13:44:49.000Z</time>
      </trkpt>
      <trkpt lat="46.10656" lon="6.49936">
        <ele>620</ele>
        <time>2017-04-29T13:44:52.000Z</time>
      </trkpt>
      <trkpt lat="46.10665" lon="6.49951">
        <ele>619</ele>
        <time>2017-04-29T13:44:54.000Z</time>
      </trkpt>
      <trkpt lat="46.10677" lon="6.4996">
        <ele>617</ele>
        <time>2017-04-29T13:44:56.000Z</time>
      </trkpt>
      <trkpt lat="46.1069" lon="6.49958">
        <ele>617</ele>
        <time>2017-04-29T13:44:58.000Z</time>
      </trkpt>
      <trkpt lat="46.10736" lon="6.49916">
        <ele>622</ele>
        <time>2017-04-29T13:45:06.000Z</time>
      </trkpt>
      <trkpt lat="46.10759" lon="6.49894">
        <ele>620</ele>
        <time>2017-04-29T13:45:10.000Z</time>
      </trkpt>
      <trkpt lat="46.10809" lon="6.49846">
        <ele>617</ele>
        <time>2017-04-29T13:45:18.000Z</time>
      </trkpt>
      <trkpt lat="46.10832" lon="6.49828">
        <ele>617</ele>
        <time>2017-04-29T13:45:21.000Z</time>
      </trkpt>
      <trkpt lat="46.10854" lon="6.49807">
        <ele>618</ele>
        <time>2017-04-29T13:45:24.000Z</time>
      </trkpt>
      <trkpt lat="46.1087" lon="6.49791">
        <ele>618</ele>
        <time>2017-04-29T13:45:26.000Z</time>
      </trkpt>
      <trkpt lat="46.10894" lon="6.49769">
        <ele>619</ele>
        <time>2017-04-29T13:45:29.000Z</time>
      </trkpt>
      <trkpt lat="46.10917" lon="6.49747">
        <ele>621</ele>
        <time>2017-04-29T13:45:32.000Z</time>
      </trkpt>
      <trkpt lat="46.1095" lon="6.49725">
        <ele>626</ele>
        <time>2017-04-29T13:45:36.000Z</time>
      </trkpt>
      <trkpt lat="46.10983" lon="6.49716">
        <ele>625</ele>
        <time>2017-04-29T13:45:40.000Z</time>
      </trkpt>
      <trkpt lat="46.11039" lon="6.49702">
        <ele>615</ele>
        <time>2017-04-29T13:45:47.000Z</time>
      </trkpt>
      <trkpt lat="46.11046" lon="6.49697">
        <ele>615</ele>
        <time>2017-04-29T13:45:48.000Z</time>
      </trkpt>
      <trkpt lat="46.11083" lon="6.49672">
        <ele>612</ele>
        <time>2017-04-29T13:45:53.000Z</time>
      </trkpt>
      <trkpt lat="46.11107" lon="6.49657">
        <ele>617</ele>
        <time>2017-04-29T13:45:56.000Z</time>
      </trkpt>
      <trkpt lat="46.11142" lon="6.49635">
        <ele>616</ele>
        <time>2017-04-29T13:46:00.000Z</time>
      </trkpt>
      <trkpt lat="46.11167" lon="6.49618">
        <ele>607</ele>
        <time>2017-04-29T13:46:03.000Z</time>
      </trkpt>
      <trkpt lat="46.11183" lon="6.49606">
        <ele>608</ele>
        <time>2017-04-29T13:46:05.000Z</time>
      </trkpt>
      <trkpt lat="46.11198" lon="6.49597">
        <ele>607</ele>
        <time>2017-04-29T13:46:07.000Z</time>
      </trkpt>
      <trkpt lat="46.1123" lon="6.49582">
        <ele>614</ele>
        <time>2017-04-29T13:46:11.000Z</time>
      </trkpt>
      <trkpt lat="46.11262" lon="6.49574">
        <ele>605</ele>
        <time>2017-04-29T13:46:15.000Z</time>
      </trkpt>
      <trkpt lat="46.11305" lon="6.49569">
        <ele>602</ele>
        <time>2017-04-29T13:46:20.000Z</time>
      </trkpt>
      <trkpt lat="46.11349" lon="6.49551">
        <ele>594</ele>
        <time>2017-04-29T13:46:25.000Z</time>
      </trkpt>
      <trkpt lat="46.11367" lon="6.49542">
        <ele>594</ele>
        <time>2017-04-29T13:46:27.000Z</time>
      </trkpt>
      <trkpt lat="46.11386" lon="6.49533">
        <ele>593</ele>
        <time>2017-04-29T13:46:29.000Z</time>
      </trkpt>
      <trkpt lat="46.11413" lon="6.49519">
        <ele>594</ele>
        <time>2017-04-29T13:46:32.000Z</time>
      </trkpt>
      <trkpt lat="46.1143" lon="6.49509">
        <ele>588</ele>
        <time>2017-04-29T13:46:34.000Z</time>
      </trkpt>
      <trkpt lat="46.11452" lon="6.49487">
        <ele>593</ele>
        <time>2017-04-29T13:46:37.000Z</time>
      </trkpt>
      <trkpt lat="46.11482" lon="6.49458">
        <ele>593</ele>
        <time>2017-04-29T13:46:41.000Z</time>
      </trkpt>
      <trkpt lat="46.11508" lon="6.49419">
        <ele>589</ele>
        <time>2017-04-29T13:46:45.000Z</time>
      </trkpt>
      <trkpt lat="46.11529" lon="6.49389">
        <ele>593</ele>
        <time>2017-04-29T13:46:48.000Z</time>
      </trkpt>
      <trkpt lat="46.11537" lon="6.49381">
        <ele>593</ele>
        <time>2017-04-29T13:46:49.000Z</time>
      </trkpt>
      <trkpt lat="46.11546" lon="6.49376">
        <ele>593</ele>
        <time>2017-04-29T13:46:50.000Z</time>
      </trkpt>
      <trkpt lat="46.11601" lon="6.49336">
        <ele>583</ele>
        <time>2017-04-29T13:46:57.000Z</time>
      </trkpt>
      <trkpt lat="46.11629" lon="6.49313">
        <ele>590</ele>
        <time>2017-04-29T13:47:01.000Z</time>
      </trkpt>
      <trkpt lat="46.11673" lon="6.49266">
        <ele>587</ele>
        <time>2017-04-29T13:47:08.000Z</time>
      </trkpt>
      <trkpt lat="46.11708" lon="6.49218">
        <ele>590</ele>
        <time>2017-04-29T13:47:14.000Z</time>
      </trkpt>
      <trkpt lat="46.11751" lon="6.49172">
        <ele>586</ele>
        <time>2017-04-29T13:47:21.000Z</time>
      </trkpt>
      <trkpt lat="46.11775" lon="6.49151">
        <ele>586</ele>
        <time>2017-04-29T13:47:25.000Z</time>
      </trkpt>
      <trkpt lat="46.11783" lon="6.49135">
        <ele>586</ele>
        <time>2017-04-29T13:47:27.000Z</time>
      </trkpt>
      <trkpt lat="46.11806" lon="6.4906">
        <ele>597</ele>
        <time>2017-04-29T13:47:34.000Z</time>
      </trkpt>
      <trkpt lat="46.11855" lon="6.49008">
        <ele>594</ele>
        <time>2017-04-29T13:47:41.000Z</time>
      </trkpt>
      <trkpt lat="46.11872" lon="6.49002">
        <ele>591</ele>
        <time>2017-04-29T13:47:43.000Z</time>
      </trkpt>
      <trkpt lat="46.1188" lon="6.49004">
        <ele>590</ele>
        <time>2017-04-29T13:47:44.000Z</time>
      </trkpt>
      <trkpt lat="46.11921" lon="6.49021">
        <ele>585</ele>
        <time>2017-04-29T13:47:49.000Z</time>
      </trkpt>
      <trkpt lat="46.11937" lon="6.49019">
        <ele>585</ele>
        <time>2017-04-29T13:47:51.000Z</time>
      </trkpt>
      <trkpt lat="46.11987" lon="6.48999">
        <ele>592</ele>
        <time>2017-04-29T13:47:59.000Z</time>
      </trkpt>
      <trkpt lat="46.12005" lon="6.48988">
        <ele>589</ele>
        <time>2017-04-29T13:48:02.000Z</time>
      </trkpt>
      <trkpt lat="46.1203" lon="6.4897">
        <ele>589</ele>
        <time>2017-04-29T13:48:06.000Z</time>
      </trkpt>
      <trkpt lat="46.12083" lon="6.48929">
        <ele>589</ele>
        <time>2017-04-29T13:48:15.000Z</time>
      </trkpt>
      <trkpt lat="46.12117" lon="6.48904">
        <ele>588</ele>
        <time>2017-04-29T13:48:20.000Z</time>
      </trkpt>
      <trkpt lat="46.12153" lon="6.48874">
        <ele>587</ele>
        <time>2017-04-29T13:48:25.000Z</time>
      </trkpt>
      <trkpt lat="46.12186" lon="6.48822">
        <ele>585</ele>
        <time>2017-04-29T13:48:31.000Z</time>
      </trkpt>
      <trkpt lat="46.12203" lon="6.48773">
        <ele>584</ele>
        <time>2017-04-29T13:48:36.000Z</time>
      </trkpt>
      <trkpt lat="46.12224" lon="6.487">
        <ele>588</ele>
        <time>2017-04-29T13:48:43.000Z</time>
      </trkpt>
      <trkpt lat="46.12243" lon="6.48626">
        <ele>592</ele>
        <time>2017-04-29T13:48:49.000Z</time>
      </trkpt>
      <trkpt lat="46.12247" lon="6.48615">
        <ele>592</ele>
        <time>2017-04-29T13:48:50.000Z</time>
      </trkpt>
      <trkpt lat="46.12253" lon="6.48605">
        <ele>584</ele>
        <time>2017-04-29T13:48:51.000Z</time>
      </trkpt>
      <trkpt lat="46.12265" lon="6.48589">
        <ele>584</ele>
        <time>2017-04-29T13:48:53.000Z</time>
      </trkpt>
      <trkpt lat="46.12313" lon="6.48542">
        <ele>590</ele>
        <time>2017-04-29T13:49:01.000Z</time>
      </trkpt>
      <trkpt lat="46.12328" lon="6.48526">
        <ele>590</ele>
        <time>2017-04-29T13:49:04.000Z</time>
      </trkpt>
      <trkpt lat="46.12348" lon="6.48504">
        <ele>588</ele>
        <time>2017-04-29T13:49:08.000Z</time>
      </trkpt>
      <trkpt lat="46.12362" lon="6.48486">
        <ele>594</ele>
        <time>2017-04-29T13:49:11.000Z</time>
      </trkpt>
      <trkpt lat="46.12375" lon="6.48466">
        <ele>594</ele>
        <time>2017-04-29T13:49:14.000Z</time>
      </trkpt>
      <trkpt lat="46.12381" lon="6.48453">
        <ele>595</ele>
        <time>2017-04-29T13:49:16.000Z</time>
      </trkpt>
      <trkpt lat="46.12385" lon="6.48448">
        <ele>595</ele>
        <time>2017-04-29T13:49:17.000Z</time>
      </trkpt>
      <trkpt lat="46.12389" lon="6.48442">
        <ele>595</ele>
        <time>2017-04-29T13:49:18.000Z</time>
      </trkpt>
      <trkpt lat="46.12394" lon="6.48437">
        <ele>595</ele>
        <time>2017-04-29T13:49:19.000Z</time>
      </trkpt>
      <trkpt lat="46.12404" lon="6.48429">
        <ele>595</ele>
        <time>2017-04-29T13:49:21.000Z</time>
      </trkpt>
      <trkpt lat="46.12436" lon="6.48401">
        <ele>595</ele>
        <time>2017-04-29T13:49:27.000Z</time>
      </trkpt>
      <trkpt lat="46.12457" lon="6.48378">
        <ele>595</ele>
        <time>2017-04-29T13:49:31.000Z</time>
      </trkpt>
      <trkpt lat="46.12462" lon="6.48371">
        <ele>595</ele>
        <time>2017-04-29T13:49:32.000Z</time>
      </trkpt>
      <trkpt lat="46.12487" lon="6.48307">
        <ele>602</ele>
        <time>2017-04-29T13:49:40.000Z</time>
      </trkpt>
      <trkpt lat="46.12491" lon="6.483">
        <ele>603</ele>
        <time>2017-04-29T13:49:41.000Z</time>
      </trkpt>
      <trkpt lat="46.12513" lon="6.48273">
        <ele>595</ele>
        <time>2017-04-29T13:49:46.000Z</time>
      </trkpt>
      <trkpt lat="46.1256" lon="6.48223">
        <ele>598</ele>
        <time>2017-04-29T13:49:54.000Z</time>
      </trkpt>
      <trkpt lat="46.12572" lon="6.48206">
        <ele>598</ele>
        <time>2017-04-29T13:49:56.000Z</time>
      </trkpt>
      <trkpt lat="46.12596" lon="6.48172">
        <ele>591</ele>
        <time>2017-04-29T13:50:00.000Z</time>
      </trkpt>
      <trkpt lat="46.12608" lon="6.48155">
        <ele>591</ele>
        <time>2017-04-29T13:50:02.000Z</time>
      </trkpt>
      <trkpt lat="46.12614" lon="6.48145">
        <ele>590</ele>
        <time>2017-04-29T13:50:03.000Z</time>
      </trkpt>
      <trkpt lat="46.12624" lon="6.48122">
        <ele>590</ele>
        <time>2017-04-29T13:50:05.000Z</time>
      </trkpt>
      <trkpt lat="46.12633" lon="6.48098">
        <ele>590</ele>
        <time>2017-04-29T13:50:07.000Z</time>
      </trkpt>
      <trkpt lat="46.12643" lon="6.48075">
        <ele>594</ele>
        <time>2017-04-29T13:50:09.000Z</time>
      </trkpt>
      <trkpt lat="46.12673" lon="6.4803">
        <ele>584</ele>
        <time>2017-04-29T13:50:14.000Z</time>
      </trkpt>
      <trkpt lat="46.12697" lon="6.47995">
        <ele>588</ele>
        <time>2017-04-29T13:50:18.000Z</time>
      </trkpt>
      <trkpt lat="46.12718" lon="6.47969">
        <ele>586</ele>
        <time>2017-04-29T13:50:21.000Z</time>
      </trkpt>
      <trkpt lat="46.12747" lon="6.47931">
        <ele>585</ele>
        <time>2017-04-29T13:50:25.000Z</time>
      </trkpt>
      <trkpt lat="46.12762" lon="6.4791">
        <ele>584</ele>
        <time>2017-04-29T13:50:27.000Z</time>
      </trkpt>
      <trkpt lat="46.12785" lon="6.47879">
        <ele>585</ele>
        <time>2017-04-29T13:50:30.000Z</time>
      </trkpt>
      <trkpt lat="46.12808" lon="6.47852">
        <ele>585</ele>
        <time>2017-04-29T13:50:33.000Z</time>
      </trkpt>
      <trkpt lat="46.12856" lon="6.478">
        <ele>590</ele>
        <time>2017-04-29T13:50:40.000Z</time>
      </trkpt>
      <trkpt lat="46.12862" lon="6.47793">
        <ele>591</ele>
        <time>2017-04-29T13:50:41.000Z</time>
      </trkpt>
      <trkpt lat="46.12874" lon="6.47781">
        <ele>591</ele>
        <time>2017-04-29T13:50:43.000Z</time>
      </trkpt>
      <trkpt lat="46.1289" lon="6.47761">
        <ele>592</ele>
        <time>2017-04-29T13:50:46.000Z</time>
      </trkpt>
      <trkpt lat="46.12905" lon="6.47741">
        <ele>598</ele>
        <time>2017-04-29T13:50:49.000Z</time>
      </trkpt>
      <trkpt lat="46.12926" lon="6.47713">
        <ele>591</ele>
        <time>2017-04-29T13:50:53.000Z</time>
      </trkpt>
      <trkpt lat="46.12949" lon="6.47685">
        <ele>591</ele>
        <time>2017-04-29T13:50:57.000Z</time>
      </trkpt>
      <trkpt lat="46.12991" lon="6.47631">
        <ele>596</ele>
        <time>2017-04-29T13:51:04.000Z</time>
      </trkpt>
      <trkpt lat="46.13009" lon="6.47612">
        <ele>593</ele>
        <time>2017-04-29T13:51:07.000Z</time>
      </trkpt>
      <trkpt lat="46.13016" lon="6.47608">
        <ele>593</ele>
        <time>2017-04-29T13:51:08.000Z</time>
      </trkpt>
      <trkpt lat="46.13058" lon="6.47595">
        <ele>593</ele>
        <time>2017-04-29T13:51:14.000Z</time>
      </trkpt>
      <trkpt lat="46.13092" lon="6.4759">
        <ele>594</ele>
        <time>2017-04-29T13:51:19.000Z</time>
      </trkpt>
      <trkpt lat="46.13124" lon="6.47587">
        <ele>594</ele>
        <time>2017-04-29T13:51:24.000Z</time>
      </trkpt>
      <trkpt lat="46.13162" lon="6.47584">
        <ele>599</ele>
        <time>2017-04-29T13:51:30.000Z</time>
      </trkpt>
      <trkpt lat="46.13218" lon="6.47579">
        <ele>610</ele>
        <time>2017-04-29T13:51:38.000Z</time>
      </trkpt>
      <trkpt lat="46.13279" lon="6.47566">
        <ele>609</ele>
        <time>2017-04-29T13:51:46.000Z</time>
      </trkpt>
      <trkpt lat="46.13294" lon="6.47557">
        <ele>609</ele>
        <time>2017-04-29T13:51:48.000Z</time>
      </trkpt>
      <trkpt lat="46.1332" lon="6.47533">
        <ele>613</ele>
        <time>2017-04-29T13:51:52.000Z</time>
      </trkpt>
      <trkpt lat="46.13334" lon="6.47526">
        <ele>608</ele>
        <time>2017-04-29T13:51:54.000Z</time>
      </trkpt>
      <trkpt lat="46.13349" lon="6.47529">
        <ele>606</ele>
        <time>2017-04-29T13:51:56.000Z</time>
      </trkpt>
      <trkpt lat="46.13364" lon="6.4754">
        <ele>603</ele>
        <time>2017-04-29T13:51:58.000Z</time>
      </trkpt>
      <trkpt lat="46.13385" lon="6.4756">
        <ele>598</ele>
        <time>2017-04-29T13:52:01.000Z</time>
      </trkpt>
      <trkpt lat="46.13401" lon="6.47563">
        <ele>596</ele>
        <time>2017-04-29T13:52:03.000Z</time>
      </trkpt>
      <trkpt lat="46.13455" lon="6.47542">
        <ele>592</ele>
        <time>2017-04-29T13:52:10.000Z</time>
      </trkpt>
      <trkpt lat="46.13484" lon="6.47532">
        <ele>592</ele>
        <time>2017-04-29T13:52:14.000Z</time>
      </trkpt>
      <trkpt lat="46.13506" lon="6.47532">
        <ele>581</ele>
        <time>2017-04-29T13:52:17.000Z</time>
      </trkpt>
      <trkpt lat="46.1352" lon="6.47535">
        <ele>578</ele>
        <time>2017-04-29T13:52:19.000Z</time>
      </trkpt>
      <trkpt lat="46.13526" lon="6.47534">
        <ele>577</ele>
        <time>2017-04-29T13:52:20.000Z</time>
      </trkpt>
      <trkpt lat="46.13532" lon="6.47529">
        <ele>577</ele>
        <time>2017-04-29T13:52:21.000Z</time>
      </trkpt>
      <trkpt lat="46.13535" lon="6.47509">
        <ele>578</ele>
        <time>2017-04-29T13:52:23.000Z</time>
      </trkpt>
      <trkpt lat="46.13526" lon="6.47477">
        <ele>582</ele>
        <time>2017-04-29T13:52:26.000Z</time>
      </trkpt>
      <trkpt lat="46.13517" lon="6.47454">
        <ele>581</ele>
        <time>2017-04-29T13:52:28.000Z</time>
      </trkpt>
      <trkpt lat="46.13506" lon="6.47431">
        <ele>584</ele>
        <time>2017-04-29T13:52:30.000Z</time>
      </trkpt>
      <trkpt lat="46.135" lon="6.47421">
        <ele>587</ele>
        <time>2017-04-29T13:52:31.000Z</time>
      </trkpt>
      <trkpt lat="46.13493" lon="6.4741">
        <ele>589</ele>
        <time>2017-04-29T13:52:32.000Z</time>
      </trkpt>
      <trkpt lat="46.13486" lon="6.47399">
        <ele>590</ele>
        <time>2017-04-29T13:52:33.000Z</time>
      </trkpt>
      <trkpt lat="46.13472" lon="6.47377">
        <ele>589</ele>
        <time>2017-04-29T13:52:35.000Z</time>
      </trkpt>
      <trkpt lat="46.13465" lon="6.47365">
        <ele>588</ele>
        <time>2017-04-29T13:52:36.000Z</time>
      </trkpt>
      <trkpt lat="46.13459" lon="6.47353">
        <ele>588</ele>
        <time>2017-04-29T13:52:37.000Z</time>
      </trkpt>
      <trkpt lat="46.13451" lon="6.47343">
        <ele>588</ele>
        <time>2017-04-29T13:52:38.000Z</time>
      </trkpt>
      <trkpt lat="46.13432" lon="6.47329">
        <ele>582</ele>
        <time>2017-04-29T13:52:40.000Z</time>
      </trkpt>
      <trkpt lat="46.13411" lon="6.47317">
        <ele>593</ele>
        <time>2017-04-29T13:52:42.000Z</time>
      </trkpt>
      <trkpt lat="46.13391" lon="6.473">
        <ele>593</ele>
        <time>2017-04-29T13:52:44.000Z</time>
      </trkpt>
      <trkpt lat="46.13381" lon="6.47289">
        <ele>594</ele>
        <time>2017-04-29T13:52:45.000Z</time>
      </trkpt>
      <trkpt lat="46.13374" lon="6.47276">
        <ele>594</ele>
        <time>2017-04-29T13:52:46.000Z</time>
      </trkpt>
      <trkpt lat="46.13368" lon="6.4726">
        <ele>594</ele>
        <time>2017-04-29T13:52:47.000Z</time>
      </trkpt>
      <trkpt lat="46.13365" lon="6.47243">
        <ele>586</ele>
        <time>2017-04-29T13:52:48.000Z</time>
      </trkpt>
      <trkpt lat="46.13363" lon="6.47225">
        <ele>585</ele>
        <time>2017-04-29T13:52:49.000Z</time>
      </trkpt>
      <trkpt lat="46.13363" lon="6.47206">
        <ele>583</ele>
        <time>2017-04-29T13:52:50.000Z</time>
      </trkpt>
      <trkpt lat="46.13364" lon="6.47187">
        <ele>581</ele>
        <time>2017-04-29T13:52:51.000Z</time>
      </trkpt>
      <trkpt lat="46.13368" lon="6.4715">
        <ele>573</ele>
        <time>2017-04-29T13:52:53.000Z</time>
      </trkpt>
      <trkpt lat="46.13371" lon="6.47113">
        <ele>571</ele>
        <time>2017-04-29T13:52:55.000Z</time>
      </trkpt>
      <trkpt lat="46.13372" lon="6.47095">
        <ele>570</ele>
        <time>2017-04-29T13:52:56.000Z</time>
      </trkpt>
      <trkpt lat="46.13375" lon="6.47059">
        <ele>566</ele>
        <time>2017-04-29T13:52:58.000Z</time>
      </trkpt>
      <trkpt lat="46.13378" lon="6.47025">
        <ele>565</ele>
        <time>2017-04-29T13:53:00.000Z</time>
      </trkpt>
      <trkpt lat="46.1338" lon="6.46993">
        <ele>563</ele>
        <time>2017-04-29T13:53:02.000Z</time>
      </trkpt>
      <trkpt lat="46.13381" lon="6.46979">
        <ele>563</ele>
        <time>2017-04-29T13:53:03.000Z</time>
      </trkpt>
      <trkpt lat="46.13384" lon="6.46966">
        <ele>562</ele>
        <time>2017-04-29T13:53:04.000Z</time>
      </trkpt>
      <trkpt lat="46.13388" lon="6.46954">
        <ele>562</ele>
        <time>2017-04-29T13:53:05.000Z</time>
      </trkpt>
      <trkpt lat="46.13392" lon="6.46943">
        <ele>561</ele>
        <time>2017-04-29T13:53:06.000Z</time>
      </trkpt>
      <trkpt lat="46.13396" lon="6.46934">
        <ele>560</ele>
        <time>2017-04-29T13:53:07.000Z</time>
      </trkpt>
      <trkpt lat="46.13401" lon="6.46927">
        <ele>559</ele>
        <time>2017-04-29T13:53:08.000Z</time>
      </trkpt>
      <trkpt lat="46.13406" lon="6.46921">
        <ele>558</ele>
        <time>2017-04-29T13:53:09.000Z</time>
      </trkpt>
      <trkpt lat="46.13413" lon="6.46917">
        <ele>557</ele>
        <time>2017-04-29T13:53:10.000Z</time>
      </trkpt>
      <trkpt lat="46.13419" lon="6.46914">
        <ele>556</ele>
        <time>2017-04-29T13:53:11.000Z</time>
      </trkpt>
      <trkpt lat="46.13426" lon="6.46912">
        <ele>555</ele>
        <time>2017-04-29T13:53:12.000Z</time>
      </trkpt>
      <trkpt lat="46.13433" lon="6.46914">
        <ele>554</ele>
        <time>2017-04-29T13:53:13.000Z</time>
      </trkpt>
      <trkpt lat="46.1344" lon="6.46916">
        <ele>554</ele>
        <time>2017-04-29T13:53:14.000Z</time>
      </trkpt>
      <trkpt lat="46.13454" lon="6.4692">
        <ele>554</ele>
        <time>2017-04-29T13:53:16.000Z</time>
      </trkpt>
      <trkpt lat="46.13465" lon="6.46911">
        <ele>553</ele>
        <time>2017-04-29T13:53:18.000Z</time>
      </trkpt>
      <trkpt lat="46.13465" lon="6.46893">
        <ele>553</ele>
        <time>2017-04-29T13:53:20.000Z</time>
      </trkpt>
      <trkpt lat="46.13456" lon="6.46867">
        <ele>553</ele>
        <time>2017-04-29T13:53:23.000Z</time>
      </trkpt>
      <trkpt lat="46.13443" lon="6.46786">
        <ele>554</ele>
        <time>2017-04-29T13:53:31.000Z</time>
      </trkpt>
      <trkpt lat="46.1344" lon="6.46767">
        <ele>554</ele>
        <time>2017-04-29T13:53:33.000Z</time>
      </trkpt>
      <trkpt lat="46.13437" lon="6.46729">
        <ele>556</ele>
        <time>2017-04-29T13:53:37.000Z</time>
      </trkpt>
      <trkpt lat="46.13435" lon="6.46677">
        <ele>558</ele>
        <time>2017-04-29T13:53:42.000Z</time>
      </trkpt>
      <trkpt lat="46.13435" lon="6.46656">
        <ele>559</ele>
        <time>2017-04-29T13:53:44.000Z</time>
      </trkpt>
      <trkpt lat="46.13436" lon="6.46615">
        <ele>558</ele>
        <time>2017-04-29T13:53:48.000Z</time>
      </trkpt>
      <trkpt lat="46.13439" lon="6.46554">
        <ele>559</ele>
        <time>2017-04-29T13:53:54.000Z</time>
      </trkpt>
      <trkpt lat="46.13443" lon="6.46486">
        <ele>560</ele>
        <time>2017-04-29T13:54:01.000Z</time>
      </trkpt>
      <trkpt lat="46.13447" lon="6.46409">
        <ele>560</ele>
        <time>2017-04-29T13:54:09.000Z</time>
      </trkpt>
      <trkpt lat="46.13448" lon="6.46399">
        <ele>560</ele>
        <time>2017-04-29T13:54:10.000Z</time>
      </trkpt>
      <trkpt lat="46.1345" lon="6.46352">
        <ele>560</ele>
        <time>2017-04-29T13:54:15.000Z</time>
      </trkpt>
      <trkpt lat="46.13451" lon="6.46326">
        <ele>562</ele>
        <time>2017-04-29T13:54:18.000Z</time>
      </trkpt>
      <trkpt lat="46.13454" lon="6.46266">
        <ele>563</ele>
        <time>2017-04-29T13:54:25.000Z</time>
      </trkpt>
      <trkpt lat="46.13457" lon="6.46226">
        <ele>566</ele>
        <time>2017-04-29T13:54:30.000Z</time>
      </trkpt>
      <trkpt lat="46.13459" lon="6.46188">
        <ele>567</ele>
        <time>2017-04-29T13:54:35.000Z</time>
      </trkpt>
      <trkpt lat="46.13461" lon="6.46134">
        <ele>569</ele>
        <time>2017-04-29T13:54:42.000Z</time>
      </trkpt>
      <trkpt lat="46.13461" lon="6.4608">
        <ele>572</ele>
        <time>2017-04-29T13:54:49.000Z</time>
      </trkpt>
      <trkpt lat="46.13463" lon="6.4605">
        <ele>572</ele>
        <time>2017-04-29T13:54:53.000Z</time>
      </trkpt>
      <trkpt lat="46.13462" lon="6.4602">
        <ele>573</ele>
        <time>2017-04-29T13:54:57.000Z</time>
      </trkpt>
      <trkpt lat="46.13462" lon="6.46013">
        <ele>573</ele>
        <time>2017-04-29T13:54:58.000Z</time>
      </trkpt>
      <trkpt lat="46.13467" lon="6.45992">
        <ele>575</ele>
        <time>2017-04-29T13:55:01.000Z</time>
      </trkpt>
      <trkpt lat="46.13469" lon="6.45985">
        <ele>575</ele>
        <time>2017-04-29T13:55:02.000Z</time>
      </trkpt>
      <trkpt lat="46.13469" lon="6.45969">
        <ele>575</ele>
        <time>2017-04-29T13:55:04.000Z</time>
      </trkpt>
      <trkpt lat="46.13465" lon="6.45946">
        <ele>576</ele>
        <time>2017-04-29T13:55:07.000Z</time>
      </trkpt>
      <trkpt lat="46.13464" lon="6.45938">
        <ele>576</ele>
        <time>2017-04-29T13:55:08.000Z</time>
      </trkpt>
      <trkpt lat="46.13464" lon="6.459">
        <ele>576</ele>
        <time>2017-04-29T13:55:13.000Z</time>
      </trkpt>
      <trkpt lat="46.13465" lon="6.45871">
        <ele>576</ele>
        <time>2017-04-29T13:55:17.000Z</time>
      </trkpt>
      <trkpt lat="46.13466" lon="6.4585">
        <ele>576</ele>
        <time>2017-04-29T13:55:20.000Z</time>
      </trkpt>
      <trkpt lat="46.13466" lon="6.45821">
        <ele>578</ele>
        <time>2017-04-29T13:55:24.000Z</time>
      </trkpt>
      <trkpt lat="46.13467" lon="6.458">
        <ele>579</ele>
        <time>2017-04-29T13:55:27.000Z</time>
      </trkpt>
      <trkpt lat="46.13467" lon="6.45772">
        <ele>579</ele>
        <time>2017-04-29T13:55:31.000Z</time>
      </trkpt>
      <trkpt lat="46.13467" lon="6.45736">
        <ele>583</ele>
        <time>2017-04-29T13:55:36.000Z</time>
      </trkpt>
      <trkpt lat="46.13467" lon="6.45701">
        <ele>584</ele>
        <time>2017-04-29T13:55:41.000Z</time>
      </trkpt>
      <trkpt lat="46.13467" lon="6.45672">
        <ele>584</ele>
        <time>2017-04-29T13:55:45.000Z</time>
      </trkpt>
      <trkpt lat="46.13467" lon="6.4563">
        <ele>587</ele>
        <time>2017-04-29T13:55:51.000Z</time>
      </trkpt>
      <trkpt lat="46.13467" lon="6.4561">
        <ele>588</ele>
        <time>2017-04-29T13:55:54.000Z</time>
      </trkpt>
      <trkpt lat="46.13467" lon="6.45573">
        <ele>590</ele>
        <time>2017-04-29T13:55:59.000Z</time>
      </trkpt>
      <trkpt lat="46.13467" lon="6.4555">
        <ele>590</ele>
        <time>2017-04-29T13:56:02.000Z</time>
      </trkpt>
      <trkpt lat="46.13467" lon="6.45514">
        <ele>590</ele>
        <time>2017-04-29T13:56:07.000Z</time>
      </trkpt>
      <trkpt lat="46.13467" lon="6.45499">
        <ele>593</ele>
        <time>2017-04-29T13:56:09.000Z</time>
      </trkpt>
      <trkpt lat="46.13467" lon="6.45476">
        <ele>593</ele>
        <time>2017-04-29T13:56:12.000Z</time>
      </trkpt>
      <trkpt lat="46.13467" lon="6.45431">
        <ele>594</ele>
        <time>2017-04-29T13:56:18.000Z</time>
      </trkpt>
      <trkpt lat="46.13467" lon="6.45402">
        <ele>596</ele>
        <time>2017-04-29T13:56:22.000Z</time>
      </trkpt>
      <trkpt lat="46.13468" lon="6.45373">
        <ele>596</ele>
        <time>2017-04-29T13:56:26.000Z</time>
      </trkpt>
      <trkpt lat="46.13468" lon="6.45343">
        <ele>596</ele>
        <time>2017-04-29T13:56:30.000Z</time>
      </trkpt>
      <trkpt lat="46.13468" lon="6.45312">
        <ele>597</ele>
        <time>2017-04-29T13:56:34.000Z</time>
      </trkpt>
      <trkpt lat="46.13468" lon="6.45279">
        <ele>597</ele>
        <time>2017-04-29T13:56:38.000Z</time>
      </trkpt>
      <trkpt lat="46.13468" lon="6.45222">
        <ele>598</ele>
        <time>2017-04-29T13:56:45.000Z</time>
      </trkpt>
      <trkpt lat="46.13468" lon="6.45178">
        <ele>599</ele>
        <time>2017-04-29T13:56:50.000Z</time>
      </trkpt>
      <trkpt lat="46.13468" lon="6.45134">
        <ele>601</ele>
        <time>2017-04-29T13:56:55.000Z</time>
      </trkpt>
      <trkpt lat="46.13468" lon="6.45088">
        <ele>602</ele>
        <time>2017-04-29T13:57:00.000Z</time>
      </trkpt>
      <trkpt lat="46.13468" lon="6.45002">
        <ele>607</ele>
        <time>2017-04-29T13:57:09.000Z</time>
      </trkpt>
      <trkpt lat="46.13468" lon="6.44923">
        <ele>609</ele>
        <time>2017-04-29T13:57:17.000Z</time>
      </trkpt>
      <trkpt lat="46.13468" lon="6.44837">
        <ele>606</ele>
        <time>2017-04-29T13:57:25.000Z</time>
      </trkpt>
      <trkpt lat="46.13468" lon="6.44758">
        <ele>600</ele>
        <time>2017-04-29T13:57:32.000Z</time>
      </trkpt>
      <trkpt lat="46.13468" lon="6.44677">
        <ele>599</ele>
        <time>2017-04-29T13:57:39.000Z</time>
      </trkpt>
      <trkpt lat="46.1347" lon="6.44594">
        <ele>600</ele>
        <time>2017-04-29T13:57:46.000Z</time>
      </trkpt>
      <trkpt lat="46.13475" lon="6.44511">
        <ele>601</ele>
        <time>2017-04-29T13:57:53.000Z</time>
      </trkpt>
      <trkpt lat="46.13484" lon="6.44431">
        <ele>601</ele>
        <time>2017-04-29T13:58:00.000Z</time>
      </trkpt>
      <trkpt lat="46.13497" lon="6.44345">
        <ele>602</ele>
        <time>2017-04-29T13:58:08.000Z</time>
      </trkpt>
      <trkpt lat="46.13511" lon="6.44269">
        <ele>602</ele>
        <time>2017-04-29T13:58:15.000Z</time>
      </trkpt>
      <trkpt lat="46.13526" lon="6.44192">
        <ele>604</ele>
        <time>2017-04-29T13:58:22.000Z</time>
      </trkpt>
      <trkpt lat="46.1354" lon="6.44114">
        <ele>605</ele>
        <time>2017-04-29T13:58:29.000Z</time>
      </trkpt>
      <trkpt lat="46.13549" lon="6.44069">
        <ele>606</ele>
        <time>2017-04-29T13:58:33.000Z</time>
      </trkpt>
      <trkpt lat="46.13559" lon="6.44015">
        <ele>606</ele>
        <time>2017-04-29T13:58:38.000Z</time>
      </trkpt>
      <trkpt lat="46.13567" lon="6.43972">
        <ele>607</ele>
        <time>2017-04-29T13:58:42.000Z</time>
      </trkpt>
      <trkpt lat="46.13582" lon="6.43897">
        <ele>608</ele>
        <time>2017-04-29T13:58:50.000Z</time>
      </trkpt>
      <trkpt lat="46.13588" lon="6.43859">
        <ele>610</ele>
        <time>2017-04-29T13:58:57.000Z</time>
      </trkpt>
      <trkpt lat="46.13582" lon="6.43851">
        <ele>609</ele>
        <time>2017-04-29T13:58:59.000Z</time>
      </trkpt>
      <trkpt lat="46.13574" lon="6.43842">
        <ele>609</ele>
        <time>2017-04-29T13:59:01.000Z</time>
      </trkpt>
      <trkpt lat="46.13569" lon="6.43828">
        <ele>609</ele>
        <time>2017-04-29T13:59:03.000Z</time>
      </trkpt>
      <trkpt lat="46.13562" lon="6.43747">
        <ele>609</ele>
        <time>2017-04-29T13:59:12.000Z</time>
      </trkpt>
      <trkpt lat="46.13561" lon="6.43738">
        <ele>609</ele>
        <time>2017-04-29T13:59:13.000Z</time>
      </trkpt>
      <trkpt lat="46.13559" lon="6.43679">
        <ele>610</ele>
        <time>2017-04-29T13:59:19.000Z</time>
      </trkpt>
      <trkpt lat="46.13562" lon="6.43661">
        <ele>613</ele>
        <time>2017-04-29T13:59:21.000Z</time>
      </trkpt>
      <trkpt lat="46.13569" lon="6.43649">
        <ele>613</ele>
        <time>2017-04-29T13:59:23.000Z</time>
      </trkpt>
      <trkpt lat="46.13576" lon="6.4364">
        <ele>614</ele>
        <time>2017-04-29T13:59:25.000Z</time>
      </trkpt>
      <trkpt lat="46.13579" lon="6.43635">
        <ele>614</ele>
        <time>2017-04-29T13:59:26.000Z</time>
      </trkpt>
      <trkpt lat="46.13583" lon="6.43631">
        <ele>615</ele>
        <time>2017-04-29T13:59:27.000Z</time>
      </trkpt>
      <trkpt lat="46.1359" lon="6.43627">
        <ele>615</ele>
        <time>2017-04-29T13:59:29.000Z</time>
      </trkpt>
      <trkpt lat="46.136" lon="6.43617">
        <ele>616</ele>
        <time>2017-04-29T13:59:32.000Z</time>
      </trkpt>
      <trkpt lat="46.13607" lon="6.43609">
        <ele>616</ele>
        <time>2017-04-29T13:59:34.000Z</time>
      </trkpt>
      <trkpt lat="46.13613" lon="6.43599">
        <ele>616</ele>
        <time>2017-04-29T13:59:36.000Z</time>
      </trkpt>
      <trkpt lat="46.13616" lon="6.43594">
        <ele>616</ele>
        <time>2017-04-29T13:59:37.000Z</time>
      </trkpt>
      <trkpt lat="46.1362" lon="6.43583">
        <ele>622</ele>
        <time>2017-04-29T13:59:39.000Z</time>
      </trkpt>
      <trkpt lat="46.13623" lon="6.43571">
        <ele>622</ele>
        <time>2017-04-29T13:59:41.000Z</time>
      </trkpt>
      <trkpt lat="46.13624" lon="6.43552">
        <ele>622</ele>
        <time>2017-04-29T13:59:44.000Z</time>
      </trkpt>
      <trkpt lat="46.13624" lon="6.43546">
        <ele>623</ele>
        <time>2017-04-29T13:59:45.000Z</time>
      </trkpt>
      <trkpt lat="46.13622" lon="6.43533">
        <ele>624</ele>
        <time>2017-04-29T13:59:47.000Z</time>
      </trkpt>
      <trkpt lat="46.1362" lon="6.43527">
        <ele>624</ele>
        <time>2017-04-29T13:59:48.000Z</time>
      </trkpt>
      <trkpt lat="46.13616" lon="6.43517">
        <ele>624</ele>
        <time>2017-04-29T13:59:50.000Z</time>
      </trkpt>
      <trkpt lat="46.13609" lon="6.43504">
        <ele>625</ele>
        <time>2017-04-29T13:59:53.000Z</time>
      </trkpt>
      <trkpt lat="46.13591" lon="6.43482">
        <ele>628</ele>
        <time>2017-04-29T13:59:59.000Z</time>
      </trkpt>
      <trkpt lat="46.13579" lon="6.43467">
        <ele>628</ele>
        <time>2017-04-29T14:00:03.000Z</time>
      </trkpt>
      <trkpt lat="46.13562" lon="6.43449">
        <ele>628</ele>
        <time>2017-04-29T14:00:08.000Z</time>
      </trkpt>
      <trkpt lat="46.13548" lon="6.43434">
        <ele>629</ele>
        <time>2017-04-29T14:00:12.000Z</time>
      </trkpt>
      <trkpt lat="46.13537" lon="6.43419">
        <ele>629</ele>
        <time>2017-04-29T14:00:16.000Z</time>
      </trkpt>
      <trkpt lat="46.13525" lon="6.43403">
        <ele>631</ele>
        <time>2017-04-29T14:00:21.000Z</time>
      </trkpt>
      <trkpt lat="46.13498" lon="6.43397">
        <ele>634</ele>
        <time>2017-04-29T14:00:27.000Z</time>
      </trkpt>
      <trkpt lat="46.13479" lon="6.43394">
        <ele>634</ele>
        <time>2017-04-29T14:00:31.000Z</time>
      </trkpt>
      <trkpt lat="46.13446" lon="6.43395">
        <ele>635</ele>
        <time>2017-04-29T14:00:37.000Z</time>
      </trkpt>
      <trkpt lat="46.13428" lon="6.43397">
        <ele>635</ele>
        <time>2017-04-29T14:00:40.000Z</time>
      </trkpt>
      <trkpt lat="46.13379" lon="6.4339">
        <ele>637</ele>
        <time>2017-04-29T14:00:48.000Z</time>
      </trkpt>
      <trkpt lat="46.13363" lon="6.43377">
        <ele>637</ele>
        <time>2017-04-29T14:00:51.000Z</time>
      </trkpt>
      <trkpt lat="46.13358" lon="6.43371">
        <ele>637</ele>
        <time>2017-04-29T14:00:52.000Z</time>
      </trkpt>
      <trkpt lat="46.13332" lon="6.43327">
        <ele>640</ele>
        <time>2017-04-29T14:00:58.000Z</time>
      </trkpt>
      <trkpt lat="46.13324" lon="6.433">
        <ele>641</ele>
        <time>2017-04-29T14:01:01.000Z</time>
      </trkpt>
      <trkpt lat="46.13321" lon="6.43281">
        <ele>642</ele>
        <time>2017-04-29T14:01:03.000Z</time>
      </trkpt>
      <trkpt lat="46.13314" lon="6.43203">
        <ele>643</ele>
        <time>2017-04-29T14:01:11.000Z</time>
      </trkpt>
      <trkpt lat="46.13318" lon="6.43136">
        <ele>640</ele>
        <time>2017-04-29T14:01:18.000Z</time>
      </trkpt>
      <trkpt lat="46.13332" lon="6.43093">
        <ele>638</ele>
        <time>2017-04-29T14:01:23.000Z</time>
      </trkpt>
      <trkpt lat="46.13335" lon="6.43074">
        <ele>639</ele>
        <time>2017-04-29T14:01:25.000Z</time>
      </trkpt>
      <trkpt lat="46.13336" lon="6.43053">
        <ele>640</ele>
        <time>2017-04-29T14:01:27.000Z</time>
      </trkpt>
      <trkpt lat="46.13336" lon="6.43043">
        <ele>639</ele>
        <time>2017-04-29T14:01:28.000Z</time>
      </trkpt>
      <trkpt lat="46.13334" lon="6.43035">
        <ele>638</ele>
        <time>2017-04-29T14:01:29.000Z</time>
      </trkpt>
      <trkpt lat="46.13325" lon="6.43024">
        <ele>632</ele>
        <time>2017-04-29T14:01:31.000Z</time>
      </trkpt>
      <trkpt lat="46.13314" lon="6.43025">
        <ele>632</ele>
        <time>2017-04-29T14:01:33.000Z</time>
      </trkpt>
      <trkpt lat="46.13302" lon="6.43031">
        <ele>633</ele>
        <time>2017-04-29T14:01:35.000Z</time>
      </trkpt>
      <trkpt lat="46.1329" lon="6.43039">
        <ele>633</ele>
        <time>2017-04-29T14:01:37.000Z</time>
      </trkpt>
      <trkpt lat="46.13268" lon="6.43053">
        <ele>633</ele>
        <time>2017-04-29T14:01:40.000Z</time>
      </trkpt>
      <trkpt lat="46.13261" lon="6.43058">
        <ele>632</ele>
        <time>2017-04-29T14:01:41.000Z</time>
      </trkpt>
      <trkpt lat="46.13253" lon="6.43061">
        <ele>632</ele>
        <time>2017-04-29T14:01:42.000Z</time>
      </trkpt>
      <trkpt lat="46.13223" lon="6.43067">
        <ele>631</ele>
        <time>2017-04-29T14:01:46.000Z</time>
      </trkpt>
      <trkpt lat="46.13195" lon="6.43068">
        <ele>631</ele>
        <time>2017-04-29T14:01:50.000Z</time>
      </trkpt>
      <trkpt lat="46.13184" lon="6.43061">
        <ele>631</ele>
        <time>2017-04-29T14:01:52.000Z</time>
      </trkpt>
      <trkpt lat="46.13137" lon="6.43004">
        <ele>629</ele>
        <time>2017-04-29T14:02:00.000Z</time>
      </trkpt>
      <trkpt lat="46.13095" lon="6.42945">
        <ele>627</ele>
        <time>2017-04-29T14:02:07.000Z</time>
      </trkpt>
      <trkpt lat="46.13088" lon="6.42938">
        <ele>627</ele>
        <time>2017-04-29T14:02:08.000Z</time>
      </trkpt>
      <trkpt lat="46.1304" lon="6.42902">
        <ele>625</ele>
        <time>2017-04-29T14:02:14.000Z</time>
      </trkpt>
      <trkpt lat="46.12991" lon="6.42868">
        <ele>626</ele>
        <time>2017-04-29T14:02:20.000Z</time>
      </trkpt>
      <trkpt lat="46.12983" lon="6.4286">
        <ele>626</ele>
        <time>2017-04-29T14:02:21.000Z</time>
      </trkpt>
      <trkpt lat="46.12969" lon="6.42843">
        <ele>626</ele>
        <time>2017-04-29T14:02:23.000Z</time>
      </trkpt>
      <trkpt lat="46.12952" lon="6.42813">
        <ele>627</ele>
        <time>2017-04-29T14:02:26.000Z</time>
      </trkpt>
      <trkpt lat="46.12938" lon="6.42768">
        <ele>628</ele>
        <time>2017-04-29T14:02:30.000Z</time>
      </trkpt>
      <trkpt lat="46.12913" lon="6.42694">
        <ele>638</ele>
        <time>2017-04-29T14:02:37.000Z</time>
      </trkpt>
      <trkpt lat="46.12908" lon="6.42673">
        <ele>635</ele>
        <time>2017-04-29T14:02:39.000Z</time>
      </trkpt>
      <trkpt lat="46.12889" lon="6.42592">
        <ele>636</ele>
        <time>2017-04-29T14:02:47.000Z</time>
      </trkpt>
      <trkpt lat="46.12874" lon="6.42547">
        <ele>633</ele>
        <time>2017-04-29T14:02:52.000Z</time>
      </trkpt>
      <trkpt lat="46.12857" lon="6.42489">
        <ele>630</ele>
        <time>2017-04-29T14:02:59.000Z</time>
      </trkpt>
      <trkpt lat="46.12833" lon="6.42441">
        <ele>633</ele>
        <time>2017-04-29T14:03:06.000Z</time>
      </trkpt>
      <trkpt lat="46.12818" lon="6.42407">
        <ele>630</ele>
        <time>2017-04-29T14:03:11.000Z</time>
      </trkpt>
      <trkpt lat="46.12796" lon="6.42359">
        <ele>631</ele>
        <time>2017-04-29T14:03:18.000Z</time>
      </trkpt>
      <trkpt lat="46.12776" lon="6.42317">
        <ele>632</ele>
        <time>2017-04-29T14:03:24.000Z</time>
      </trkpt>
      <trkpt lat="46.12766" lon="6.42297">
        <ele>632</ele>
        <time>2017-04-29T14:03:27.000Z</time>
      </trkpt>
      <trkpt lat="46.12749" lon="6.42262">
        <ele>637</ele>
        <time>2017-04-29T14:03:32.000Z</time>
      </trkpt>
      <trkpt lat="46.12738" lon="6.42242">
        <ele>638</ele>
        <time>2017-04-29T14:03:35.000Z</time>
      </trkpt>
      <trkpt lat="46.12728" lon="6.42224">
        <ele>639</ele>
        <time>2017-04-29T14:03:38.000Z</time>
      </trkpt>
      <trkpt lat="46.12722" lon="6.42211">
        <ele>640</ele>
        <time>2017-04-29T14:03:43.000Z</time>
      </trkpt>
      <trkpt lat="46.1272" lon="6.42209">
        <ele>640</ele>
        <time>2017-04-29T14:04:22.000Z</time>
      </trkpt>
      <trkpt lat="46.12718" lon="6.42206">
        <ele>640</ele>
        <time>2017-04-29T14:04:23.000Z</time>
      </trkpt>
      <trkpt lat="46.12713" lon="6.42196">
        <ele>640</ele>
        <time>2017-04-29T14:04:26.000Z</time>
      </trkpt>
      <trkpt lat="46.12704" lon="6.4218">
        <ele>641</ele>
        <time>2017-04-29T14:04:29.000Z</time>
      </trkpt>
      <trkpt lat="46.12701" lon="6.42174">
        <ele>641</ele>
        <time>2017-04-29T14:04:30.000Z</time>
      </trkpt>
      <trkpt lat="46.12691" lon="6.42155">
        <ele>642</ele>
        <time>2017-04-29T14:04:33.000Z</time>
      </trkpt>
      <trkpt lat="46.1268" lon="6.42134">
        <ele>642</ele>
        <time>2017-04-29T14:04:36.000Z</time>
      </trkpt>
      <trkpt lat="46.1267" lon="6.42115">
        <ele>642</ele>
        <time>2017-04-29T14:04:39.000Z</time>
      </trkpt>
      <trkpt lat="46.1266" lon="6.42096">
        <ele>647</ele>
        <time>2017-04-29T14:04:42.000Z</time>
      </trkpt>
      <trkpt lat="46.12645" lon="6.42071">
        <ele>648</ele>
        <time>2017-04-29T14:04:46.000Z</time>
      </trkpt>
      <trkpt lat="46.12638" lon="6.42058">
        <ele>649</ele>
        <time>2017-04-29T14:04:48.000Z</time>
      </trkpt>
      <trkpt lat="46.12631" lon="6.42046">
        <ele>649</ele>
        <time>2017-04-29T14:04:50.000Z</time>
      </trkpt>
      <trkpt lat="46.1262" lon="6.42026">
        <ele>650</ele>
        <time>2017-04-29T14:04:53.000Z</time>
      </trkpt>
      <trkpt lat="46.1261" lon="6.42007">
        <ele>651</ele>
        <time>2017-04-29T14:04:56.000Z</time>
      </trkpt>
      <trkpt lat="46.126" lon="6.41989">
        <ele>651</ele>
        <time>2017-04-29T14:04:59.000Z</time>
      </trkpt>
      <trkpt lat="46.12587" lon="6.41967">
        <ele>651</ele>
        <time>2017-04-29T14:05:03.000Z</time>
      </trkpt>
      <trkpt lat="46.12575" lon="6.41951">
        <ele>658</ele>
        <time>2017-04-29T14:05:06.000Z</time>
      </trkpt>
      <trkpt lat="46.12565" lon="6.41936">
        <ele>659</ele>
        <time>2017-04-29T14:05:09.000Z</time>
      </trkpt>
      <trkpt lat="46.12554" lon="6.41921">
        <ele>659</ele>
        <time>2017-04-29T14:05:12.000Z</time>
      </trkpt>
      <trkpt lat="46.12544" lon="6.41906">
        <ele>660</ele>
        <time>2017-04-29T14:05:15.000Z</time>
      </trkpt>
      <trkpt lat="46.12535" lon="6.41891">
        <ele>661</ele>
        <time>2017-04-29T14:05:18.000Z</time>
      </trkpt>
      <trkpt lat="46.12531" lon="6.41887">
        <ele>661</ele>
        <time>2017-04-29T14:05:19.000Z</time>
      </trkpt>
      <trkpt lat="46.12511" lon="6.41857">
        <ele>662</ele>
        <time>2017-04-29T14:05:25.000Z</time>
      </trkpt>
      <trkpt lat="46.12497" lon="6.41836">
        <ele>665</ele>
        <time>2017-04-29T14:05:29.000Z</time>
      </trkpt>
      <trkpt lat="46.12484" lon="6.41814">
        <ele>666</ele>
        <time>2017-04-29T14:05:33.000Z</time>
      </trkpt>
      <trkpt lat="46.12475" lon="6.41797">
        <ele>667</ele>
        <time>2017-04-29T14:05:36.000Z</time>
      </trkpt>
      <trkpt lat="46.1247" lon="6.41784">
        <ele>667</ele>
        <time>2017-04-29T14:05:38.000Z</time>
      </trkpt>
      <trkpt lat="46.1246" lon="6.4174">
        <ele>666</ele>
        <time>2017-04-29T14:05:44.000Z</time>
      </trkpt>
      <trkpt lat="46.12449" lon="6.41695">
        <ele>667</ele>
        <time>2017-04-29T14:05:50.000Z</time>
      </trkpt>
      <trkpt lat="46.12432" lon="6.4163">
        <ele>666</ele>
        <time>2017-04-29T14:05:58.000Z</time>
      </trkpt>
      <trkpt lat="46.12412" lon="6.41575">
        <ele>671</ele>
        <time>2017-04-29T14:06:05.000Z</time>
      </trkpt>
      <trkpt lat="46.12389" lon="6.41522">
        <ele>673</ele>
        <time>2017-04-29T14:06:12.000Z</time>
      </trkpt>
      <trkpt lat="46.12376" lon="6.41494">
        <ele>671</ele>
        <time>2017-04-29T14:06:16.000Z</time>
      </trkpt>
      <trkpt lat="46.12359" lon="6.41459">
        <ele>672</ele>
        <time>2017-04-29T14:06:21.000Z</time>
      </trkpt>
      <trkpt lat="46.12342" lon="6.41435">
        <ele>673</ele>
        <time>2017-04-29T14:06:25.000Z</time>
      </trkpt>
      <trkpt lat="46.12322" lon="6.41406">
        <ele>678</ele>
        <time>2017-04-29T14:06:30.000Z</time>
      </trkpt>
      <trkpt lat="46.12311" lon="6.41387">
        <ele>679</ele>
        <time>2017-04-29T14:06:33.000Z</time>
      </trkpt>
      <trkpt lat="46.12296" lon="6.41363">
        <ele>680</ele>
        <time>2017-04-29T14:06:37.000Z</time>
      </trkpt>
      <trkpt lat="46.12284" lon="6.41345">
        <ele>681</ele>
        <time>2017-04-29T14:06:40.000Z</time>
      </trkpt>
      <trkpt lat="46.12278" lon="6.41333">
        <ele>681</ele>
        <time>2017-04-29T14:06:42.000Z</time>
      </trkpt>
      <trkpt lat="46.12273" lon="6.41319">
        <ele>681</ele>
        <time>2017-04-29T14:06:44.000Z</time>
      </trkpt>
      <trkpt lat="46.12268" lon="6.41297">
        <ele>681</ele>
        <time>2017-04-29T14:06:47.000Z</time>
      </trkpt>
      <trkpt lat="46.12261" lon="6.41226">
        <ele>681</ele>
        <time>2017-04-29T14:06:55.000Z</time>
      </trkpt>
      <trkpt lat="46.12261" lon="6.41183">
        <ele>683</ele>
        <time>2017-04-29T14:07:00.000Z</time>
      </trkpt>
      <trkpt lat="46.12261" lon="6.41152">
        <ele>684</ele>
        <time>2017-04-29T14:07:04.000Z</time>
      </trkpt>
      <trkpt lat="46.12262" lon="6.41129">
        <ele>684</ele>
        <time>2017-04-29T14:07:07.000Z</time>
      </trkpt>
      <trkpt lat="46.12263" lon="6.411">
        <ele>686</ele>
        <time>2017-04-29T14:07:11.000Z</time>
      </trkpt>
      <trkpt lat="46.12263" lon="6.41069">
        <ele>688</ele>
        <time>2017-04-29T14:07:15.000Z</time>
      </trkpt>
      <trkpt lat="46.12263" lon="6.41039">
        <ele>687</ele>
        <time>2017-04-29T14:07:19.000Z</time>
      </trkpt>
      <trkpt lat="46.12265" lon="6.41018">
        <ele>688</ele>
        <time>2017-04-29T14:07:22.000Z</time>
      </trkpt>
      <trkpt lat="46.12267" lon="6.40997">
        <ele>691</ele>
        <time>2017-04-29T14:07:25.000Z</time>
      </trkpt>
      <trkpt lat="46.12272" lon="6.40977">
        <ele>690</ele>
        <time>2017-04-29T14:07:28.000Z</time>
      </trkpt>
      <trkpt lat="46.12279" lon="6.40951">
        <ele>690</ele>
        <time>2017-04-29T14:07:32.000Z</time>
      </trkpt>
      <trkpt lat="46.12284" lon="6.40923">
        <ele>690</ele>
        <time>2017-04-29T14:07:36.000Z</time>
      </trkpt>
      <trkpt lat="46.12287" lon="6.40879">
        <ele>692</ele>
        <time>2017-04-29T14:07:42.000Z</time>
      </trkpt>
      <trkpt lat="46.1229" lon="6.40843">
        <ele>693</ele>
        <time>2017-04-29T14:07:47.000Z</time>
      </trkpt>
      <trkpt lat="46.12289" lon="6.40822">
        <ele>693</ele>
        <time>2017-04-29T14:07:50.000Z</time>
      </trkpt>
      <trkpt lat="46.12285" lon="6.4081">
        <ele>694</ele>
        <time>2017-04-29T14:07:52.000Z</time>
      </trkpt>
      <trkpt lat="46.12279" lon="6.40801">
        <ele>694</ele>
        <time>2017-04-29T14:07:54.000Z</time>
      </trkpt>
      <trkpt lat="46.12271" lon="6.40795">
        <ele>694</ele>
        <time>2017-04-29T14:07:56.000Z</time>
      </trkpt>
      <trkpt lat="46.12266" lon="6.40793">
        <ele>694</ele>
        <time>2017-04-29T14:07:57.000Z</time>
      </trkpt>
      <trkpt lat="46.12262" lon="6.40792">
        <ele>694</ele>
        <time>2017-04-29T14:07:58.000Z</time>
      </trkpt>
      <trkpt lat="46.12253" lon="6.40792">
        <ele>695</ele>
        <time>2017-04-29T14:08:00.000Z</time>
      </trkpt>
      <trkpt lat="46.12248" lon="6.40793">
        <ele>700</ele>
        <time>2017-04-29T14:08:01.000Z</time>
      </trkpt>
      <trkpt lat="46.12229" lon="6.408">
        <ele>700</ele>
        <time>2017-04-29T14:08:05.000Z</time>
      </trkpt>
      <trkpt lat="46.12215" lon="6.40806">
        <ele>701</ele>
        <time>2017-04-29T14:08:08.000Z</time>
      </trkpt>
      <trkpt lat="46.12201" lon="6.40813">
        <ele>702</ele>
        <time>2017-04-29T14:08:11.000Z</time>
      </trkpt>
      <trkpt lat="46.12187" lon="6.40819">
        <ele>703</ele>
        <time>2017-04-29T14:08:14.000Z</time>
      </trkpt>
      <trkpt lat="46.12174" lon="6.40826">
        <ele>705</ele>
        <time>2017-04-29T14:08:17.000Z</time>
      </trkpt>
      <trkpt lat="46.12164" lon="6.4083">
        <ele>707</ele>
        <time>2017-04-29T14:08:19.000Z</time>
      </trkpt>
      <trkpt lat="46.12155" lon="6.40832">
        <ele>707</ele>
        <time>2017-04-29T14:08:21.000Z</time>
      </trkpt>
      <trkpt lat="46.12145" lon="6.40829">
        <ele>707</ele>
        <time>2017-04-29T14:08:23.000Z</time>
      </trkpt>
      <trkpt lat="46.12141" lon="6.40826">
        <ele>707</ele>
        <time>2017-04-29T14:08:24.000Z</time>
      </trkpt>
      <trkpt lat="46.12136" lon="6.40821">
        <ele>708</ele>
        <time>2017-04-29T14:08:25.000Z</time>
      </trkpt>
      <trkpt lat="46.12125" lon="6.40804">
        <ele>708</ele>
        <time>2017-04-29T14:08:28.000Z</time>
      </trkpt>
      <trkpt lat="46.12101" lon="6.40765">
        <ele>707</ele>
        <time>2017-04-29T14:08:34.000Z</time>
      </trkpt>
      <trkpt lat="46.12078" lon="6.40725">
        <ele>712</ele>
        <time>2017-04-29T14:08:40.000Z</time>
      </trkpt>
      <trkpt lat="46.1206" lon="6.40683">
        <ele>713</ele>
        <time>2017-04-29T14:08:46.000Z</time>
      </trkpt>
      <trkpt lat="46.12052" lon="6.40664">
        <ele>712</ele>
        <time>2017-04-29T14:08:49.000Z</time>
      </trkpt>
      <trkpt lat="46.1204" lon="6.40638">
        <ele>713</ele>
        <time>2017-04-29T14:08:53.000Z</time>
      </trkpt>
      <trkpt lat="46.12029" lon="6.40613">
        <ele>714</ele>
        <time>2017-04-29T14:08:57.000Z</time>
      </trkpt>
      <trkpt lat="46.12021" lon="6.40594">
        <ele>715</ele>
        <time>2017-04-29T14:09:00.000Z</time>
      </trkpt>
      <trkpt lat="46.12012" lon="6.40575">
        <ele>714</ele>
        <time>2017-04-29T14:09:03.000Z</time>
      </trkpt>
      <trkpt lat="46.12007" lon="6.40562">
        <ele>713</ele>
        <time>2017-04-29T14:09:05.000Z</time>
      </trkpt>
      <trkpt lat="46.12005" lon="6.40556">
        <ele>712</ele>
        <time>2017-04-29T14:09:06.000Z</time>
      </trkpt>
      <trkpt lat="46.11997" lon="6.40539">
        <ele>716</ele>
        <time>2017-04-29T14:09:09.000Z</time>
      </trkpt>
      <trkpt lat="46.11986" lon="6.40518">
        <ele>715</ele>
        <time>2017-04-29T14:09:13.000Z</time>
      </trkpt>
      <trkpt lat="46.11969" lon="6.40503">
        <ele>716</ele>
        <time>2017-04-29T14:09:17.000Z</time>
      </trkpt>
      <trkpt lat="46.11958" lon="6.405">
        <ele>716</ele>
        <time>2017-04-29T14:09:19.000Z</time>
      </trkpt>
      <trkpt lat="46.11946" lon="6.40502">
        <ele>716</ele>
        <time>2017-04-29T14:09:21.000Z</time>
      </trkpt>
      <trkpt lat="46.11933" lon="6.40508">
        <ele>715</ele>
        <time>2017-04-29T14:09:23.000Z</time>
      </trkpt>
      <trkpt lat="46.11898" lon="6.4054">
        <ele>716</ele>
        <time>2017-04-29T14:09:28.000Z</time>
      </trkpt>
      <trkpt lat="46.11868" lon="6.40559">
        <ele>717</ele>
        <time>2017-04-29T14:09:32.000Z</time>
      </trkpt>
      <trkpt lat="46.11845" lon="6.40569">
        <ele>717</ele>
        <time>2017-04-29T14:09:35.000Z</time>
      </trkpt>
      <trkpt lat="46.11784" lon="6.40579">
        <ele>716</ele>
        <time>2017-04-29T14:09:43.000Z</time>
      </trkpt>
      <trkpt lat="46.11729" lon="6.40603">
        <ele>725</ele>
        <time>2017-04-29T14:09:50.000Z</time>
      </trkpt>
      <trkpt lat="46.11715" lon="6.40609">
        <ele>726</ele>
        <time>2017-04-29T14:09:52.000Z</time>
      </trkpt>
      <trkpt lat="46.11701" lon="6.40605">
        <ele>727</ele>
        <time>2017-04-29T14:09:54.000Z</time>
      </trkpt>
      <trkpt lat="46.11693" lon="6.40588">
        <ele>727</ele>
        <time>2017-04-29T14:09:56.000Z</time>
      </trkpt>
      <trkpt lat="46.11693" lon="6.4057">
        <ele>725</ele>
        <time>2017-04-29T14:09:58.000Z</time>
      </trkpt>
      <trkpt lat="46.11698" lon="6.40552">
        <ele>724</ele>
        <time>2017-04-29T14:10:00.000Z</time>
      </trkpt>
      <trkpt lat="46.11707" lon="6.40528">
        <ele>723</ele>
        <time>2017-04-29T14:10:03.000Z</time>
      </trkpt>
      <trkpt lat="46.11711" lon="6.4051">
        <ele>723</ele>
        <time>2017-04-29T14:10:05.000Z</time>
      </trkpt>
      <trkpt lat="46.11711" lon="6.40501">
        <ele>722</ele>
        <time>2017-04-29T14:10:06.000Z</time>
      </trkpt>
      <trkpt lat="46.1171" lon="6.40492">
        <ele>723</ele>
        <time>2017-04-29T14:10:07.000Z</time>
      </trkpt>
      <trkpt lat="46.11704" lon="6.4047">
        <ele>723</ele>
        <time>2017-04-29T14:10:10.000Z</time>
      </trkpt>
      <trkpt lat="46.11701" lon="6.40463">
        <ele>723</ele>
        <time>2017-04-29T14:10:11.000Z</time>
      </trkpt>
      <trkpt lat="46.11694" lon="6.40452">
        <ele>724</ele>
        <time>2017-04-29T14:10:13.000Z</time>
      </trkpt>
      <trkpt lat="46.11689" lon="6.40449">
        <ele>724</ele>
        <time>2017-04-29T14:10:14.000Z</time>
      </trkpt>
      <trkpt lat="46.11684" lon="6.40447">
        <ele>725</ele>
        <time>2017-04-29T14:10:15.000Z</time>
      </trkpt>
      <trkpt lat="46.11674" lon="6.40448">
        <ele>725</ele>
        <time>2017-04-29T14:10:17.000Z</time>
      </trkpt>
      <trkpt lat="46.11664" lon="6.40454">
        <ele>731</ele>
        <time>2017-04-29T14:10:19.000Z</time>
      </trkpt>
      <trkpt lat="46.11655" lon="6.40462">
        <ele>731</ele>
        <time>2017-04-29T14:10:21.000Z</time>
      </trkpt>
      <trkpt lat="46.11644" lon="6.40476">
        <ele>731</ele>
        <time>2017-04-29T14:10:24.000Z</time>
      </trkpt>
      <trkpt lat="46.11636" lon="6.40485">
        <ele>732</ele>
        <time>2017-04-29T14:10:26.000Z</time>
      </trkpt>
      <trkpt lat="46.11632" lon="6.40489">
        <ele>732</ele>
        <time>2017-04-29T14:10:27.000Z</time>
      </trkpt>
      <trkpt lat="46.1162" lon="6.40501">
        <ele>733</ele>
        <time>2017-04-29T14:10:30.000Z</time>
      </trkpt>
      <trkpt lat="46.11609" lon="6.40514">
        <ele>734</ele>
        <time>2017-04-29T14:10:33.000Z</time>
      </trkpt>
      <trkpt lat="46.11596" lon="6.40531">
        <ele>734</ele>
        <time>2017-04-29T14:10:37.000Z</time>
      </trkpt>
      <trkpt lat="46.11588" lon="6.40547">
        <ele>735</ele>
        <time>2017-04-29T14:10:40.000Z</time>
      </trkpt>
      <trkpt lat="46.1158" lon="6.4057">
        <ele>740</ele>
        <time>2017-04-29T14:10:44.000Z</time>
      </trkpt>
      <trkpt lat="46.11578" lon="6.40576">
        <ele>739</ele>
        <time>2017-04-29T14:10:45.000Z</time>
      </trkpt>
      <trkpt lat="46.11572" lon="6.40585">
        <ele>741</ele>
        <time>2017-04-29T14:10:47.000Z</time>
      </trkpt>
      <trkpt lat="46.11568" lon="6.40588">
        <ele>742</ele>
        <time>2017-04-29T14:10:48.000Z</time>
      </trkpt>
      <trkpt lat="46.11564" lon="6.40591">
        <ele>742</ele>
        <time>2017-04-29T14:10:49.000Z</time>
      </trkpt>
      <trkpt lat="46.11555" lon="6.40592">
        <ele>743</ele>
        <time>2017-04-29T14:10:51.000Z</time>
      </trkpt>
      <trkpt lat="46.11547" lon="6.40589">
        <ele>744</ele>
        <time>2017-04-29T14:10:53.000Z</time>
      </trkpt>
      <trkpt lat="46.11539" lon="6.40582">
        <ele>742</ele>
        <time>2017-04-29T14:10:55.000Z</time>
      </trkpt>
      <trkpt lat="46.11534" lon="6.40572">
        <ele>743</ele>
        <time>2017-04-29T14:10:57.000Z</time>
      </trkpt>
      <trkpt lat="46.11532" lon="6.40566">
        <ele>743</ele>
        <time>2017-04-29T14:10:58.000Z</time>
      </trkpt>
      <trkpt lat="46.1153" lon="6.40553">
        <ele>743</ele>
        <time>2017-04-29T14:11:00.000Z</time>
      </trkpt>
      <trkpt lat="46.1153" lon="6.40547">
        <ele>743</ele>
        <time>2017-04-29T14:11:01.000Z</time>
      </trkpt>
      <trkpt lat="46.11528" lon="6.40527">
        <ele>743</ele>
        <time>2017-04-29T14:11:04.000Z</time>
      </trkpt>
      <trkpt lat="46.11523" lon="6.4051">
        <ele>744</ele>
        <time>2017-04-29T14:11:07.000Z</time>
      </trkpt>
      <trkpt lat="46.11521" lon="6.40505">
        <ele>744</ele>
        <time>2017-04-29T14:11:08.000Z</time>
      </trkpt>
      <trkpt lat="46.11516" lon="6.40496">
        <ele>744</ele>
        <time>2017-04-29T14:11:10.000Z</time>
      </trkpt>
      <trkpt lat="46.11512" lon="6.40492">
        <ele>744</ele>
        <time>2017-04-29T14:11:11.000Z</time>
      </trkpt>
      <trkpt lat="46.11494" lon="6.40474">
        <ele>750</ele>
        <time>2017-04-29T14:11:16.000Z</time>
      </trkpt>
      <trkpt lat="46.11479" lon="6.4046">
        <ele>751</ele>
        <time>2017-04-29T14:11:20.000Z</time>
      </trkpt>
      <trkpt lat="46.11471" lon="6.40453">
        <ele>751</ele>
        <time>2017-04-29T14:11:22.000Z</time>
      </trkpt>
      <trkpt lat="46.11464" lon="6.40448">
        <ele>752</ele>
        <time>2017-04-29T14:11:24.000Z</time>
      </trkpt>
      <trkpt lat="46.11447" lon="6.40443">
        <ele>753</ele>
        <time>2017-04-29T14:11:28.000Z</time>
      </trkpt>
      <trkpt lat="46.11431" lon="6.40439">
        <ele>754</ele>
        <time>2017-04-29T14:11:32.000Z</time>
      </trkpt>
      <trkpt lat="46.11422" lon="6.40435">
        <ele>755</ele>
        <time>2017-04-29T14:11:34.000Z</time>
      </trkpt>
      <trkpt lat="46.11414" lon="6.40431">
        <ele>761</ele>
        <time>2017-04-29T14:11:36.000Z</time>
      </trkpt>
      <trkpt lat="46.11399" lon="6.4042">
        <ele>761</ele>
        <time>2017-04-29T14:11:40.000Z</time>
      </trkpt>
      <trkpt lat="46.11396" lon="6.40416">
        <ele>761</ele>
        <time>2017-04-29T14:11:41.000Z</time>
      </trkpt>
      <trkpt lat="46.1139" lon="6.40407">
        <ele>762</ele>
        <time>2017-04-29T14:11:43.000Z</time>
      </trkpt>
      <trkpt lat="46.11388" lon="6.40385">
        <ele>762</ele>
        <time>2017-04-29T14:11:47.000Z</time>
      </trkpt>
      <trkpt lat="46.11392" lon="6.40363">
        <ele>762</ele>
        <time>2017-04-29T14:11:51.000Z</time>
      </trkpt>
      <trkpt lat="46.11395" lon="6.40347">
        <ele>761</ele>
        <time>2017-04-29T14:11:54.000Z</time>
      </trkpt>
      <trkpt lat="46.11396" lon="6.4033">
        <ele>761</ele>
        <time>2017-04-29T14:11:57.000Z</time>
      </trkpt>
      <trkpt lat="46.11393" lon="6.40309">
        <ele>762</ele>
        <time>2017-04-29T14:12:01.000Z</time>
      </trkpt>
      <trkpt lat="46.11387" lon="6.40289">
        <ele>763</ele>
        <time>2017-04-29T14:12:05.000Z</time>
      </trkpt>
      <trkpt lat="46.11382" lon="6.40274">
        <ele>763</ele>
        <time>2017-04-29T14:12:08.000Z</time>
      </trkpt>
      <trkpt lat="46.11377" lon="6.40254">
        <ele>764</ele>
        <time>2017-04-29T14:12:12.000Z</time>
      </trkpt>
      <trkpt lat="46.11372" lon="6.40233">
        <ele>766</ele>
        <time>2017-04-29T14:12:16.000Z</time>
      </trkpt>
      <trkpt lat="46.11369" lon="6.40219">
        <ele>767</ele>
        <time>2017-04-29T14:12:19.000Z</time>
      </trkpt>
      <trkpt lat="46.11366" lon="6.40198">
        <ele>767</ele>
        <time>2017-04-29T14:12:23.000Z</time>
      </trkpt>
      <trkpt lat="46.11364" lon="6.40177">
        <ele>768</ele>
        <time>2017-04-29T14:12:27.000Z</time>
      </trkpt>
      <trkpt lat="46.11363" lon="6.40162">
        <ele>771</ele>
        <time>2017-04-29T14:12:30.000Z</time>
      </trkpt>
      <trkpt lat="46.11362" lon="6.4014">
        <ele>771</ele>
        <time>2017-04-29T14:12:34.000Z</time>
      </trkpt>
      <trkpt lat="46.11362" lon="6.40119">
        <ele>771</ele>
        <time>2017-04-29T14:12:38.000Z</time>
      </trkpt>
      <trkpt lat="46.11361" lon="6.40098">
        <ele>772</ele>
        <time>2017-04-29T14:12:42.000Z</time>
      </trkpt>
      <trkpt lat="46.11359" lon="6.40077">
        <ele>773</ele>
        <time>2017-04-29T14:12:46.000Z</time>
      </trkpt>
      <trkpt lat="46.11356" lon="6.40063">
        <ele>773</ele>
        <time>2017-04-29T14:12:49.000Z</time>
      </trkpt>
      <trkpt lat="46.11348" lon="6.40045">
        <ele>773</ele>
        <time>2017-04-29T14:12:53.000Z</time>
      </trkpt>
      <trkpt lat="46.11338" lon="6.40031">
        <ele>773</ele>
        <time>2017-04-29T14:12:57.000Z</time>
      </trkpt>
      <trkpt lat="46.11329" lon="6.40021">
        <ele>780</ele>
        <time>2017-04-29T14:13:00.000Z</time>
      </trkpt>
      <trkpt lat="46.11316" lon="6.40009">
        <ele>780</ele>
        <time>2017-04-29T14:13:04.000Z</time>
      </trkpt>
      <trkpt lat="46.11303" lon="6.39997">
        <ele>781</ele>
        <time>2017-04-29T14:13:08.000Z</time>
      </trkpt>
      <trkpt lat="46.11293" lon="6.39987">
        <ele>782</ele>
        <time>2017-04-29T14:13:11.000Z</time>
      </trkpt>
      <trkpt lat="46.1128" lon="6.39974">
        <ele>783</ele>
        <time>2017-04-29T14:13:15.000Z</time>
      </trkpt>
      <trkpt lat="46.11267" lon="6.39962">
        <ele>783</ele>
        <time>2017-04-29T14:13:19.000Z</time>
      </trkpt>
      <trkpt lat="46.11258" lon="6.39954">
        <ele>783</ele>
        <time>2017-04-29T14:13:22.000Z</time>
      </trkpt>
      <trkpt lat="46.11245" lon="6.39942">
        <ele>790</ele>
        <time>2017-04-29T14:13:26.000Z</time>
      </trkpt>
      <trkpt lat="46.11236" lon="6.39934">
        <ele>790</ele>
        <time>2017-04-29T14:13:29.000Z</time>
      </trkpt>
      <trkpt lat="46.11222" lon="6.39925">
        <ele>790</ele>
        <time>2017-04-29T14:13:33.000Z</time>
      </trkpt>
      <trkpt lat="46.11212" lon="6.39918">
        <ele>791</ele>
        <time>2017-04-29T14:13:36.000Z</time>
      </trkpt>
      <trkpt lat="46.11197" lon="6.3991">
        <ele>792</ele>
        <time>2017-04-29T14:13:40.000Z</time>
      </trkpt>
      <trkpt lat="46.11184" lon="6.399">
        <ele>793</ele>
        <time>2017-04-29T14:13:44.000Z</time>
      </trkpt>
      <trkpt lat="46.11171" lon="6.39888">
        <ele>793</ele>
        <time>2017-04-29T14:13:48.000Z</time>
      </trkpt>
      <trkpt lat="46.11158" lon="6.39876">
        <ele>801</ele>
        <time>2017-04-29T14:13:52.000Z</time>
      </trkpt>
      <trkpt lat="46.11149" lon="6.39866">
        <ele>801</ele>
        <time>2017-04-29T14:13:55.000Z</time>
      </trkpt>
      <trkpt lat="46.11139" lon="6.39852">
        <ele>802</ele>
        <time>2017-04-29T14:13:59.000Z</time>
      </trkpt>
      <trkpt lat="46.11132" lon="6.39833">
        <ele>805</ele>
        <time>2017-04-29T14:14:03.000Z</time>
      </trkpt>
      <trkpt lat="46.11125" lon="6.39813">
        <ele>807</ele>
        <time>2017-04-29T14:14:07.000Z</time>
      </trkpt>
      <trkpt lat="46.11123" lon="6.39793">
        <ele>808</ele>
        <time>2017-04-29T14:14:11.000Z</time>
      </trkpt>
      <trkpt lat="46.11122" lon="6.39771">
        <ele>809</ele>
        <time>2017-04-29T14:14:15.000Z</time>
      </trkpt>
      <trkpt lat="46.11122" lon="6.39765">
        <ele>809</ele>
        <time>2017-04-29T14:14:16.000Z</time>
      </trkpt>
      <trkpt lat="46.11125" lon="6.39741">
        <ele>812</ele>
        <time>2017-04-29T14:14:20.000Z</time>
      </trkpt>
      <trkpt lat="46.11148" lon="6.39701">
        <ele>810</ele>
        <time>2017-04-29T14:14:28.000Z</time>
      </trkpt>
      <trkpt lat="46.11169" lon="6.39666">
        <ele>806</ele>
        <time>2017-04-29T14:14:34.000Z</time>
      </trkpt>
      <trkpt lat="46.11172" lon="6.39658">
        <ele>805</ele>
        <time>2017-04-29T14:14:35.000Z</time>
      </trkpt>
      <trkpt lat="46.11201" lon="6.39592">
        <ele>806</ele>
        <time>2017-04-29T14:14:44.000Z</time>
      </trkpt>
      <trkpt lat="46.1121" lon="6.39574">
        <ele>808</ele>
        <time>2017-04-29T14:14:47.000Z</time>
      </trkpt>
      <trkpt lat="46.11223" lon="6.39547">
        <ele>808</ele>
        <time>2017-04-29T14:14:51.000Z</time>
      </trkpt>
      <trkpt lat="46.11248" lon="6.39508">
        <ele>807</ele>
        <time>2017-04-29T14:14:57.000Z</time>
      </trkpt>
      <trkpt lat="46.11284" lon="6.39443">
        <ele>805</ele>
        <time>2017-04-29T14:15:05.000Z</time>
      </trkpt>
      <trkpt lat="46.11317" lon="6.39373">
        <ele>805</ele>
        <time>2017-04-29T14:15:13.000Z</time>
      </trkpt>
      <trkpt lat="46.11345" lon="6.39305">
        <ele>801</ele>
        <time>2017-04-29T14:15:20.000Z</time>
      </trkpt>
      <trkpt lat="46.11354" lon="6.39285">
        <ele>801</ele>
        <time>2017-04-29T14:15:22.000Z</time>
      </trkpt>
      <trkpt lat="46.11371" lon="6.39242">
        <ele>800</ele>
        <time>2017-04-29T14:15:26.000Z</time>
      </trkpt>
      <trkpt lat="46.11381" lon="6.39219">
        <ele>800</ele>
        <time>2017-04-29T14:15:28.000Z</time>
      </trkpt>
      <trkpt lat="46.11395" lon="6.39184">
        <ele>799</ele>
        <time>2017-04-29T14:15:31.000Z</time>
      </trkpt>
      <trkpt lat="46.1141" lon="6.39147">
        <ele>799</ele>
        <time>2017-04-29T14:15:34.000Z</time>
      </trkpt>
      <trkpt lat="46.11421" lon="6.39109">
        <ele>794</ele>
        <time>2017-04-29T14:15:37.000Z</time>
      </trkpt>
      <trkpt lat="46.1143" lon="6.39068">
        <ele>793</ele>
        <time>2017-04-29T14:15:40.000Z</time>
      </trkpt>
      <trkpt lat="46.11439" lon="6.39027">
        <ele>792</ele>
        <time>2017-04-29T14:15:43.000Z</time>
      </trkpt>
      <trkpt lat="46.11449" lon="6.38985">
        <ele>793</ele>
        <time>2017-04-29T14:15:46.000Z</time>
      </trkpt>
      <trkpt lat="46.11458" lon="6.38943">
        <ele>793</ele>
        <time>2017-04-29T14:15:49.000Z</time>
      </trkpt>
      <trkpt lat="46.11467" lon="6.38886">
        <ele>793</ele>
        <time>2017-04-29T14:15:53.000Z</time>
      </trkpt>
      <trkpt lat="46.11473" lon="6.38845">
        <ele>792</ele>
        <time>2017-04-29T14:15:56.000Z</time>
      </trkpt>
      <trkpt lat="46.11481" lon="6.38792">
        <ele>792</ele>
        <time>2017-04-29T14:16:00.000Z</time>
      </trkpt>
      <trkpt lat="46.11491" lon="6.38727">
        <ele>792</ele>
        <time>2017-04-29T14:16:05.000Z</time>
      </trkpt>
      <trkpt lat="46.11497" lon="6.38702">
        <ele>792</ele>
        <time>2017-04-29T14:16:07.000Z</time>
      </trkpt>
      <trkpt lat="46.1151" lon="6.38667">
        <ele>788</ele>
        <time>2017-04-29T14:16:10.000Z</time>
      </trkpt>
      <trkpt lat="46.11528" lon="6.38616">
        <ele>787</ele>
        <time>2017-04-29T14:16:14.000Z</time>
      </trkpt>
      <trkpt lat="46.11547" lon="6.38564">
        <ele>789</ele>
        <time>2017-04-29T14:16:18.000Z</time>
      </trkpt>
      <trkpt lat="46.11559" lon="6.38538">
        <ele>788</ele>
        <time>2017-04-29T14:16:20.000Z</time>
      </trkpt>
      <trkpt lat="46.11566" lon="6.38526">
        <ele>788</ele>
        <time>2017-04-29T14:16:21.000Z</time>
      </trkpt>
      <trkpt lat="46.11587" lon="6.38492">
        <ele>783</ele>
        <time>2017-04-29T14:16:24.000Z</time>
      </trkpt>
      <trkpt lat="46.11601" lon="6.38469">
        <ele>781</ele>
        <time>2017-04-29T14:16:26.000Z</time>
      </trkpt>
      <trkpt lat="46.11614" lon="6.38444">
        <ele>781</ele>
        <time>2017-04-29T14:16:28.000Z</time>
      </trkpt>
      <trkpt lat="46.11631" lon="6.38403">
        <ele>781</ele>
        <time>2017-04-29T14:16:31.000Z</time>
      </trkpt>
      <trkpt lat="46.11649" lon="6.38362">
        <ele>780</ele>
        <time>2017-04-29T14:16:34.000Z</time>
      </trkpt>
      <trkpt lat="46.1166" lon="6.38334">
        <ele>775</ele>
        <time>2017-04-29T14:16:36.000Z</time>
      </trkpt>
      <trkpt lat="46.11671" lon="6.38307">
        <ele>772</ele>
        <time>2017-04-29T14:16:38.000Z</time>
      </trkpt>
      <trkpt lat="46.11683" lon="6.38279">
        <ele>773</ele>
        <time>2017-04-29T14:16:40.000Z</time>
      </trkpt>
      <trkpt lat="46.11701" lon="6.38238">
        <ele>773</ele>
        <time>2017-04-29T14:16:43.000Z</time>
      </trkpt>
      <trkpt lat="46.11712" lon="6.3821">
        <ele>772</ele>
        <time>2017-04-29T14:16:45.000Z</time>
      </trkpt>
      <trkpt lat="46.11723" lon="6.38183">
        <ele>770</ele>
        <time>2017-04-29T14:16:47.000Z</time>
      </trkpt>
      <trkpt lat="46.1174" lon="6.38142">
        <ele>770</ele>
        <time>2017-04-29T14:16:50.000Z</time>
      </trkpt>
      <trkpt lat="46.11757" lon="6.381">
        <ele>760</ele>
        <time>2017-04-29T14:16:53.000Z</time>
      </trkpt>
      <trkpt lat="46.11769" lon="6.38073">
        <ele>760</ele>
        <time>2017-04-29T14:16:55.000Z</time>
      </trkpt>
      <trkpt lat="46.1178" lon="6.38045">
        <ele>759</ele>
        <time>2017-04-29T14:16:57.000Z</time>
      </trkpt>
      <trkpt lat="46.11791" lon="6.38018">
        <ele>759</ele>
        <time>2017-04-29T14:16:59.000Z</time>
      </trkpt>
      <trkpt lat="46.11803" lon="6.37991">
        <ele>759</ele>
        <time>2017-04-29T14:17:01.000Z</time>
      </trkpt>
      <trkpt lat="46.11814" lon="6.37965">
        <ele>759</ele>
        <time>2017-04-29T14:17:03.000Z</time>
      </trkpt>
      <trkpt lat="46.11824" lon="6.3794">
        <ele>759</ele>
        <time>2017-04-29T14:17:05.000Z</time>
      </trkpt>
      <trkpt lat="46.1184" lon="6.37901">
        <ele>756</ele>
        <time>2017-04-29T14:17:08.000Z</time>
      </trkpt>
      <trkpt lat="46.1186" lon="6.3785">
        <ele>755</ele>
        <time>2017-04-29T14:17:12.000Z</time>
      </trkpt>
      <trkpt lat="46.11874" lon="6.37813">
        <ele>755</ele>
        <time>2017-04-29T14:17:15.000Z</time>
      </trkpt>
      <trkpt lat="46.11879" lon="6.37801">
        <ele>755</ele>
        <time>2017-04-29T14:17:16.000Z</time>
      </trkpt>
      <trkpt lat="46.11893" lon="6.37765">
        <ele>754</ele>
        <time>2017-04-29T14:17:19.000Z</time>
      </trkpt>
      <trkpt lat="46.11907" lon="6.37728">
        <ele>754</ele>
        <time>2017-04-29T14:17:22.000Z</time>
      </trkpt>
      <trkpt lat="46.1192" lon="6.37691">
        <ele>749</ele>
        <time>2017-04-29T14:17:25.000Z</time>
      </trkpt>
      <trkpt lat="46.11925" lon="6.37664">
        <ele>751</ele>
        <time>2017-04-29T14:17:27.000Z</time>
      </trkpt>
      <trkpt lat="46.1193" lon="6.37622">
        <ele>750</ele>
        <time>2017-04-29T14:17:30.000Z</time>
      </trkpt>
      <trkpt lat="46.1194" lon="6.3754">
        <ele>748</ele>
        <time>2017-04-29T14:17:36.000Z</time>
      </trkpt>
      <trkpt lat="46.11944" lon="6.37499">
        <ele>747</ele>
        <time>2017-04-29T14:17:39.000Z</time>
      </trkpt>
      <trkpt lat="46.11949" lon="6.37447">
        <ele>747</ele>
        <time>2017-04-29T14:17:43.000Z</time>
      </trkpt>
      <trkpt lat="46.11954" lon="6.37408">
        <ele>748</ele>
        <time>2017-04-29T14:17:46.000Z</time>
      </trkpt>
      <trkpt lat="46.11955" lon="6.37369">
        <ele>748</ele>
        <time>2017-04-29T14:17:49.000Z</time>
      </trkpt>
      <trkpt lat="46.11954" lon="6.37356">
        <ele>748</ele>
        <time>2017-04-29T14:17:50.000Z</time>
      </trkpt>
      <trkpt lat="46.11948" lon="6.37316">
        <ele>747</ele>
        <time>2017-04-29T14:17:53.000Z</time>
      </trkpt>
      <trkpt lat="46.11948" lon="6.37303">
        <ele>747</ele>
        <time>2017-04-29T14:17:54.000Z</time>
      </trkpt>
      <trkpt lat="46.11949" lon="6.3729">
        <ele>747</ele>
        <time>2017-04-29T14:17:55.000Z</time>
      </trkpt>
      <trkpt lat="46.11957" lon="6.37267">
        <ele>746</ele>
        <time>2017-04-29T14:17:57.000Z</time>
      </trkpt>
      <trkpt lat="46.11973" lon="6.37257">
        <ele>746</ele>
        <time>2017-04-29T14:17:59.000Z</time>
      </trkpt>
      <trkpt lat="46.11982" lon="6.37258">
        <ele>745</ele>
        <time>2017-04-29T14:18:00.000Z</time>
      </trkpt>
      <trkpt lat="46.12021" lon="6.37264">
        <ele>744</ele>
        <time>2017-04-29T14:18:04.000Z</time>
      </trkpt>
      <trkpt lat="46.1204" lon="6.37264">
        <ele>744</ele>
        <time>2017-04-29T14:18:06.000Z</time>
      </trkpt>
      <trkpt lat="46.12059" lon="6.3726">
        <ele>742</ele>
        <time>2017-04-29T14:18:08.000Z</time>
      </trkpt>
      <trkpt lat="46.12069" lon="6.37256">
        <ele>741</ele>
        <time>2017-04-29T14:18:09.000Z</time>
      </trkpt>
      <trkpt lat="46.12078" lon="6.37251">
        <ele>739</ele>
        <time>2017-04-29T14:18:10.000Z</time>
      </trkpt>
      <trkpt lat="46.12118" lon="6.37209">
        <ele>738</ele>
        <time>2017-04-29T14:18:15.000Z</time>
      </trkpt>
      <trkpt lat="46.12148" lon="6.37172">
        <ele>737</ele>
        <time>2017-04-29T14:18:19.000Z</time>
      </trkpt>
      <trkpt lat="46.12187" lon="6.37114">
        <ele>734</ele>
        <time>2017-04-29T14:18:25.000Z</time>
      </trkpt>
      <trkpt lat="46.12192" lon="6.37103">
        <ele>734</ele>
        <time>2017-04-29T14:18:26.000Z</time>
      </trkpt>
      <trkpt lat="46.12198" lon="6.37093">
        <ele>734</ele>
        <time>2017-04-29T14:18:27.000Z</time>
      </trkpt>
      <trkpt lat="46.12212" lon="6.37074">
        <ele>733</ele>
        <time>2017-04-29T14:18:29.000Z</time>
      </trkpt>
      <trkpt lat="46.12236" lon="6.37056">
        <ele>732</ele>
        <time>2017-04-29T14:18:32.000Z</time>
      </trkpt>
      <trkpt lat="46.12244" lon="6.37048">
        <ele>733</ele>
        <time>2017-04-29T14:18:33.000Z</time>
      </trkpt>
      <trkpt lat="46.1225" lon="6.37039">
        <ele>733</ele>
        <time>2017-04-29T14:18:34.000Z</time>
      </trkpt>
      <trkpt lat="46.12274" lon="6.3697">
        <ele>730</ele>
        <time>2017-04-29T14:18:40.000Z</time>
      </trkpt>
      <trkpt lat="46.12278" lon="6.36958">
        <ele>729</ele>
        <time>2017-04-29T14:18:41.000Z</time>
      </trkpt>
      <trkpt lat="46.12289" lon="6.3692">
        <ele>729</ele>
        <time>2017-04-29T14:18:44.000Z</time>
      </trkpt>
      <trkpt lat="46.12296" lon="6.36894">
        <ele>725</ele>
        <time>2017-04-29T14:18:46.000Z</time>
      </trkpt>
      <trkpt lat="46.12301" lon="6.36881">
        <ele>725</ele>
        <time>2017-04-29T14:18:47.000Z</time>
      </trkpt>
      <trkpt lat="46.12307" lon="6.36869">
        <ele>725</ele>
        <time>2017-04-29T14:18:48.000Z</time>
      </trkpt>
      <trkpt lat="46.12322" lon="6.36847">
        <ele>723</ele>
        <time>2017-04-29T14:18:50.000Z</time>
      </trkpt>
      <trkpt lat="46.12338" lon="6.36825">
        <ele>720</ele>
        <time>2017-04-29T14:18:52.000Z</time>
      </trkpt>
      <trkpt lat="46.12355" lon="6.36802">
        <ele>718</ele>
        <time>2017-04-29T14:18:54.000Z</time>
      </trkpt>
      <trkpt lat="46.12372" lon="6.3678">
        <ele>717</ele>
        <time>2017-04-29T14:18:56.000Z</time>
      </trkpt>
      <trkpt lat="46.1239" lon="6.36757">
        <ele>716</ele>
        <time>2017-04-29T14:18:58.000Z</time>
      </trkpt>
      <trkpt lat="46.12406" lon="6.36732">
        <ele>712</ele>
        <time>2017-04-29T14:19:00.000Z</time>
      </trkpt>
      <trkpt lat="46.12414" lon="6.36718">
        <ele>712</ele>
        <time>2017-04-29T14:19:01.000Z</time>
      </trkpt>
      <trkpt lat="46.12429" lon="6.36692">
        <ele>710</ele>
        <time>2017-04-29T14:19:03.000Z</time>
      </trkpt>
      <trkpt lat="46.12444" lon="6.36664">
        <ele>708</ele>
        <time>2017-04-29T14:19:05.000Z</time>
      </trkpt>
      <trkpt lat="46.12457" lon="6.36635">
        <ele>707</ele>
        <time>2017-04-29T14:19:07.000Z</time>
      </trkpt>
      <trkpt lat="46.12463" lon="6.3662">
        <ele>707</ele>
        <time>2017-04-29T14:19:08.000Z</time>
      </trkpt>
      <trkpt lat="46.12467" lon="6.36604">
        <ele>706</ele>
        <time>2017-04-29T14:19:09.000Z</time>
      </trkpt>
      <trkpt lat="46.12473" lon="6.3657">
        <ele>703</ele>
        <time>2017-04-29T14:19:11.000Z</time>
      </trkpt>
      <trkpt lat="46.12479" lon="6.36536">
        <ele>702</ele>
        <time>2017-04-29T14:19:13.000Z</time>
      </trkpt>
      <trkpt lat="46.12485" lon="6.36503">
        <ele>701</ele>
        <time>2017-04-29T14:19:15.000Z</time>
      </trkpt>
      <trkpt lat="46.12492" lon="6.36472">
        <ele>698</ele>
        <time>2017-04-29T14:19:17.000Z</time>
      </trkpt>
      <trkpt lat="46.12497" lon="6.36458">
        <ele>697</ele>
        <time>2017-04-29T14:19:18.000Z</time>
      </trkpt>
      <trkpt lat="46.12503" lon="6.36444">
        <ele>697</ele>
        <time>2017-04-29T14:19:19.000Z</time>
      </trkpt>
      <trkpt lat="46.1251" lon="6.36431">
        <ele>697</ele>
        <time>2017-04-29T14:19:20.000Z</time>
      </trkpt>
      <trkpt lat="46.12524" lon="6.36406">
        <ele>694</ele>
        <time>2017-04-29T14:19:22.000Z</time>
      </trkpt>
      <trkpt lat="46.12539" lon="6.36381">
        <ele>693</ele>
        <time>2017-04-29T14:19:24.000Z</time>
      </trkpt>
      <trkpt lat="46.12553" lon="6.36358">
        <ele>692</ele>
        <time>2017-04-29T14:19:26.000Z</time>
      </trkpt>
      <trkpt lat="46.12559" lon="6.36346">
        <ele>692</ele>
        <time>2017-04-29T14:19:27.000Z</time>
      </trkpt>
      <trkpt lat="46.12563" lon="6.36333">
        <ele>688</ele>
        <time>2017-04-29T14:19:28.000Z</time>
      </trkpt>
      <trkpt lat="46.12564" lon="6.36319">
        <ele>688</ele>
        <time>2017-04-29T14:19:29.000Z</time>
      </trkpt>
      <trkpt lat="46.12561" lon="6.36291">
        <ele>687</ele>
        <time>2017-04-29T14:19:31.000Z</time>
      </trkpt>
      <trkpt lat="46.12558" lon="6.36277">
        <ele>687</ele>
        <time>2017-04-29T14:19:32.000Z</time>
      </trkpt>
      <trkpt lat="46.1255" lon="6.36249">
        <ele>684</ele>
        <time>2017-04-29T14:19:34.000Z</time>
      </trkpt>
      <trkpt lat="46.12541" lon="6.36221">
        <ele>683</ele>
        <time>2017-04-29T14:19:36.000Z</time>
      </trkpt>
      <trkpt lat="46.12533" lon="6.36193">
        <ele>682</ele>
        <time>2017-04-29T14:19:38.000Z</time>
      </trkpt>
      <trkpt lat="46.12527" lon="6.3617">
        <ele>681</ele>
        <time>2017-04-29T14:19:40.000Z</time>
      </trkpt>
      <trkpt lat="46.12524" lon="6.36152">
        <ele>678</ele>
        <time>2017-04-29T14:19:42.000Z</time>
      </trkpt>
      <trkpt lat="46.12523" lon="6.36143">
        <ele>678</ele>
        <time>2017-04-29T14:19:43.000Z</time>
      </trkpt>
      <trkpt lat="46.12519" lon="6.36136">
        <ele>678</ele>
        <time>2017-04-29T14:19:44.000Z</time>
      </trkpt>
      <trkpt lat="46.12513" lon="6.36132">
        <ele>677</ele>
        <time>2017-04-29T14:19:45.000Z</time>
      </trkpt>
      <trkpt lat="46.12506" lon="6.36131">
        <ele>677</ele>
        <time>2017-04-29T14:19:46.000Z</time>
      </trkpt>
      <trkpt lat="46.1249" lon="6.3613">
        <ele>675</ele>
        <time>2017-04-29T14:19:48.000Z</time>
      </trkpt>
      <trkpt lat="46.12463" lon="6.36128">
        <ele>675</ele>
        <time>2017-04-29T14:19:51.000Z</time>
      </trkpt>
      <trkpt lat="46.12415" lon="6.36125">
        <ele>673</ele>
        <time>2017-04-29T14:19:56.000Z</time>
      </trkpt>
      <trkpt lat="46.12376" lon="6.36116">
        <ele>673</ele>
        <time>2017-04-29T14:20:00.000Z</time>
      </trkpt>
      <trkpt lat="46.12358" lon="6.36106">
        <ele>672</ele>
        <time>2017-04-29T14:20:02.000Z</time>
      </trkpt>
      <trkpt lat="46.12339" lon="6.36093">
        <ele>670</ele>
        <time>2017-04-29T14:20:04.000Z</time>
      </trkpt>
      <trkpt lat="46.1232" lon="6.36078">
        <ele>666</ele>
        <time>2017-04-29T14:20:06.000Z</time>
      </trkpt>
      <trkpt lat="46.12292" lon="6.36056">
        <ele>665</ele>
        <time>2017-04-29T14:20:09.000Z</time>
      </trkpt>
      <trkpt lat="46.12262" lon="6.36033">
        <ele>664</ele>
        <time>2017-04-29T14:20:12.000Z</time>
      </trkpt>
      <trkpt lat="46.12231" lon="6.3601">
        <ele>662</ele>
        <time>2017-04-29T14:20:15.000Z</time>
      </trkpt>
      <trkpt lat="46.1221" lon="6.35994">
        <ele>657</ele>
        <time>2017-04-29T14:20:17.000Z</time>
      </trkpt>
      <trkpt lat="46.1219" lon="6.35977">
        <ele>657</ele>
        <time>2017-04-29T14:20:19.000Z</time>
      </trkpt>
      <trkpt lat="46.1217" lon="6.3596">
        <ele>656</ele>
        <time>2017-04-29T14:20:21.000Z</time>
      </trkpt>
      <trkpt lat="46.12149" lon="6.35944">
        <ele>656</ele>
        <time>2017-04-29T14:20:23.000Z</time>
      </trkpt>
      <trkpt lat="46.12129" lon="6.35928">
        <ele>656</ele>
        <time>2017-04-29T14:20:25.000Z</time>
      </trkpt>
      <trkpt lat="46.12097" lon="6.35906">
        <ele>652</ele>
        <time>2017-04-29T14:20:28.000Z</time>
      </trkpt>
      <trkpt lat="46.12076" lon="6.3589">
        <ele>651</ele>
        <time>2017-04-29T14:20:30.000Z</time>
      </trkpt>
      <trkpt lat="46.12055" lon="6.35874">
        <ele>650</ele>
        <time>2017-04-29T14:20:32.000Z</time>
      </trkpt>
      <trkpt lat="46.12035" lon="6.35859">
        <ele>649</ele>
        <time>2017-04-29T14:20:34.000Z</time>
      </trkpt>
      <trkpt lat="46.12016" lon="6.35843">
        <ele>648</ele>
        <time>2017-04-29T14:20:36.000Z</time>
      </trkpt>
      <trkpt lat="46.11976" lon="6.35813">
        <ele>644</ele>
        <time>2017-04-29T14:20:40.000Z</time>
      </trkpt>
      <trkpt lat="46.11955" lon="6.35802">
        <ele>643</ele>
        <time>2017-04-29T14:20:42.000Z</time>
      </trkpt>
      <trkpt lat="46.11934" lon="6.35796">
        <ele>643</ele>
        <time>2017-04-29T14:20:44.000Z</time>
      </trkpt>
      <trkpt lat="46.11916" lon="6.35791">
        <ele>642</ele>
        <time>2017-04-29T14:20:46.000Z</time>
      </trkpt>
      <trkpt lat="46.11899" lon="6.35786">
        <ele>642</ele>
        <time>2017-04-29T14:20:49.000Z</time>
      </trkpt>
      <trkpt lat="46.11897" lon="6.35775">
        <ele>641</ele>
        <time>2017-04-29T14:20:51.000Z</time>
      </trkpt>
      <trkpt lat="46.11906" lon="6.35764">
        <ele>641</ele>
        <time>2017-04-29T14:20:53.000Z</time>
      </trkpt>
      <trkpt lat="46.11932" lon="6.35745">
        <ele>636</ele>
        <time>2017-04-29T14:20:57.000Z</time>
      </trkpt>
      <trkpt lat="46.11948" lon="6.35734">
        <ele>635</ele>
        <time>2017-04-29T14:20:59.000Z</time>
      </trkpt>
      <trkpt lat="46.11963" lon="6.35722">
        <ele>634</ele>
        <time>2017-04-29T14:21:01.000Z</time>
      </trkpt>
      <trkpt lat="46.11988" lon="6.357">
        <ele>632</ele>
        <time>2017-04-29T14:21:04.000Z</time>
      </trkpt>
      <trkpt lat="46.12005" lon="6.35685">
        <ele>631</ele>
        <time>2017-04-29T14:21:06.000Z</time>
      </trkpt>
      <trkpt lat="46.12023" lon="6.35673">
        <ele>631</ele>
        <time>2017-04-29T14:21:08.000Z</time>
      </trkpt>
      <trkpt lat="46.12042" lon="6.3566">
        <ele>625</ele>
        <time>2017-04-29T14:21:10.000Z</time>
      </trkpt>
      <trkpt lat="46.12059" lon="6.35646">
        <ele>625</ele>
        <time>2017-04-29T14:21:12.000Z</time>
      </trkpt>
      <trkpt lat="46.12076" lon="6.35629">
        <ele>624</ele>
        <time>2017-04-29T14:21:14.000Z</time>
      </trkpt>
      <trkpt lat="46.12104" lon="6.35604">
        <ele>622</ele>
        <time>2017-04-29T14:21:17.000Z</time>
      </trkpt>
      <trkpt lat="46.12123" lon="6.35591">
        <ele>622</ele>
        <time>2017-04-29T14:21:19.000Z</time>
      </trkpt>
      <trkpt lat="46.12142" lon="6.35578">
        <ele>616</ele>
        <time>2017-04-29T14:21:21.000Z</time>
      </trkpt>
      <trkpt lat="46.12161" lon="6.35565">
        <ele>616</ele>
        <time>2017-04-29T14:21:23.000Z</time>
      </trkpt>
      <trkpt lat="46.12182" lon="6.35551">
        <ele>615</ele>
        <time>2017-04-29T14:21:25.000Z</time>
      </trkpt>
      <trkpt lat="46.12192" lon="6.35545">
        <ele>615</ele>
        <time>2017-04-29T14:21:26.000Z</time>
      </trkpt>
      <trkpt lat="46.12213" lon="6.35533">
        <ele>615</ele>
        <time>2017-04-29T14:21:28.000Z</time>
      </trkpt>
      <trkpt lat="46.12233" lon="6.35522">
        <ele>615</ele>
        <time>2017-04-29T14:21:30.000Z</time>
      </trkpt>
      <trkpt lat="46.12254" lon="6.35511">
        <ele>614</ele>
        <time>2017-04-29T14:21:32.000Z</time>
      </trkpt>
      <trkpt lat="46.12275" lon="6.35501">
        <ele>615</ele>
        <time>2017-04-29T14:21:34.000Z</time>
      </trkpt>
      <trkpt lat="46.12296" lon="6.35494">
        <ele>611</ele>
        <time>2017-04-29T14:21:36.000Z</time>
      </trkpt>
      <trkpt lat="46.12317" lon="6.35492">
        <ele>612</ele>
        <time>2017-04-29T14:21:38.000Z</time>
      </trkpt>
      <trkpt lat="46.12347" lon="6.35494">
        <ele>612</ele>
        <time>2017-04-29T14:21:41.000Z</time>
      </trkpt>
      <trkpt lat="46.12357" lon="6.35495">
        <ele>612</ele>
        <time>2017-04-29T14:21:42.000Z</time>
      </trkpt>
      <trkpt lat="46.12377" lon="6.35498">
        <ele>611</ele>
        <time>2017-04-29T14:21:44.000Z</time>
      </trkpt>
      <trkpt lat="46.12395" lon="6.35487">
        <ele>611</ele>
        <time>2017-04-29T14:21:46.000Z</time>
      </trkpt>
      <trkpt lat="46.12412" lon="6.35473">
        <ele>611</ele>
        <time>2017-04-29T14:21:48.000Z</time>
      </trkpt>
      <trkpt lat="46.1243" lon="6.35465">
        <ele>611</ele>
        <time>2017-04-29T14:21:50.000Z</time>
      </trkpt>
      <trkpt lat="46.12449" lon="6.35463">
        <ele>611</ele>
        <time>2017-04-29T14:21:52.000Z</time>
      </trkpt>
      <trkpt lat="46.12495" lon="6.35468">
        <ele>612</ele>
        <time>2017-04-29T14:21:57.000Z</time>
      </trkpt>
      <trkpt lat="46.12512" lon="6.35458">
        <ele>614</ele>
        <time>2017-04-29T14:21:59.000Z</time>
      </trkpt>
      <trkpt lat="46.12557" lon="6.35399">
        <ele>610</ele>
        <time>2017-04-29T14:22:06.000Z</time>
      </trkpt>
      <trkpt lat="46.12571" lon="6.35385">
        <ele>610</ele>
        <time>2017-04-29T14:22:08.000Z</time>
      </trkpt>
      <trkpt lat="46.12594" lon="6.35369">
        <ele>611</ele>
        <time>2017-04-29T14:22:11.000Z</time>
      </trkpt>
      <trkpt lat="46.12618" lon="6.35357">
        <ele>611</ele>
        <time>2017-04-29T14:22:14.000Z</time>
      </trkpt>
      <trkpt lat="46.12665" lon="6.35314">
        <ele>609</ele>
        <time>2017-04-29T14:22:21.000Z</time>
      </trkpt>
      <trkpt lat="46.12672" lon="6.35308">
        <ele>612</ele>
        <time>2017-04-29T14:22:22.000Z</time>
      </trkpt>
      <trkpt lat="46.12704" lon="6.35278">
        <ele>613</ele>
        <time>2017-04-29T14:22:27.000Z</time>
      </trkpt>
      <trkpt lat="46.12731" lon="6.35262">
        <ele>614</ele>
        <time>2017-04-29T14:22:31.000Z</time>
      </trkpt>
      <trkpt lat="46.12759" lon="6.35255">
        <ele>617</ele>
        <time>2017-04-29T14:22:35.000Z</time>
      </trkpt>
      <trkpt lat="46.12807" lon="6.35249">
        <ele>616</ele>
        <time>2017-04-29T14:22:42.000Z</time>
      </trkpt>
      <trkpt lat="46.12817" lon="6.35241">
        <ele>616</ele>
        <time>2017-04-29T14:22:44.000Z</time>
      </trkpt>
      <trkpt lat="46.12823" lon="6.35227">
        <ele>615</ele>
        <time>2017-04-29T14:22:46.000Z</time>
      </trkpt>
      <trkpt lat="46.12844" lon="6.35146">
        <ele>611</ele>
        <time>2017-04-29T14:22:54.000Z</time>
      </trkpt>
      <trkpt lat="46.12853" lon="6.35115">
        <ele>609</ele>
        <time>2017-04-29T14:22:57.000Z</time>
      </trkpt>
      <trkpt lat="46.12861" lon="6.35094">
        <ele>609</ele>
        <time>2017-04-29T14:22:59.000Z</time>
      </trkpt>
      <trkpt lat="46.12871" lon="6.35075">
        <ele>605</ele>
        <time>2017-04-29T14:23:01.000Z</time>
      </trkpt>
      <trkpt lat="46.12883" lon="6.35058">
        <ele>604</ele>
        <time>2017-04-29T14:23:03.000Z</time>
      </trkpt>
      <trkpt lat="46.12899" lon="6.35046">
        <ele>603</ele>
        <time>2017-04-29T14:23:05.000Z</time>
      </trkpt>
      <trkpt lat="46.12917" lon="6.35037">
        <ele>603</ele>
        <time>2017-04-29T14:23:07.000Z</time>
      </trkpt>
      <trkpt lat="46.12934" lon="6.35028">
        <ele>602</ele>
        <time>2017-04-29T14:23:09.000Z</time>
      </trkpt>
      <trkpt lat="46.1295" lon="6.35016">
        <ele>602</ele>
        <time>2017-04-29T14:23:11.000Z</time>
      </trkpt>
      <trkpt lat="46.12966" lon="6.35001">
        <ele>602</ele>
        <time>2017-04-29T14:23:13.000Z</time>
      </trkpt>
      <trkpt lat="46.12975" lon="6.34992">
        <ele>596</ele>
        <time>2017-04-29T14:23:14.000Z</time>
      </trkpt>
      <trkpt lat="46.12983" lon="6.34983">
        <ele>596</ele>
        <time>2017-04-29T14:23:15.000Z</time>
      </trkpt>
      <trkpt lat="46.12999" lon="6.34962">
        <ele>594</ele>
        <time>2017-04-29T14:23:17.000Z</time>
      </trkpt>
      <trkpt lat="46.13016" lon="6.3494">
        <ele>593</ele>
        <time>2017-04-29T14:23:19.000Z</time>
      </trkpt>
      <trkpt lat="46.13032" lon="6.34918">
        <ele>593</ele>
        <time>2017-04-29T14:23:21.000Z</time>
      </trkpt>
      <trkpt lat="46.13048" lon="6.34895">
        <ele>587</ele>
        <time>2017-04-29T14:23:23.000Z</time>
      </trkpt>
      <trkpt lat="46.13062" lon="6.34869">
        <ele>585</ele>
        <time>2017-04-29T14:23:25.000Z</time>
      </trkpt>
      <trkpt lat="46.13076" lon="6.3484">
        <ele>582</ele>
        <time>2017-04-29T14:23:27.000Z</time>
      </trkpt>
      <trkpt lat="46.13081" lon="6.34825">
        <ele>579</ele>
        <time>2017-04-29T14:23:28.000Z</time>
      </trkpt>
      <trkpt lat="46.13087" lon="6.34809">
        <ele>580</ele>
        <time>2017-04-29T14:23:29.000Z</time>
      </trkpt>
      <trkpt lat="46.13102" lon="6.3478">
        <ele>578</ele>
        <time>2017-04-29T14:23:31.000Z</time>
      </trkpt>
      <trkpt lat="46.13119" lon="6.34754">
        <ele>578</ele>
        <time>2017-04-29T14:23:33.000Z</time>
      </trkpt>
      <trkpt lat="46.13128" lon="6.34741">
        <ele>572</ele>
        <time>2017-04-29T14:23:34.000Z</time>
      </trkpt>
      <trkpt lat="46.13137" lon="6.34727">
        <ele>572</ele>
        <time>2017-04-29T14:23:35.000Z</time>
      </trkpt>
      <trkpt lat="46.13145" lon="6.34714">
        <ele>571</ele>
        <time>2017-04-29T14:23:36.000Z</time>
      </trkpt>
      <trkpt lat="46.13154" lon="6.347">
        <ele>570</ele>
        <time>2017-04-29T14:23:37.000Z</time>
      </trkpt>
      <trkpt lat="46.13162" lon="6.34685">
        <ele>569</ele>
        <time>2017-04-29T14:23:38.000Z</time>
      </trkpt>
      <trkpt lat="46.13171" lon="6.34671">
        <ele>569</ele>
        <time>2017-04-29T14:23:39.000Z</time>
      </trkpt>
      <trkpt lat="46.13179" lon="6.34657">
        <ele>566</ele>
        <time>2017-04-29T14:23:40.000Z</time>
      </trkpt>
      <trkpt lat="46.13188" lon="6.34643">
        <ele>566</ele>
        <time>2017-04-29T14:23:41.000Z</time>
      </trkpt>
      <trkpt lat="46.13205" lon="6.34617">
        <ele>564</ele>
        <time>2017-04-29T14:23:43.000Z</time>
      </trkpt>
      <trkpt lat="46.13223" lon="6.34596">
        <ele>564</ele>
        <time>2017-04-29T14:23:45.000Z</time>
      </trkpt>
      <trkpt lat="46.13244" lon="6.34581">
        <ele>560</ele>
        <time>2017-04-29T14:23:47.000Z</time>
      </trkpt>
      <trkpt lat="46.13274" lon="6.34565">
        <ele>560</ele>
        <time>2017-04-29T14:23:50.000Z</time>
      </trkpt>
      <trkpt lat="46.13305" lon="6.34547">
        <ele>560</ele>
        <time>2017-04-29T14:23:53.000Z</time>
      </trkpt>
      <trkpt lat="46.13323" lon="6.3453">
        <ele>560</ele>
        <time>2017-04-29T14:23:55.000Z</time>
      </trkpt>
      <trkpt lat="46.13339" lon="6.34512">
        <ele>561</ele>
        <time>2017-04-29T14:23:57.000Z</time>
      </trkpt>
      <trkpt lat="46.13356" lon="6.34497">
        <ele>557</ele>
        <time>2017-04-29T14:23:59.000Z</time>
      </trkpt>
      <trkpt lat="46.13373" lon="6.34488">
        <ele>557</ele>
        <time>2017-04-29T14:24:01.000Z</time>
      </trkpt>
      <trkpt lat="46.1339" lon="6.3448">
        <ele>557</ele>
        <time>2017-04-29T14:24:03.000Z</time>
      </trkpt>
      <trkpt lat="46.13409" lon="6.34475">
        <ele>557</ele>
        <time>2017-04-29T14:24:05.000Z</time>
      </trkpt>
      <trkpt lat="46.13462" lon="6.3446">
        <ele>558</ele>
        <time>2017-04-29T14:24:11.000Z</time>
      </trkpt>
      <trkpt lat="46.1347" lon="6.34455">
        <ele>558</ele>
        <time>2017-04-29T14:24:12.000Z</time>
      </trkpt>
      <trkpt lat="46.13521" lon="6.3442">
        <ele>559</ele>
        <time>2017-04-29T14:24:19.000Z</time>
      </trkpt>
      <trkpt lat="46.13575" lon="6.34384">
        <ele>554</ele>
        <time>2017-04-29T14:24:26.000Z</time>
      </trkpt>
      <trkpt lat="46.13597" lon="6.34366">
        <ele>556</ele>
        <time>2017-04-29T14:24:29.000Z</time>
      </trkpt>
      <trkpt lat="46.13647" lon="6.3433">
        <ele>551</ele>
        <time>2017-04-29T14:24:35.000Z</time>
      </trkpt>
      <trkpt lat="46.13655" lon="6.34323">
        <ele>551</ele>
        <time>2017-04-29T14:24:36.000Z</time>
      </trkpt>
      <trkpt lat="46.1369" lon="6.34295">
        <ele>550</ele>
        <time>2017-04-29T14:24:40.000Z</time>
      </trkpt>
      <trkpt lat="46.13727" lon="6.34265">
        <ele>548</ele>
        <time>2017-04-29T14:24:44.000Z</time>
      </trkpt>
      <trkpt lat="46.13746" lon="6.34249">
        <ele>545</ele>
        <time>2017-04-29T14:24:46.000Z</time>
      </trkpt>
      <trkpt lat="46.13777" lon="6.34229">
        <ele>543</ele>
        <time>2017-04-29T14:24:49.000Z</time>
      </trkpt>
      <trkpt lat="46.13798" lon="6.34226">
        <ele>543</ele>
        <time>2017-04-29T14:24:51.000Z</time>
      </trkpt>
      <trkpt lat="46.13828" lon="6.34226">
        <ele>544</ele>
        <time>2017-04-29T14:24:54.000Z</time>
      </trkpt>
      <trkpt lat="46.13883" lon="6.34222">
        <ele>546</ele>
        <time>2017-04-29T14:25:00.000Z</time>
      </trkpt>
      <trkpt lat="46.13931" lon="6.3421">
        <ele>548</ele>
        <time>2017-04-29T14:25:06.000Z</time>
      </trkpt>
      <trkpt lat="46.13988" lon="6.34169">
        <ele>545</ele>
        <time>2017-04-29T14:25:13.000Z</time>
      </trkpt>
      <trkpt lat="46.14023" lon="6.34145">
        <ele>542</ele>
        <time>2017-04-29T14:25:17.000Z</time>
      </trkpt>
      <trkpt lat="46.14048" lon="6.34129">
        <ele>541</ele>
        <time>2017-04-29T14:25:20.000Z</time>
      </trkpt>
      <trkpt lat="46.14065" lon="6.34118">
        <ele>541</ele>
        <time>2017-04-29T14:25:22.000Z</time>
      </trkpt>
      <trkpt lat="46.14087" lon="6.34098">
        <ele>542</ele>
        <time>2017-04-29T14:25:25.000Z</time>
      </trkpt>
      <trkpt lat="46.14101" lon="6.34078">
        <ele>538</ele>
        <time>2017-04-29T14:25:28.000Z</time>
      </trkpt>
      <trkpt lat="46.14112" lon="6.3407">
        <ele>538</ele>
        <time>2017-04-29T14:25:30.000Z</time>
      </trkpt>
      <trkpt lat="46.14125" lon="6.34064">
        <ele>538</ele>
        <time>2017-04-29T14:25:32.000Z</time>
      </trkpt>
      <trkpt lat="46.14131" lon="6.34061">
        <ele>538</ele>
        <time>2017-04-29T14:25:33.000Z</time>
      </trkpt>
      <trkpt lat="46.14155" lon="6.34052">
        <ele>539</ele>
        <time>2017-04-29T14:25:37.000Z</time>
      </trkpt>
      <trkpt lat="46.14161" lon="6.34048">
        <ele>539</ele>
        <time>2017-04-29T14:25:38.000Z</time>
      </trkpt>
      <trkpt lat="46.14211" lon="6.34023">
        <ele>541</ele>
        <time>2017-04-29T14:25:45.000Z</time>
      </trkpt>
      <trkpt lat="46.14266" lon="6.33993">
        <ele>541</ele>
        <time>2017-04-29T14:25:53.000Z</time>
      </trkpt>
      <trkpt lat="46.14272" lon="6.33989">
        <ele>541</ele>
        <time>2017-04-29T14:25:54.000Z</time>
      </trkpt>
      <trkpt lat="46.1432" lon="6.33944">
        <ele>540</ele>
        <time>2017-04-29T14:26:02.000Z</time>
      </trkpt>
      <trkpt lat="46.14377" lon="6.33918">
        <ele>542</ele>
        <time>2017-04-29T14:26:10.000Z</time>
      </trkpt>
      <trkpt lat="46.14419" lon="6.339">
        <ele>540</ele>
        <time>2017-04-29T14:26:16.000Z</time>
      </trkpt>
      <trkpt lat="46.14477" lon="6.33878">
        <ele>539</ele>
        <time>2017-04-29T14:26:24.000Z</time>
      </trkpt>
      <trkpt lat="46.14519" lon="6.33864">
        <ele>537</ele>
        <time>2017-04-29T14:26:29.000Z</time>
      </trkpt>
      <trkpt lat="46.14535" lon="6.33851">
        <ele>537</ele>
        <time>2017-04-29T14:26:31.000Z</time>
      </trkpt>
      <trkpt lat="46.14549" lon="6.33832">
        <ele>533</ele>
        <time>2017-04-29T14:26:33.000Z</time>
      </trkpt>
      <trkpt lat="46.14563" lon="6.33814">
        <ele>533</ele>
        <time>2017-04-29T14:26:35.000Z</time>
      </trkpt>
      <trkpt lat="46.14572" lon="6.33806">
        <ele>532</ele>
        <time>2017-04-29T14:26:36.000Z</time>
      </trkpt>
      <trkpt lat="46.14588" lon="6.33792">
        <ele>533</ele>
        <time>2017-04-29T14:26:38.000Z</time>
      </trkpt>
      <trkpt lat="46.14605" lon="6.33778">
        <ele>533</ele>
        <time>2017-04-29T14:26:40.000Z</time>
      </trkpt>
      <trkpt lat="46.14637" lon="6.33753">
        <ele>533</ele>
        <time>2017-04-29T14:26:44.000Z</time>
      </trkpt>
      <trkpt lat="46.14668" lon="6.33731">
        <ele>532</ele>
        <time>2017-04-29T14:26:48.000Z</time>
      </trkpt>
      <trkpt lat="46.14691" lon="6.33716">
        <ele>531</ele>
        <time>2017-04-29T14:26:51.000Z</time>
      </trkpt>
      <trkpt lat="46.14704" lon="6.33709">
        <ele>531</ele>
        <time>2017-04-29T14:26:53.000Z</time>
      </trkpt>
      <trkpt lat="46.14715" lon="6.33703">
        <ele>531</ele>
        <time>2017-04-29T14:26:55.000Z</time>
      </trkpt>
      <trkpt lat="46.14722" lon="6.33692">
        <ele>531</ele>
        <time>2017-04-29T14:26:57.000Z</time>
      </trkpt>
      <trkpt lat="46.14717" lon="6.33667">
        <ele>530</ele>
        <time>2017-04-29T14:27:00.000Z</time>
      </trkpt>
      <trkpt lat="46.14707" lon="6.33635">
        <ele>526</ele>
        <time>2017-04-29T14:27:03.000Z</time>
      </trkpt>
      <trkpt lat="46.14695" lon="6.33601">
        <ele>525</ele>
        <time>2017-04-29T14:27:06.000Z</time>
      </trkpt>
      <trkpt lat="46.1469" lon="6.33593">
        <ele>525</ele>
        <time>2017-04-29T14:27:07.000Z</time>
      </trkpt>
      <trkpt lat="46.14683" lon="6.33587">
        <ele>524</ele>
        <time>2017-04-29T14:27:08.000Z</time>
      </trkpt>
      <trkpt lat="46.14676" lon="6.33583">
        <ele>523</ele>
        <time>2017-04-29T14:27:09.000Z</time>
      </trkpt>
      <trkpt lat="46.14667" lon="6.33581">
        <ele>523</ele>
        <time>2017-04-29T14:27:10.000Z</time>
      </trkpt>
      <trkpt lat="46.14648" lon="6.3358">
        <ele>521</ele>
        <time>2017-04-29T14:27:12.000Z</time>
      </trkpt>
      <trkpt lat="46.1462" lon="6.33578">
        <ele>521</ele>
        <time>2017-04-29T14:27:15.000Z</time>
      </trkpt>
      <trkpt lat="46.14602" lon="6.33575">
        <ele>521</ele>
        <time>2017-04-29T14:27:17.000Z</time>
      </trkpt>
      <trkpt lat="46.14588" lon="6.33561">
        <ele>520</ele>
        <time>2017-04-29T14:27:19.000Z</time>
      </trkpt>
      <trkpt lat="46.1458" lon="6.33539">
        <ele>516</ele>
        <time>2017-04-29T14:27:21.000Z</time>
      </trkpt>
      <trkpt lat="46.14573" lon="6.335">
        <ele>512</ele>
        <time>2017-04-29T14:27:24.000Z</time>
      </trkpt>
      <trkpt lat="46.14567" lon="6.33474">
        <ele>511</ele>
        <time>2017-04-29T14:27:26.000Z</time>
      </trkpt>
      <trkpt lat="46.14562" lon="6.33461">
        <ele>510</ele>
        <time>2017-04-29T14:27:27.000Z</time>
      </trkpt>
      <trkpt lat="46.14557" lon="6.3345">
        <ele>510</ele>
        <time>2017-04-29T14:27:28.000Z</time>
      </trkpt>
      <trkpt lat="46.14542" lon="6.33434">
        <ele>509</ele>
        <time>2017-04-29T14:27:30.000Z</time>
      </trkpt>
      <trkpt lat="46.14524" lon="6.33423">
        <ele>509</ele>
        <time>2017-04-29T14:27:32.000Z</time>
      </trkpt>
      <trkpt lat="46.14515" lon="6.33419">
        <ele>508</ele>
        <time>2017-04-29T14:27:33.000Z</time>
      </trkpt>
      <trkpt lat="46.14483" lon="6.33413">
        <ele>505</ele>
        <time>2017-04-29T14:27:37.000Z</time>
      </trkpt>
      <trkpt lat="46.14477" lon="6.3341">
        <ele>504</ele>
        <time>2017-04-29T14:27:39.000Z</time>
      </trkpt>
      <trkpt lat="46.14461" lon="6.33394">
        <ele>503</ele>
        <time>2017-04-29T14:27:41.000Z</time>
      </trkpt>
      <trkpt lat="46.14438" lon="6.33394">
        <ele>502</ele>
        <time>2017-04-29T14:27:44.000Z</time>
      </trkpt>
      <trkpt lat="46.14422" lon="6.33391">
        <ele>502</ele>
        <time>2017-04-29T14:27:46.000Z</time>
      </trkpt>
      <trkpt lat="46.14402" lon="6.3338">
        <ele>498</ele>
        <time>2017-04-29T14:27:49.000Z</time>
      </trkpt>
      <trkpt lat="46.14392" lon="6.33364">
        <ele>497</ele>
        <time>2017-04-29T14:27:51.000Z</time>
      </trkpt>
      <trkpt lat="46.14384" lon="6.33349">
        <ele>496</ele>
        <time>2017-04-29T14:27:53.000Z</time>
      </trkpt>
      <trkpt lat="46.14377" lon="6.33338">
        <ele>496</ele>
        <time>2017-04-29T14:27:55.000Z</time>
      </trkpt>
      <trkpt lat="46.14375" lon="6.33333">
        <ele>492</ele>
        <time>2017-04-29T14:27:56.000Z</time>
      </trkpt>
      <trkpt lat="46.14375" lon="6.33318">
        <ele>492</ele>
        <time>2017-04-29T14:27:58.000Z</time>
      </trkpt>
      <trkpt lat="46.14386" lon="6.33282">
        <ele>491</ele>
        <time>2017-04-29T14:28:02.000Z</time>
      </trkpt>
      <trkpt lat="46.14397" lon="6.33253">
        <ele>491</ele>
        <time>2017-04-29T14:28:05.000Z</time>
      </trkpt>
      <trkpt lat="46.14413" lon="6.33228">
        <ele>488</ele>
        <time>2017-04-29T14:28:08.000Z</time>
      </trkpt>
      <trkpt lat="46.14433" lon="6.33208">
        <ele>490</ele>
        <time>2017-04-29T14:28:11.000Z</time>
      </trkpt>
      <trkpt lat="46.14463" lon="6.33184">
        <ele>489</ele>
        <time>2017-04-29T14:28:15.000Z</time>
      </trkpt>
      <trkpt lat="46.14479" lon="6.33172">
        <ele>489</ele>
        <time>2017-04-29T14:28:17.000Z</time>
      </trkpt>
      <trkpt lat="46.14534" lon="6.33132">
        <ele>488</ele>
        <time>2017-04-29T14:28:24.000Z</time>
      </trkpt>
      <trkpt lat="46.14588" lon="6.33091">
        <ele>490</ele>
        <time>2017-04-29T14:28:31.000Z</time>
      </trkpt>
      <trkpt lat="46.14602" lon="6.33079">
        <ele>489</ele>
        <time>2017-04-29T14:28:33.000Z</time>
      </trkpt>
      <trkpt lat="46.14633" lon="6.33052">
        <ele>490</ele>
        <time>2017-04-29T14:28:38.000Z</time>
      </trkpt>
      <trkpt lat="46.14653" lon="6.33034">
        <ele>489</ele>
        <time>2017-04-29T14:28:42.000Z</time>
      </trkpt>
      <trkpt lat="46.14681" lon="6.33001">
        <ele>491</ele>
        <time>2017-04-29T14:28:48.000Z</time>
      </trkpt>
      <trkpt lat="46.1471" lon="6.32966">
        <ele>489</ele>
        <time>2017-04-29T14:28:54.000Z</time>
      </trkpt>
      <trkpt lat="46.1476" lon="6.32933">
        <ele>492</ele>
        <time>2017-04-29T14:29:02.000Z</time>
      </trkpt>
      <trkpt lat="46.148" lon="6.32898">
        <ele>491</ele>
        <time>2017-04-29T14:29:09.000Z</time>
      </trkpt>
      <trkpt lat="46.14845" lon="6.32851">
        <ele>492</ele>
        <time>2017-04-29T14:29:17.000Z</time>
      </trkpt>
      <trkpt lat="46.14897" lon="6.32819">
        <ele>492</ele>
        <time>2017-04-29T14:29:25.000Z</time>
      </trkpt>
      <trkpt lat="46.14932" lon="6.32796">
        <ele>496</ele>
        <time>2017-04-29T14:29:31.000Z</time>
      </trkpt>
      <trkpt lat="46.14955" lon="6.32782">
        <ele>497</ele>
        <time>2017-04-29T14:29:35.000Z</time>
      </trkpt>
      <trkpt lat="46.14984" lon="6.32763">
        <ele>498</ele>
        <time>2017-04-29T14:29:40.000Z</time>
      </trkpt>
      <trkpt lat="46.14993" lon="6.32752">
        <ele>498</ele>
        <time>2017-04-29T14:29:42.000Z</time>
      </trkpt>
      <trkpt lat="46.15" lon="6.32737">
        <ele>496</ele>
        <time>2017-04-29T14:29:44.000Z</time>
      </trkpt>
      <trkpt lat="46.15005" lon="6.32711">
        <ele>498</ele>
        <time>2017-04-29T14:29:47.000Z</time>
      </trkpt>
      <trkpt lat="46.15006" lon="6.32681">
        <ele>496</ele>
        <time>2017-04-29T14:29:50.000Z</time>
      </trkpt>
      <trkpt lat="46.15003" lon="6.32651">
        <ele>493</ele>
        <time>2017-04-29T14:29:53.000Z</time>
      </trkpt>
      <trkpt lat="46.15004" lon="6.32642">
        <ele>493</ele>
        <time>2017-04-29T14:29:54.000Z</time>
      </trkpt>
      <trkpt lat="46.15007" lon="6.32635">
        <ele>493</ele>
        <time>2017-04-29T14:29:55.000Z</time>
      </trkpt>
      <trkpt lat="46.15016" lon="6.32627">
        <ele>493</ele>
        <time>2017-04-29T14:29:57.000Z</time>
      </trkpt>
      <trkpt lat="46.15021" lon="6.32625">
        <ele>493</ele>
        <time>2017-04-29T14:29:58.000Z</time>
      </trkpt>
      <trkpt lat="46.15024" lon="6.32619">
        <ele>493</ele>
        <time>2017-04-29T14:29:59.000Z</time>
      </trkpt>
      <trkpt lat="46.15024" lon="6.32601">
        <ele>492</ele>
        <time>2017-04-29T14:30:01.000Z</time>
      </trkpt>
      <trkpt lat="46.15015" lon="6.32545">
        <ele>489</ele>
        <time>2017-04-29T14:30:06.000Z</time>
      </trkpt>
      <trkpt lat="46.15" lon="6.32483">
        <ele>486</ele>
        <time>2017-04-29T14:30:11.000Z</time>
      </trkpt>
      <trkpt lat="46.14983" lon="6.3242">
        <ele>486</ele>
        <time>2017-04-29T14:30:16.000Z</time>
      </trkpt>
      <trkpt lat="46.14965" lon="6.32343">
        <ele>485</ele>
        <time>2017-04-29T14:30:22.000Z</time>
      </trkpt>
      <trkpt lat="46.14963" lon="6.3233">
        <ele>485</ele>
        <time>2017-04-29T14:30:23.000Z</time>
      </trkpt>
      <trkpt lat="46.14962" lon="6.32266">
        <ele>485</ele>
        <time>2017-04-29T14:30:28.000Z</time>
      </trkpt>
      <trkpt lat="46.14963" lon="6.32203">
        <ele>485</ele>
        <time>2017-04-29T14:30:33.000Z</time>
      </trkpt>
      <trkpt lat="46.14969" lon="6.32121">
        <ele>484</ele>
        <time>2017-04-29T14:30:40.000Z</time>
      </trkpt>
      <trkpt lat="46.14974" lon="6.32101">
        <ele>484</ele>
        <time>2017-04-29T14:30:42.000Z</time>
      </trkpt>
      <trkpt lat="46.14977" lon="6.32091">
        <ele>484</ele>
        <time>2017-04-29T14:30:43.000Z</time>
      </trkpt>
      <trkpt lat="46.14975" lon="6.32073">
        <ele>482</ele>
        <time>2017-04-29T14:30:45.000Z</time>
      </trkpt>
      <trkpt lat="46.14963" lon="6.32063">
        <ele>482</ele>
        <time>2017-04-29T14:30:47.000Z</time>
      </trkpt>
      <trkpt lat="46.14949" lon="6.32067">
        <ele>482</ele>
        <time>2017-04-29T14:30:49.000Z</time>
      </trkpt>
      <trkpt lat="46.14935" lon="6.32077">
        <ele>482</ele>
        <time>2017-04-29T14:30:51.000Z</time>
      </trkpt>
      <trkpt lat="46.1492" lon="6.32082">
        <ele>483</ele>
        <time>2017-04-29T14:30:53.000Z</time>
      </trkpt>
      <trkpt lat="46.14913" lon="6.32082">
        <ele>483</ele>
        <time>2017-04-29T14:30:54.000Z</time>
      </trkpt>
      <trkpt lat="46.14904" lon="6.32081">
        <ele>482</ele>
        <time>2017-04-29T14:30:55.000Z</time>
      </trkpt>
      <trkpt lat="46.14854" lon="6.32058">
        <ele>480</ele>
        <time>2017-04-29T14:31:01.000Z</time>
      </trkpt>
      <trkpt lat="46.14828" lon="6.32042">
        <ele>477</ele>
        <time>2017-04-29T14:31:04.000Z</time>
      </trkpt>
      <trkpt lat="46.1481" lon="6.32032">
        <ele>476</ele>
        <time>2017-04-29T14:31:06.000Z</time>
      </trkpt>
      <trkpt lat="46.14783" lon="6.32018">
        <ele>476</ele>
        <time>2017-04-29T14:31:09.000Z</time>
      </trkpt>
      <trkpt lat="46.14766" lon="6.32006">
        <ele>475</ele>
        <time>2017-04-29T14:31:12.000Z</time>
      </trkpt>
      <trkpt lat="46.14763" lon="6.32002">
        <ele>475</ele>
        <time>2017-04-29T14:31:14.000Z</time>
      </trkpt>
      <trkpt lat="46.14764" lon="6.3199">
        <ele>474</ele>
        <time>2017-04-29T14:31:15.000Z</time>
      </trkpt>
      <trkpt lat="46.14771" lon="6.31978">
        <ele>474</ele>
        <time>2017-04-29T14:31:17.000Z</time>
      </trkpt>
      <trkpt lat="46.14776" lon="6.31969">
        <ele>474</ele>
        <time>2017-04-29T14:31:18.000Z</time>
      </trkpt>
      <trkpt lat="46.14796" lon="6.31929">
        <ele>474</ele>
        <time>2017-04-29T14:31:22.000Z</time>
      </trkpt>
      <trkpt lat="46.14809" lon="6.31896">
        <ele>474</ele>
        <time>2017-04-29T14:31:25.000Z</time>
      </trkpt>
      <trkpt lat="46.14831" lon="6.31816">
        <ele>474</ele>
        <time>2017-04-29T14:31:32.000Z</time>
      </trkpt>
      <trkpt lat="46.14856" lon="6.31744">
        <ele>475</ele>
        <time>2017-04-29T14:31:39.000Z</time>
      </trkpt>
      <trkpt lat="46.14887" lon="6.31674">
        <ele>474</ele>
        <time>2017-04-29T14:31:46.000Z</time>
      </trkpt>
      <trkpt lat="46.14919" lon="6.316">
        <ele>473</ele>
        <time>2017-04-29T14:31:53.000Z</time>
      </trkpt>
      <trkpt lat="46.1496" lon="6.31538">
        <ele>473</ele>
        <time>2017-04-29T14:32:00.000Z</time>
      </trkpt>
      <trkpt lat="46.15003" lon="6.31486">
        <ele>474</ele>
        <time>2017-04-29T14:32:07.000Z</time>
      </trkpt>
      <trkpt lat="46.15038" lon="6.31424">
        <ele>473</ele>
        <time>2017-04-29T14:32:14.000Z</time>
      </trkpt>
      <trkpt lat="46.15072" lon="6.31361">
        <ele>473</ele>
        <time>2017-04-29T14:32:21.000Z</time>
      </trkpt>
      <trkpt lat="46.15081" lon="6.31342">
        <ele>473</ele>
        <time>2017-04-29T14:32:23.000Z</time>
      </trkpt>
      <trkpt lat="46.15115" lon="6.31273">
        <ele>471</ele>
        <time>2017-04-29T14:32:30.000Z</time>
      </trkpt>
      <trkpt lat="46.1515" lon="6.31205">
        <ele>470</ele>
        <time>2017-04-29T14:32:37.000Z</time>
      </trkpt>
      <trkpt lat="46.15185" lon="6.31141">
        <ele>473</ele>
        <time>2017-04-29T14:32:44.000Z</time>
      </trkpt>
      <trkpt lat="46.15218" lon="6.31078">
        <ele>474</ele>
        <time>2017-04-29T14:32:51.000Z</time>
      </trkpt>
      <trkpt lat="46.15237" lon="6.31041">
        <ele>474</ele>
        <time>2017-04-29T14:32:55.000Z</time>
      </trkpt>
      <trkpt lat="46.15269" lon="6.30976">
        <ele>475</ele>
        <time>2017-04-29T14:33:02.000Z</time>
      </trkpt>
      <trkpt lat="46.15291" lon="6.30902">
        <ele>473</ele>
        <time>2017-04-29T14:33:09.000Z</time>
      </trkpt>
      <trkpt lat="46.15304" lon="6.30822">
        <ele>473</ele>
        <time>2017-04-29T14:33:16.000Z</time>
      </trkpt>
      <trkpt lat="46.15335" lon="6.30752">
        <ele>475</ele>
        <time>2017-04-29T14:33:24.000Z</time>
      </trkpt>
      <trkpt lat="46.15374" lon="6.30693">
        <ele>476</ele>
        <time>2017-04-29T14:33:32.000Z</time>
      </trkpt>
      <trkpt lat="46.15394" lon="6.30662">
        <ele>476</ele>
        <time>2017-04-29T14:33:36.000Z</time>
      </trkpt>
      <trkpt lat="46.15417" lon="6.30598">
        <ele>477</ele>
        <time>2017-04-29T14:33:43.000Z</time>
      </trkpt>
      <trkpt lat="46.15434" lon="6.30517">
        <ele>476</ele>
        <time>2017-04-29T14:33:51.000Z</time>
      </trkpt>
      <trkpt lat="46.15446" lon="6.30437">
        <ele>474</ele>
        <time>2017-04-29T14:33:58.000Z</time>
      </trkpt>
      <trkpt lat="46.15464" lon="6.3036">
        <ele>474</ele>
        <time>2017-04-29T14:34:05.000Z</time>
      </trkpt>
      <trkpt lat="46.15466" lon="6.30349">
        <ele>474</ele>
        <time>2017-04-29T14:34:06.000Z</time>
      </trkpt>
      <trkpt lat="46.15484" lon="6.30268">
        <ele>473</ele>
        <time>2017-04-29T14:34:13.000Z</time>
      </trkpt>
      <trkpt lat="46.15502" lon="6.30187">
        <ele>474</ele>
        <time>2017-04-29T14:34:20.000Z</time>
      </trkpt>
      <trkpt lat="46.15519" lon="6.30106">
        <ele>473</ele>
        <time>2017-04-29T14:34:27.000Z</time>
      </trkpt>
      <trkpt lat="46.15535" lon="6.30032">
        <ele>472</ele>
        <time>2017-04-29T14:34:33.000Z</time>
      </trkpt>
      <trkpt lat="46.15554" lon="6.29948">
        <ele>472</ele>
        <time>2017-04-29T14:34:40.000Z</time>
      </trkpt>
      <trkpt lat="46.15559" lon="6.29924">
        <ele>472</ele>
        <time>2017-04-29T14:34:42.000Z</time>
      </trkpt>
      <trkpt lat="46.15577" lon="6.29844">
        <ele>472</ele>
        <time>2017-04-29T14:34:49.000Z</time>
      </trkpt>
      <trkpt lat="46.15594" lon="6.29766">
        <ele>472</ele>
        <time>2017-04-29T14:34:56.000Z</time>
      </trkpt>
      <trkpt lat="46.15609" lon="6.2969">
        <ele>472</ele>
        <time>2017-04-29T14:35:03.000Z</time>
      </trkpt>
      <trkpt lat="46.15628" lon="6.29606">
        <ele>471</ele>
        <time>2017-04-29T14:35:11.000Z</time>
      </trkpt>
      <trkpt lat="46.15645" lon="6.29524">
        <ele>472</ele>
        <time>2017-04-29T14:35:19.000Z</time>
      </trkpt>
      <trkpt lat="46.15649" lon="6.29504">
        <ele>472</ele>
        <time>2017-04-29T14:35:21.000Z</time>
      </trkpt>
      <trkpt lat="46.15667" lon="6.29423">
        <ele>475</ele>
        <time>2017-04-29T14:35:29.000Z</time>
      </trkpt>
      <trkpt lat="46.15684" lon="6.29342">
        <ele>475</ele>
        <time>2017-04-29T14:35:37.000Z</time>
      </trkpt>
      <trkpt lat="46.15702" lon="6.29259">
        <ele>473</ele>
        <time>2017-04-29T14:35:45.000Z</time>
      </trkpt>
      <trkpt lat="46.15707" lon="6.29238">
        <ele>472</ele>
        <time>2017-04-29T14:35:47.000Z</time>
      </trkpt>
      <trkpt lat="46.15725" lon="6.29154">
        <ele>471</ele>
        <time>2017-04-29T14:35:55.000Z</time>
      </trkpt>
      <trkpt lat="46.15741" lon="6.29079">
        <ele>470</ele>
        <time>2017-04-29T14:36:02.000Z</time>
      </trkpt>
      <trkpt lat="46.15758" lon="6.29001">
        <ele>472</ele>
        <time>2017-04-29T14:36:09.000Z</time>
      </trkpt>
      <trkpt lat="46.15776" lon="6.28922">
        <ele>472</ele>
        <time>2017-04-29T14:36:16.000Z</time>
      </trkpt>
      <trkpt lat="46.15794" lon="6.28844">
        <ele>472</ele>
        <time>2017-04-29T14:36:23.000Z</time>
      </trkpt>
      <trkpt lat="46.15809" lon="6.28778">
        <ele>471</ele>
        <time>2017-04-29T14:36:29.000Z</time>
      </trkpt>
      <trkpt lat="46.15827" lon="6.28701">
        <ele>471</ele>
        <time>2017-04-29T14:36:36.000Z</time>
      </trkpt>
      <trkpt lat="46.15845" lon="6.28627">
        <ele>474</ele>
        <time>2017-04-29T14:36:43.000Z</time>
      </trkpt>
      <trkpt lat="46.15855" lon="6.28589">
        <ele>474</ele>
        <time>2017-04-29T14:36:47.000Z</time>
      </trkpt>
      <trkpt lat="46.15865" lon="6.28551">
        <ele>474</ele>
        <time>2017-04-29T14:36:51.000Z</time>
      </trkpt>
      <trkpt lat="46.15879" lon="6.28484">
        <ele>474</ele>
        <time>2017-04-29T14:36:58.000Z</time>
      </trkpt>
      <trkpt lat="46.15885" lon="6.28456">
        <ele>474</ele>
        <time>2017-04-29T14:37:01.000Z</time>
      </trkpt>
      <trkpt lat="46.15895" lon="6.28422">
        <ele>474</ele>
        <time>2017-04-29T14:37:05.000Z</time>
      </trkpt>
      <trkpt lat="46.15904" lon="6.28398">
        <ele>475</ele>
        <time>2017-04-29T14:37:08.000Z</time>
      </trkpt>
      <trkpt lat="46.15937" lon="6.2833">
        <ele>478</ele>
        <time>2017-04-29T14:37:17.000Z</time>
      </trkpt>
      <trkpt lat="46.15972" lon="6.28261">
        <ele>478</ele>
        <time>2017-04-29T14:37:26.000Z</time>
      </trkpt>
      <trkpt lat="46.16005" lon="6.28196">
        <ele>480</ele>
        <time>2017-04-29T14:37:34.000Z</time>
      </trkpt>
      <trkpt lat="46.16033" lon="6.28123">
        <ele>480</ele>
        <time>2017-04-29T14:37:42.000Z</time>
      </trkpt>
      <trkpt lat="46.16062" lon="6.28046">
        <ele>479</ele>
        <time>2017-04-29T14:37:50.000Z</time>
      </trkpt>
      <trkpt lat="46.16069" lon="6.28026">
        <ele>479</ele>
        <time>2017-04-29T14:37:52.000Z</time>
      </trkpt>
      <trkpt lat="46.16099" lon="6.27951">
        <ele>480</ele>
        <time>2017-04-29T14:38:00.000Z</time>
      </trkpt>
      <trkpt lat="46.16127" lon="6.27877">
        <ele>480</ele>
        <time>2017-04-29T14:38:08.000Z</time>
      </trkpt>
      <trkpt lat="46.16157" lon="6.27801">
        <ele>479</ele>
        <time>2017-04-29T14:38:16.000Z</time>
      </trkpt>
      <trkpt lat="46.16185" lon="6.27724">
        <ele>479</ele>
        <time>2017-04-29T14:38:24.000Z</time>
      </trkpt>
      <trkpt lat="46.16215" lon="6.27649">
        <ele>480</ele>
        <time>2017-04-29T14:38:32.000Z</time>
      </trkpt>
      <trkpt lat="46.1622" lon="6.27641">
        <ele>480</ele>
        <time>2017-04-29T14:38:33.000Z</time>
      </trkpt>
      <trkpt lat="46.1623" lon="6.27628">
        <ele>481</ele>
        <time>2017-04-29T14:38:35.000Z</time>
      </trkpt>
      <trkpt lat="46.16235" lon="6.27621">
        <ele>481</ele>
        <time>2017-04-29T14:38:36.000Z</time>
      </trkpt>
      <trkpt lat="46.16239" lon="6.27603">
        <ele>481</ele>
        <time>2017-04-29T14:38:38.000Z</time>
      </trkpt>
      <trkpt lat="46.16244" lon="6.27573">
        <ele>482</ele>
        <time>2017-04-29T14:38:41.000Z</time>
      </trkpt>
      <trkpt lat="46.16272" lon="6.27499">
        <ele>483</ele>
        <time>2017-04-29T14:38:49.000Z</time>
      </trkpt>
      <trkpt lat="46.163" lon="6.27425">
        <ele>484</ele>
        <time>2017-04-29T14:38:57.000Z</time>
      </trkpt>
      <trkpt lat="46.16327" lon="6.27353">
        <ele>484</ele>
        <time>2017-04-29T14:39:05.000Z</time>
      </trkpt>
      <trkpt lat="46.16338" lon="6.27326">
        <ele>484</ele>
        <time>2017-04-29T14:39:08.000Z</time>
      </trkpt>
      <trkpt lat="46.16369" lon="6.27261">
        <ele>484</ele>
        <time>2017-04-29T14:39:16.000Z</time>
      </trkpt>
      <trkpt lat="46.16386" lon="6.27243">
        <ele>482</ele>
        <time>2017-04-29T14:39:19.000Z</time>
      </trkpt>
      <trkpt lat="46.16394" lon="6.27238">
        <ele>483</ele>
        <time>2017-04-29T14:39:20.000Z</time>
      </trkpt>
      <trkpt lat="46.16409" lon="6.27231">
        <ele>483</ele>
        <time>2017-04-29T14:39:22.000Z</time>
      </trkpt>
      <trkpt lat="46.16418" lon="6.27228">
        <ele>479</ele>
        <time>2017-04-29T14:39:23.000Z</time>
      </trkpt>
      <trkpt lat="46.16435" lon="6.27227">
        <ele>478</ele>
        <time>2017-04-29T14:39:25.000Z</time>
      </trkpt>
      <trkpt lat="46.16444" lon="6.27228">
        <ele>477</ele>
        <time>2017-04-29T14:39:26.000Z</time>
      </trkpt>
      <trkpt lat="46.16488" lon="6.27241">
        <ele>475</ele>
        <time>2017-04-29T14:39:31.000Z</time>
      </trkpt>
      <trkpt lat="46.16515" lon="6.27251">
        <ele>476</ele>
        <time>2017-04-29T14:39:34.000Z</time>
      </trkpt>
      <trkpt lat="46.16534" lon="6.27257">
        <ele>475</ele>
        <time>2017-04-29T14:39:36.000Z</time>
      </trkpt>
      <trkpt lat="46.16563" lon="6.27269">
        <ele>472</ele>
        <time>2017-04-29T14:39:39.000Z</time>
      </trkpt>
      <trkpt lat="46.16572" lon="6.27275">
        <ele>472</ele>
        <time>2017-04-29T14:39:40.000Z</time>
      </trkpt>
      <trkpt lat="46.16598" lon="6.273">
        <ele>468</ele>
        <time>2017-04-29T14:39:43.000Z</time>
      </trkpt>
      <trkpt lat="46.16624" lon="6.27327">
        <ele>468</ele>
        <time>2017-04-29T14:39:46.000Z</time>
      </trkpt>
      <trkpt lat="46.16633" lon="6.27334">
        <ele>477</ele>
        <time>2017-04-29T14:39:47.000Z</time>
      </trkpt>
      <trkpt lat="46.16643" lon="6.2734">
        <ele>475</ele>
        <time>2017-04-29T14:39:48.000Z</time>
      </trkpt>
      <trkpt lat="46.16654" lon="6.27345">
        <ele>474</ele>
        <time>2017-04-29T14:39:49.000Z</time>
      </trkpt>
      <trkpt lat="46.16676" lon="6.27352">
        <ele>469</ele>
        <time>2017-04-29T14:39:51.000Z</time>
      </trkpt>
      <trkpt lat="46.16731" lon="6.27363">
        <ele>468</ele>
        <time>2017-04-29T14:39:56.000Z</time>
      </trkpt>
      <trkpt lat="46.16753" lon="6.27367">
        <ele>464</ele>
        <time>2017-04-29T14:39:58.000Z</time>
      </trkpt>
      <trkpt lat="46.16775" lon="6.27371">
        <ele>464</ele>
        <time>2017-04-29T14:40:00.000Z</time>
      </trkpt>
      <trkpt lat="46.16787" lon="6.27372">
        <ele>464</ele>
        <time>2017-04-29T14:40:01.000Z</time>
      </trkpt>
      <trkpt lat="46.16808" lon="6.27365">
        <ele>463</ele>
        <time>2017-04-29T14:40:03.000Z</time>
      </trkpt>
      <trkpt lat="46.16827" lon="6.27348">
        <ele>459</ele>
        <time>2017-04-29T14:40:05.000Z</time>
      </trkpt>
      <trkpt lat="46.16834" lon="6.27336">
        <ele>456</ele>
        <time>2017-04-29T14:40:06.000Z</time>
      </trkpt>
      <trkpt lat="46.16839" lon="6.27322">
        <ele>452</ele>
        <time>2017-04-29T14:40:07.000Z</time>
      </trkpt>
      <trkpt lat="46.16847" lon="6.27292">
        <ele>448</ele>
        <time>2017-04-29T14:40:09.000Z</time>
      </trkpt>
      <trkpt lat="46.16852" lon="6.27246">
        <ele>445</ele>
        <time>2017-04-29T14:40:12.000Z</time>
      </trkpt>
      <trkpt lat="46.1686" lon="6.27174">
        <ele>450</ele>
        <time>2017-04-29T14:40:17.000Z</time>
      </trkpt>
      <trkpt lat="46.16854" lon="6.2715">
        <ele>461</ele>
        <time>2017-04-29T14:40:19.000Z</time>
      </trkpt>
      <trkpt lat="46.16839" lon="6.27137">
        <ele>463</ele>
        <time>2017-04-29T14:40:21.000Z</time>
      </trkpt>
      <trkpt lat="46.1683" lon="6.27133">
        <ele>464</ele>
        <time>2017-04-29T14:40:22.000Z</time>
      </trkpt>
      <trkpt lat="46.16821" lon="6.27131">
        <ele>464</ele>
        <time>2017-04-29T14:40:23.000Z</time>
      </trkpt>
      <trkpt lat="46.16804" lon="6.27127">
        <ele>465</ele>
        <time>2017-04-29T14:40:25.000Z</time>
      </trkpt>
      <trkpt lat="46.16785" lon="6.27125">
        <ele>464</ele>
        <time>2017-04-29T14:40:27.000Z</time>
      </trkpt>
      <trkpt lat="46.16749" lon="6.27114">
        <ele>459</ele>
        <time>2017-04-29T14:40:31.000Z</time>
      </trkpt>
      <trkpt lat="46.16732" lon="6.27101">
        <ele>460</ele>
        <time>2017-04-29T14:40:33.000Z</time>
      </trkpt>
      <trkpt lat="46.16712" lon="6.27071">
        <ele>460</ele>
        <time>2017-04-29T14:40:36.000Z</time>
      </trkpt>
      <trkpt lat="46.16702" lon="6.27047">
        <ele>459</ele>
        <time>2017-04-29T14:40:38.000Z</time>
      </trkpt>
      <trkpt lat="46.16698" lon="6.27019">
        <ele>457</ele>
        <time>2017-04-29T14:40:40.000Z</time>
      </trkpt>
      <trkpt lat="46.16698" lon="6.26991">
        <ele>454</ele>
        <time>2017-04-29T14:40:42.000Z</time>
      </trkpt>
      <trkpt lat="46.16703" lon="6.26963">
        <ele>454</ele>
        <time>2017-04-29T14:40:44.000Z</time>
      </trkpt>
      <trkpt lat="46.16712" lon="6.26938">
        <ele>453</ele>
        <time>2017-04-29T14:40:46.000Z</time>
      </trkpt>
      <trkpt lat="46.16741" lon="6.269">
        <ele>451</ele>
        <time>2017-04-29T14:40:50.000Z</time>
      </trkpt>
      <trkpt lat="46.16757" lon="6.26885">
        <ele>459</ele>
        <time>2017-04-29T14:40:52.000Z</time>
      </trkpt>
      <trkpt lat="46.16792" lon="6.26858">
        <ele>459</ele>
        <time>2017-04-29T14:40:56.000Z</time>
      </trkpt>
      <trkpt lat="46.16809" lon="6.26844">
        <ele>461</ele>
        <time>2017-04-29T14:40:58.000Z</time>
      </trkpt>
      <trkpt lat="46.16824" lon="6.26829">
        <ele>458</ele>
        <time>2017-04-29T14:41:00.000Z</time>
      </trkpt>
      <trkpt lat="46.16837" lon="6.26809">
        <ele>465</ele>
        <time>2017-04-29T14:41:02.000Z</time>
      </trkpt>
      <trkpt lat="46.16846" lon="6.26786">
        <ele>464</ele>
        <time>2017-04-29T14:41:04.000Z</time>
      </trkpt>
      <trkpt lat="46.16852" lon="6.2676">
        <ele>460</ele>
        <time>2017-04-29T14:41:06.000Z</time>
      </trkpt>
      <trkpt lat="46.16858" lon="6.26691">
        <ele>460</ele>
        <time>2017-04-29T14:41:11.000Z</time>
      </trkpt>
      <trkpt lat="46.16862" lon="6.2665">
        <ele>460</ele>
        <time>2017-04-29T14:41:14.000Z</time>
      </trkpt>
      <trkpt lat="46.16857" lon="6.26569">
        <ele>461</ele>
        <time>2017-04-29T14:41:20.000Z</time>
      </trkpt>
      <trkpt lat="46.16835" lon="6.26507">
        <ele>458</ele>
        <time>2017-04-29T14:41:25.000Z</time>
      </trkpt>
      <trkpt lat="46.16822" lon="6.26469">
        <ele>449</ele>
        <time>2017-04-29T14:41:28.000Z</time>
      </trkpt>
      <trkpt lat="46.16818" lon="6.26455">
        <ele>449</ele>
        <time>2017-04-29T14:41:29.000Z</time>
      </trkpt>
      <trkpt lat="46.16807" lon="6.26371">
        <ele>448</ele>
        <time>2017-04-29T14:41:35.000Z</time>
      </trkpt>
      <trkpt lat="46.16807" lon="6.26357">
        <ele>449</ele>
        <time>2017-04-29T14:41:36.000Z</time>
      </trkpt>
      <trkpt lat="46.16807" lon="6.26343">
        <ele>449</ele>
        <time>2017-04-29T14:41:37.000Z</time>
      </trkpt>
      <trkpt lat="46.16818" lon="6.2626">
        <ele>451</ele>
        <time>2017-04-29T14:41:43.000Z</time>
      </trkpt>
      <trkpt lat="46.16823" lon="6.26219">
        <ele>449</ele>
        <time>2017-04-29T14:41:46.000Z</time>
      </trkpt>
      <trkpt lat="46.16833" lon="6.26141">
        <ele>449</ele>
        <time>2017-04-29T14:41:52.000Z</time>
      </trkpt>
      <trkpt lat="46.16838" lon="6.26102">
        <ele>461</ele>
        <time>2017-04-29T14:41:55.000Z</time>
      </trkpt>
      <trkpt lat="46.16841" lon="6.26078">
        <ele>457</ele>
        <time>2017-04-29T14:41:57.000Z</time>
      </trkpt>
      <trkpt lat="46.1685" lon="6.26026">
        <ele>459</ele>
        <time>2017-04-29T14:42:01.000Z</time>
      </trkpt>
      <trkpt lat="46.16866" lon="6.25949">
        <ele>456</ele>
        <time>2017-04-29T14:42:07.000Z</time>
      </trkpt>
      <trkpt lat="46.16889" lon="6.25879">
        <ele>454</ele>
        <time>2017-04-29T14:42:13.000Z</time>
      </trkpt>
      <trkpt lat="46.16918" lon="6.25799">
        <ele>464</ele>
        <time>2017-04-29T14:42:20.000Z</time>
      </trkpt>
      <trkpt lat="46.16929" lon="6.25763">
        <ele>459</ele>
        <time>2017-04-29T14:42:23.000Z</time>
      </trkpt>
      <trkpt lat="46.16933" lon="6.25751">
        <ele>458</ele>
        <time>2017-04-29T14:42:24.000Z</time>
      </trkpt>
      <trkpt lat="46.16935" lon="6.25671">
        <ele>454</ele>
        <time>2017-04-29T14:42:30.000Z</time>
      </trkpt>
      <trkpt lat="46.1693" lon="6.25607">
        <ele>453</ele>
        <time>2017-04-29T14:42:35.000Z</time>
      </trkpt>
      <trkpt lat="46.16934" lon="6.25556">
        <ele>449</ele>
        <time>2017-04-29T14:42:39.000Z</time>
      </trkpt>
      <trkpt lat="46.16951" lon="6.25509">
        <ele>449</ele>
        <time>2017-04-29T14:42:43.000Z</time>
      </trkpt>
      <trkpt lat="46.16996" lon="6.25449">
        <ele>443</ele>
        <time>2017-04-29T14:42:50.000Z</time>
      </trkpt>
      <trkpt lat="46.17037" lon="6.25401">
        <ele>442</ele>
        <time>2017-04-29T14:42:56.000Z</time>
      </trkpt>
      <trkpt lat="46.17085" lon="6.2535">
        <ele>443</ele>
        <time>2017-04-29T14:43:03.000Z</time>
      </trkpt>
      <trkpt lat="46.1713" lon="6.253">
        <ele>441</ele>
        <time>2017-04-29T14:43:10.000Z</time>
      </trkpt>
      <trkpt lat="46.17174" lon="6.25249">
        <ele>441</ele>
        <time>2017-04-29T14:43:17.000Z</time>
      </trkpt>
      <trkpt lat="46.17214" lon="6.25193">
        <ele>441</ele>
        <time>2017-04-29T14:43:24.000Z</time>
      </trkpt>
      <trkpt lat="46.17254" lon="6.25134">
        <ele>443</ele>
        <time>2017-04-29T14:43:31.000Z</time>
      </trkpt>
      <trkpt lat="46.17295" lon="6.25075">
        <ele>441</ele>
        <time>2017-04-29T14:43:38.000Z</time>
      </trkpt>
      <trkpt lat="46.17335" lon="6.25017">
        <ele>444</ele>
        <time>2017-04-29T14:43:45.000Z</time>
      </trkpt>
      <trkpt lat="46.17374" lon="6.24957">
        <ele>443</ele>
        <time>2017-04-29T14:43:52.000Z</time>
      </trkpt>
      <trkpt lat="46.17414" lon="6.24895">
        <ele>441</ele>
        <time>2017-04-29T14:43:59.000Z</time>
      </trkpt>
      <trkpt lat="46.17455" lon="6.24834">
        <ele>442</ele>
        <time>2017-04-29T14:44:06.000Z</time>
      </trkpt>
      <trkpt lat="46.17483" lon="6.24789">
        <ele>440</ele>
        <time>2017-04-29T14:44:11.000Z</time>
      </trkpt>
      <trkpt lat="46.17522" lon="6.24726">
        <ele>441</ele>
        <time>2017-04-29T14:44:18.000Z</time>
      </trkpt>
      <trkpt lat="46.17561" lon="6.24659">
        <ele>440</ele>
        <time>2017-04-29T14:44:25.000Z</time>
      </trkpt>
      <trkpt lat="46.17601" lon="6.24591">
        <ele>440</ele>
        <time>2017-04-29T14:44:32.000Z</time>
      </trkpt>
      <trkpt lat="46.17607" lon="6.24582">
        <ele>440</ele>
        <time>2017-04-29T14:44:33.000Z</time>
      </trkpt>
      <trkpt lat="46.17647" lon="6.24513">
        <ele>439</ele>
        <time>2017-04-29T14:44:40.000Z</time>
      </trkpt>
      <trkpt lat="46.17686" lon="6.24449">
        <ele>439</ele>
        <time>2017-04-29T14:44:48.000Z</time>
      </trkpt>
      <trkpt lat="46.17693" lon="6.24439">
        <ele>439</ele>
        <time>2017-04-29T14:44:50.000Z</time>
      </trkpt>
      <trkpt lat="46.17697" lon="6.24435">
        <ele>439</ele>
        <time>2017-04-29T14:44:51.000Z</time>
      </trkpt>
      <trkpt lat="46.17701" lon="6.24432">
        <ele>439</ele>
        <time>2017-04-29T14:44:52.000Z</time>
      </trkpt>
      <trkpt lat="46.17711" lon="6.24426">
        <ele>439</ele>
        <time>2017-04-29T14:44:54.000Z</time>
      </trkpt>
      <trkpt lat="46.17718" lon="6.24414">
        <ele>439</ele>
        <time>2017-04-29T14:44:56.000Z</time>
      </trkpt>
      <trkpt lat="46.17714" lon="6.24398">
        <ele>439</ele>
        <time>2017-04-29T14:44:58.000Z</time>
      </trkpt>
      <trkpt lat="46.17704" lon="6.24387">
        <ele>439</ele>
        <time>2017-04-29T14:45:00.000Z</time>
      </trkpt>
      <trkpt lat="46.1769" lon="6.24381">
        <ele>439</ele>
        <time>2017-04-29T14:45:02.000Z</time>
      </trkpt>
      <trkpt lat="46.17684" lon="6.24376">
        <ele>439</ele>
        <time>2017-04-29T14:45:03.000Z</time>
      </trkpt>
      <trkpt lat="46.17678" lon="6.2437">
        <ele>439</ele>
        <time>2017-04-29T14:45:04.000Z</time>
      </trkpt>
      <trkpt lat="46.1764" lon="6.24302">
        <ele>433</ele>
        <time>2017-04-29T14:45:11.000Z</time>
      </trkpt>
      <trkpt lat="46.17635" lon="6.24289">
        <ele>433</ele>
        <time>2017-04-29T14:45:12.000Z</time>
      </trkpt>
      <trkpt lat="46.17625" lon="6.24246">
        <ele>429</ele>
        <time>2017-04-29T14:45:15.000Z</time>
      </trkpt>
      <trkpt lat="46.17622" lon="6.24215">
        <ele>429</ele>
        <time>2017-04-29T14:45:17.000Z</time>
      </trkpt>
      <trkpt lat="46.17622" lon="6.24199">
        <ele>428</ele>
        <time>2017-04-29T14:45:18.000Z</time>
      </trkpt>
      <trkpt lat="46.17622" lon="6.24182">
        <ele>428</ele>
        <time>2017-04-29T14:45:19.000Z</time>
      </trkpt>
      <trkpt lat="46.17627" lon="6.24149">
        <ele>426</ele>
        <time>2017-04-29T14:45:21.000Z</time>
      </trkpt>
      <trkpt lat="46.17635" lon="6.24116">
        <ele>425</ele>
        <time>2017-04-29T14:45:23.000Z</time>
      </trkpt>
      <trkpt lat="46.17646" lon="6.24084">
        <ele>427</ele>
        <time>2017-04-29T14:45:25.000Z</time>
      </trkpt>
      <trkpt lat="46.17666" lon="6.24038">
        <ele>419</ele>
        <time>2017-04-29T14:45:28.000Z</time>
      </trkpt>
      <trkpt lat="46.17679" lon="6.24007">
        <ele>422</ele>
        <time>2017-04-29T14:45:30.000Z</time>
      </trkpt>
      <trkpt lat="46.17686" lon="6.23991">
        <ele>418</ele>
        <time>2017-04-29T14:45:31.000Z</time>
      </trkpt>
      <trkpt lat="46.17693" lon="6.23975">
        <ele>418</ele>
        <time>2017-04-29T14:45:32.000Z</time>
      </trkpt>
      <trkpt lat="46.177" lon="6.2396">
        <ele>418</ele>
        <time>2017-04-29T14:45:33.000Z</time>
      </trkpt>
      <trkpt lat="46.17714" lon="6.23928">
        <ele>418</ele>
        <time>2017-04-29T14:45:35.000Z</time>
      </trkpt>
      <trkpt lat="46.17728" lon="6.23896">
        <ele>413</ele>
        <time>2017-04-29T14:45:37.000Z</time>
      </trkpt>
      <trkpt lat="46.17742" lon="6.23865">
        <ele>411</ele>
        <time>2017-04-29T14:45:39.000Z</time>
      </trkpt>
      <trkpt lat="46.17755" lon="6.23836">
        <ele>411</ele>
        <time>2017-04-29T14:45:41.000Z</time>
      </trkpt>
      <trkpt lat="46.17761" lon="6.23822">
        <ele>410</ele>
        <time>2017-04-29T14:45:42.000Z</time>
      </trkpt>
      <trkpt lat="46.17767" lon="6.23808">
        <ele>410</ele>
        <time>2017-04-29T14:45:43.000Z</time>
      </trkpt>
      <trkpt lat="46.17774" lon="6.23794">
        <ele>409</ele>
        <time>2017-04-29T14:45:44.000Z</time>
      </trkpt>
      <trkpt lat="46.1778" lon="6.23781">
        <ele>409</ele>
        <time>2017-04-29T14:45:45.000Z</time>
      </trkpt>
      <trkpt lat="46.17795" lon="6.23756">
        <ele>409</ele>
        <time>2017-04-29T14:45:47.000Z</time>
      </trkpt>
      <trkpt lat="46.1781" lon="6.23733">
        <ele>406</ele>
        <time>2017-04-29T14:45:49.000Z</time>
      </trkpt>
      <trkpt lat="46.17842" lon="6.23691">
        <ele>408</ele>
        <time>2017-04-29T14:45:53.000Z</time>
      </trkpt>
      <trkpt lat="46.17877" lon="6.23656">
        <ele>406</ele>
        <time>2017-04-29T14:45:57.000Z</time>
      </trkpt>
      <trkpt lat="46.17912" lon="6.23628">
        <ele>406</ele>
        <time>2017-04-29T14:46:01.000Z</time>
      </trkpt>
      <trkpt lat="46.17966" lon="6.23594">
        <ele>408</ele>
        <time>2017-04-29T14:46:07.000Z</time>
      </trkpt>
      <trkpt lat="46.17992" lon="6.23578">
        <ele>406</ele>
        <time>2017-04-29T14:46:10.000Z</time>
      </trkpt>
      <trkpt lat="46.18044" lon="6.2355">
        <ele>409</ele>
        <time>2017-04-29T14:46:16.000Z</time>
      </trkpt>
      <trkpt lat="46.18061" lon="6.23544">
        <ele>410</ele>
        <time>2017-04-29T14:46:18.000Z</time>
      </trkpt>
      <trkpt lat="46.18083" lon="6.23522">
        <ele>409</ele>
        <time>2017-04-29T14:46:21.000Z</time>
      </trkpt>
      <trkpt lat="46.18137" lon="6.23484">
        <ele>411</ele>
        <time>2017-04-29T14:46:28.000Z</time>
      </trkpt>
      <trkpt lat="46.18187" lon="6.23452">
        <ele>415</ele>
        <time>2017-04-29T14:46:35.000Z</time>
      </trkpt>
      <trkpt lat="46.1823" lon="6.23405">
        <ele>411</ele>
        <time>2017-04-29T14:46:42.000Z</time>
      </trkpt>
      <trkpt lat="46.18264" lon="6.23342">
        <ele>412</ele>
        <time>2017-04-29T14:46:49.000Z</time>
      </trkpt>
      <trkpt lat="46.18299" lon="6.23274">
        <ele>411</ele>
        <time>2017-04-29T14:46:56.000Z</time>
      </trkpt>
      <trkpt lat="46.18334" lon="6.23202">
        <ele>411</ele>
        <time>2017-04-29T14:47:03.000Z</time>
      </trkpt>
      <trkpt lat="46.18362" lon="6.23127">
        <ele>407</ele>
        <time>2017-04-29T14:47:10.000Z</time>
      </trkpt>
      <trkpt lat="46.18381" lon="6.23068">
        <ele>404</ele>
        <time>2017-04-29T14:47:15.000Z</time>
      </trkpt>
      <trkpt lat="46.18389" lon="6.23047">
        <ele>404</ele>
        <time>2017-04-29T14:47:17.000Z</time>
      </trkpt>
      <trkpt lat="46.18398" lon="6.23004">
        <ele>403</ele>
        <time>2017-04-29T14:47:21.000Z</time>
      </trkpt>
      <trkpt lat="46.18428" lon="6.22935">
        <ele>403</ele>
        <time>2017-04-29T14:47:28.000Z</time>
      </trkpt>
      <trkpt lat="46.18458" lon="6.22863">
        <ele>403</ele>
        <time>2017-04-29T14:47:35.000Z</time>
      </trkpt>
      <trkpt lat="46.18486" lon="6.2279">
        <ele>402</ele>
        <time>2017-04-29T14:47:42.000Z</time>
      </trkpt>
      <trkpt lat="46.18511" lon="6.2271">
        <ele>403</ele>
        <time>2017-04-29T14:47:49.000Z</time>
      </trkpt>
      <trkpt lat="46.18534" lon="6.22629">
        <ele>404</ele>
        <time>2017-04-29T14:47:56.000Z</time>
      </trkpt>
      <trkpt lat="46.18553" lon="6.22544">
        <ele>404</ele>
        <time>2017-04-29T14:48:03.000Z</time>
      </trkpt>
      <trkpt lat="46.18558" lon="6.22519">
        <ele>404</ele>
        <time>2017-04-29T14:48:05.000Z</time>
      </trkpt>
      <trkpt lat="46.18572" lon="6.22444">
        <ele>402</ele>
        <time>2017-04-29T14:48:11.000Z</time>
      </trkpt>
      <trkpt lat="46.18588" lon="6.22366">
        <ele>403</ele>
        <time>2017-04-29T14:48:17.000Z</time>
      </trkpt>
      <trkpt lat="46.18611" lon="6.22291">
        <ele>403</ele>
        <time>2017-04-29T14:48:23.000Z</time>
      </trkpt>
      <trkpt lat="46.18644" lon="6.22233">
        <ele>403</ele>
        <time>2017-04-29T14:48:30.000Z</time>
      </trkpt>
      <trkpt lat="46.18656" lon="6.22225">
        <ele>403</ele>
        <time>2017-04-29T14:48:35.000Z</time>
      </trkpt>
      <trkpt lat="46.18663" lon="6.22212">
        <ele>403</ele>
        <time>2017-04-29T14:48:37.000Z</time>
      </trkpt>
      <trkpt lat="46.18664" lon="6.22195">
        <ele>403</ele>
        <time>2017-04-29T14:48:39.000Z</time>
      </trkpt>
      <trkpt lat="46.18655" lon="6.22181">
        <ele>403</ele>
        <time>2017-04-29T14:48:41.000Z</time>
      </trkpt>
      <trkpt lat="46.18636" lon="6.22164">
        <ele>403</ele>
        <time>2017-04-29T14:48:44.000Z</time>
      </trkpt>
      <trkpt lat="46.18596" lon="6.22096">
        <ele>402</ele>
        <time>2017-04-29T14:48:51.000Z</time>
      </trkpt>
      <trkpt lat="46.18582" lon="6.22075">
        <ele>402</ele>
        <time>2017-04-29T14:48:53.000Z</time>
      </trkpt>
      <trkpt lat="46.18556" lon="6.22028">
        <ele>401</ele>
        <time>2017-04-29T14:48:57.000Z</time>
      </trkpt>
      <trkpt lat="46.18536" lon="6.21941">
        <ele>401</ele>
        <time>2017-04-29T14:49:03.000Z</time>
      </trkpt>
      <trkpt lat="46.18522" lon="6.21854">
        <ele>402</ele>
        <time>2017-04-29T14:49:09.000Z</time>
      </trkpt>
      <trkpt lat="46.18506" lon="6.21767">
        <ele>401</ele>
        <time>2017-04-29T14:49:15.000Z</time>
      </trkpt>
      <trkpt lat="46.18493" lon="6.2169">
        <ele>401</ele>
        <time>2017-04-29T14:49:21.000Z</time>
      </trkpt>
      <trkpt lat="46.18487" lon="6.21665">
        <ele>401</ele>
        <time>2017-04-29T14:49:24.000Z</time>
      </trkpt>
      <trkpt lat="46.18441" lon="6.21619">
        <ele>402</ele>
        <time>2017-04-29T14:49:31.000Z</time>
      </trkpt>
      <trkpt lat="46.18384" lon="6.21589">
        <ele>402</ele>
        <time>2017-04-29T14:49:37.000Z</time>
      </trkpt>
      <trkpt lat="46.1833" lon="6.21558">
        <ele>400</ele>
        <time>2017-04-29T14:49:43.000Z</time>
      </trkpt>
      <trkpt lat="46.18277" lon="6.21528">
        <ele>401</ele>
        <time>2017-04-29T14:49:49.000Z</time>
      </trkpt>
      <trkpt lat="46.18254" lon="6.21513">
        <ele>401</ele>
        <time>2017-04-29T14:49:52.000Z</time>
      </trkpt>
      <trkpt lat="46.18246" lon="6.21494">
        <ele>403</ele>
        <time>2017-04-29T14:49:54.000Z</time>
      </trkpt>
      <trkpt lat="46.18242" lon="6.21472">
        <ele>404</ele>
        <time>2017-04-29T14:49:56.000Z</time>
      </trkpt>
      <trkpt lat="46.18244" lon="6.2146">
        <ele>404</ele>
        <time>2017-04-29T14:49:57.000Z</time>
      </trkpt>
      <trkpt lat="46.18246" lon="6.21448">
        <ele>405</ele>
        <time>2017-04-29T14:49:58.000Z</time>
      </trkpt>
      <trkpt lat="46.18255" lon="6.21416">
        <ele>409</ele>
        <time>2017-04-29T14:50:01.000Z</time>
      </trkpt>
      <trkpt lat="46.18262" lon="6.21388">
        <ele>410</ele>
        <time>2017-04-29T14:50:04.000Z</time>
      </trkpt>
      <trkpt lat="46.18268" lon="6.21371">
        <ele>411</ele>
        <time>2017-04-29T14:50:06.000Z</time>
      </trkpt>
      <trkpt lat="46.18279" lon="6.21339">
        <ele>413</ele>
        <time>2017-04-29T14:50:10.000Z</time>
      </trkpt>
      <trkpt lat="46.18288" lon="6.21316">
        <ele>415</ele>
        <time>2017-04-29T14:50:13.000Z</time>
      </trkpt>
      <trkpt lat="46.18291" lon="6.21309">
        <ele>415</ele>
        <time>2017-04-29T14:50:14.000Z</time>
      </trkpt>
      <trkpt lat="46.18298" lon="6.21294">
        <ele>415</ele>
        <time>2017-04-29T14:50:16.000Z</time>
      </trkpt>
      <trkpt lat="46.18305" lon="6.2128">
        <ele>415</ele>
        <time>2017-04-29T14:50:18.000Z</time>
      </trkpt>
      <trkpt lat="46.18308" lon="6.21274">
        <ele>415</ele>
        <time>2017-04-29T14:50:19.000Z</time>
      </trkpt>
      <trkpt lat="46.18316" lon="6.21263">
        <ele>415</ele>
        <time>2017-04-29T14:50:21.000Z</time>
      </trkpt>
      <trkpt lat="46.18327" lon="6.21248">
        <ele>416</ele>
        <time>2017-04-29T14:50:24.000Z</time>
      </trkpt>
      <trkpt lat="46.18335" lon="6.21238">
        <ele>416</ele>
        <time>2017-04-29T14:50:26.000Z</time>
      </trkpt>
      <trkpt lat="46.18345" lon="6.21221">
        <ele>417</ele>
        <time>2017-04-29T14:50:29.000Z</time>
      </trkpt>
      <trkpt lat="46.18347" lon="6.21214">
        <ele>417</ele>
        <time>2017-04-29T14:50:30.000Z</time>
      </trkpt>
      <trkpt lat="46.18359" lon="6.21187">
        <ele>419</ele>
        <time>2017-04-29T14:50:34.000Z</time>
      </trkpt>
      <trkpt lat="46.18373" lon="6.21164">
        <ele>422</ele>
        <time>2017-04-29T14:50:38.000Z</time>
      </trkpt>
      <trkpt lat="46.18381" lon="6.21145">
        <ele>422</ele>
        <time>2017-04-29T14:50:41.000Z</time>
      </trkpt>
      <trkpt lat="46.18388" lon="6.21125">
        <ele>422</ele>
        <time>2017-04-29T14:50:44.000Z</time>
      </trkpt>
      <trkpt lat="46.18385" lon="6.21113">
        <ele>423</ele>
        <time>2017-04-29T14:50:46.000Z</time>
      </trkpt>
      <trkpt lat="46.18376" lon="6.2111">
        <ele>423</ele>
        <time>2017-04-29T14:50:48.000Z</time>
      </trkpt>
      <trkpt lat="46.18347" lon="6.21111">
        <ele>423</ele>
        <time>2017-04-29T14:50:53.000Z</time>
      </trkpt>
      <trkpt lat="46.18335" lon="6.21105">
        <ele>423</ele>
        <time>2017-04-29T14:50:55.000Z</time>
      </trkpt>
      <trkpt lat="46.18331" lon="6.211">
        <ele>422</ele>
        <time>2017-04-29T14:50:56.000Z</time>
      </trkpt>
      <trkpt lat="46.18326" lon="6.21094">
        <ele>422</ele>
        <time>2017-04-29T14:50:57.000Z</time>
      </trkpt>
      <trkpt lat="46.18314" lon="6.21072">
        <ele>421</ele>
        <time>2017-04-29T14:51:00.000Z</time>
      </trkpt>
      <trkpt lat="46.18302" lon="6.2105">
        <ele>419</ele>
        <time>2017-04-29T14:51:03.000Z</time>
      </trkpt>
      <trkpt lat="46.18297" lon="6.21032">
        <ele>419</ele>
        <time>2017-04-29T14:51:05.000Z</time>
      </trkpt>
      <trkpt lat="46.18294" lon="6.21013">
        <ele>418</ele>
        <time>2017-04-29T14:51:07.000Z</time>
      </trkpt>
      <trkpt lat="46.18293" lon="6.20971">
        <ele>418</ele>
        <time>2017-04-29T14:51:11.000Z</time>
      </trkpt>
      <trkpt lat="46.18293" lon="6.20885">
        <ele>418</ele>
        <time>2017-04-29T14:51:19.000Z</time>
      </trkpt>
      <trkpt lat="46.18291" lon="6.20805">
        <ele>418</ele>
        <time>2017-04-29T14:51:26.000Z</time>
      </trkpt>
      <trkpt lat="46.18274" lon="6.20726">
        <ele>417</ele>
        <time>2017-04-29T14:51:34.000Z</time>
      </trkpt>
      <trkpt lat="46.18266" lon="6.20693">
        <ele>417</ele>
        <time>2017-04-29T14:51:38.000Z</time>
      </trkpt>
      <trkpt lat="46.18263" lon="6.20684">
        <ele>416</ele>
        <time>2017-04-29T14:51:42.000Z</time>
      </trkpt>
    </trkseg>
  </trk>
</gpx>